GFSNW_prec_cloud_003.txt.gz
Cloud_Cover
100 100 100 0 100 98 99 24 100 100 100 100 100 100 100 100 100 100 100 100 100 100 100 100 100 100 100 100 100 100 100 100 100 100 100 100 100 100 100 100 100 85 62 19
100 100 100 0 28 26 54 100 100 100 99 98 100 100 100 100 100 100 100 100 100 100 100 100 100 100 100 100 100 100 100 100 100 100 100 100 100 100 100 100 96 100 100 99
100 100 100 51 2 29 19 36 67 41 100 66 19 64 100 100 100 100 100 100 100 100 100 100 100 100 100 100 100 100 100 100 100 100 100 100 100 100 99 100 100 100 100 100
88 100 100 97 0 12 12 42 29 29 81 100 86 53 96 100 100 100 100 100 100 100 100 100 100 100 100 100 100 100 100 100 100 100 100 100 100 100 100 100 100 100 100 100
100 100 100 100 0 2 45 5 21 94 43 94 66 96 100 45 100 100 100 100 100 100 100 100 100 100 100 100 100 100 100 100 100 100 100 100 100 100 100 100 100 100 100 100
85 83 100 100 1 0 4 5 6 5 5 88 86 97 100 100 100 100 100 100 100 100 100 100 100 100 100 100 100 100 100 100 100 100 100 100 100 66 16 5 20 5 33 100
56 92 100 100 75 0 1 6 3 0 1 31 72 80 89 100 100 100 100 100 100 98 100 100 100 97 83 100 87 61 100 100 65 100 100 100 52 60 70 74 72 93 100 100
100 94 84 100 100 48 0 2 4 0 0 5 9 100 99 99 100 100 100 100 100 100 100 100 100 100 100 100 96 56 43 100 37 60 100 100 100 100 100 100 100 89 99 91
100 88 85 100 100 100 13 0 0 0 0 0 0 5 5 40 11 92 100 100 100 100 100 100 100 100 100 61 36 55 60 33 8 13 8 53 84 78 48 98 99 96 24 4
100 81 93 97 100 100 100 13 0 0 0 0 0 2 4 5 5 45 53 100 100 100 89 98 91 89 24 25 9 10 5 5 5 7 49 27 62 28 23 21 22 6 18 6
100 96 98 72 100 98 100 100 41 4 3 2 0 0 0 5 5 5 14 78 82 99 97 60 6 28 96 83 50 15 7 34 49 100 100 100 6 5 24 14 5 5 5 24
91 100 100 76 63 81 84 62 69 95 7 5 5 5 0 0 1 5 54 100 95 100 97 53 5 5 27 66 100 61 47 5 33 82 74 5 3 2 3 5 5 4 5 5
6 40 98 100 100 72 90 100 100 33 64 90 67 28 13 24 66 47 12 89 95 13 23 35 87 96 99 100 100 94 7 3 29 69 30 2 1 4 2 1 1 1 4 5
42 3 24 56 92 100 100 100 100 100 96 32 66 80 57 100 100 100 100 100 100 100 100 87 85 100 28 85 82 35 5 5 5 5 3 3 2 4 5 5 4 4 5 5
43 77 41 95 94 100 100 100 100 100 51 88 100 92 96 84 100 100 100 100 100 100 94 100 37 88 76 18 21 58 3 2 4 4 1 2 0 3 4 5 5 5 5 5
100 100 100 100 98 100 100 99 100 100 97 68 65 83 98 64 100 100 100 100 100 99 65 53 81 100 79 64 97 2 5 5 5 5 5 5 5 0 5 5 5 0 3 0
100 100 100 100 100 100 100 99 99 100 100 98 80 93 100 100 100 100 100 100 99 98 100 73 88 100 68 100 100 100 100 31 5 5 5 5 1 0 0 0 48 97 100 100
100 100 100 100 100 99 99 100 100 100 100 98 100 100 99 100 100 100 100 100 100 100 100 100 100 100 100 100 12 20 5 5 3 5 4 5 5 2 20 93 100 100 100 99
100 100 100 100 100 100 100 100 100 100 100 100 100 100 100 100 100 100 100 100 100 100 100 100 100 100 100 25 99 58 5 4 1 7 9 21 54 83 99 100 100 100 70 22
100 100 100 100 100 100 98 94 88 90 100 99 100 100 100 100 100 100 100 100 100 100 100 100 100 100 100 100 100 24 5 5 5 5 5 38 84 96 21 74 8 100 100 91
100 100 100 100 100 99 48 90 100 93 95 97 98 82 100 89 96 96 80 98 94 97 70 98 97 99 100 100 90 34 10 6 64 100 45 61 51 5 12 45 52 100 100 89
100 100 100 100 100 100 77 100 96 100 100 99 100 100 100 62 31 62 100 96 96 94 88 97 100 100 100 32 5 9 49 83 74 95 100 79 34 5 10 72 66 90 14 5
100 100 100 100 100 91 93 77 97 100 100 100 100 100 100 100 100 100 100 100 100 100 100 100 100 100 58 18 18 34 24 39 100 100 99 91 69 87 94 99 68 5 5 5
100 100 100 100 100 100 100 100 100 100 84 91 100 100 100 100 100 100 100 100 100 100 100 100 100 91 20 5 5 13 80 100 100 100 100 100 100 100 99 60 11 5 5 5
100 100 100 94 80 100 100 100 100 100 100 99 85 100 100 100 100 99 100 100 100 100 100 100 81 90 77 98 96 100 100 100 100 100 100 99 79 43 10 5 5 5 5 19
100 98 100 100 100 100 100 100 100 100 100 100 100 100 100 100 100 100 100 100 100 100 100 100 100 99 97 83 66 65 99 100 100 100 78 12 5 5 5 5 5 5 5 5
100 96 91 100 100 100 100 100 100 100 100 100 100 100 100 100 100 100 100 100 100 100 100 99 99 99 98 88 65 67 60 35 46 15 5 5 5 5 5 6 5 5 5 5

GFSNW_prec_cloud_006.txt.gz
Cloud_Cover
100 100 100 100 4 74 90 58 100 100 100 100 100 100 100 100 100 100 100 100 100 85 8 63 49 17 9 84 58 100 56 84 31 85 51 5 5 52 65 100 90 100 100 100
100 100 100 100 3 89 60 73 64 88 100 100 100 100 100 100 100 100 91 100 100 100 100 100 100 84 100 100 85 80 76 100 89 5 18 5 65 100 100 100 92 100 100 100
100 100 100 100 2 80 54 61 70 18 82 100 100 100 100 100 100 100 100 100 100 100 100 100 100 100 100 100 100 100 100 100 100 100 100 100 99 98 90 100 100 100 100 100
100 100 100 100 36 88 44 97 100 17 39 54 96 100 94 100 100 100 100 100 100 100 100 100 100 100 100 100 100 100 100 100 100 28 5 39 86 100 100 100 100 100 100 100
100 100 100 100 47 4 51 91 100 94 6 5 18 100 100 100 100 98 100 100 100 100 100 100 100 100 100 100 100 100 100 100 100 100 100 100 100 100 100 100 100 100 100 100
100 100 100 100 50 0 5 32 57 6 23 77 58 73 100 100 100 100 95 100 100 100 100 100 100 100 100 100 100 100 100 100 100 100 100 100 100 100 100 100 100 100 100 100
100 100 100 100 88 0 0 2 14 7 19 84 44 20 100 82 100 100 100 100 100 100 100 100 100 100 100 100 100 100 100 100 100 100 100 67 98 82 97 81 100 100 100 100
100 100 100 100 100 36 0 0 5 5 4 24 94 91 100 100 100 100 100 100 92 100 99 100 100 100 100 100 100 100 100 100 100 100 100 100 100 96 100 100 100 100 100 100
100 100 100 100 100 100 1 0 0 5 4 3 100 100 100 90 100 100 100 55 5 54 86 100 100 100 100 100 100 100 100 100 100 100 100 100 100 100 100 100 100 96 24 13
100 100 99 100 100 100 71 0 0 3 3 0 0 54 96 95 64 100 68 89 100 100 75 98 100 100 100 100 100 100 98 99 100 84 100 100 100 100 66 57 6 5 5 5
100 100 100 100 100 100 100 56 0 0 0 0 0 0 5 14 69 23 100 100 100 100 92 98 99 100 100 80 7 50 39 38 48 75 48 12 15 13 10 5 5 5 4 3
100 100 99 100 100 100 100 100 82 2 4 4 0 0 2 5 10 50 21 61 100 100 60 5 18 97 15 17 20 5 10 43 9 18 13 8 16 83 85 5 5 6 12 56
80 100 100 100 100 100 100 100 88 100 15 5 6 1 0 0 4 5 73 5 13 48 79 100 46 56 12 10 5 18 29 77 100 71 34 44 73 94 82 59 5 7 10 5
12 10 39 62 100 100 100 100 100 74 80 96 62 6 5 2 0 0 3 11 20 84 95 96 100 69 36 10 24 16 10 98 100 99 14 5 5 23 62 77 65 38 9 5
15 45 28 48 98 100 100 100 100 100 99 97 76 100 99 88 19 42 74 99 100 100 100 100 100 100 87 35 64 95 73 100 99 86 44 7 5 5 5 5 5 5 5 3
71 81 98 99 75 100 100 100 100 100 100 100 86 70 94 96 88 100 100 100 100 100 100 100 100 100 92 80 80 5 28 9 6 6 5 5 5 5 3 0 0 0 0 0
44 64 99 98 100 100 78 89 98 100 100 100 100 98 73 99 100 100 100 100 100 100 100 100 100 100 83 68 95 1 5 5 5 5 5 5 4 0 2 0 67 92 77 68
99 100 100 100 100 92 91 99 100 100 100 60 100 100 100 100 100 100 100 100 100 100 100 100 100 100 100 100 12 5 5 5 5 5 3 4 5 5 5 92 100 100 100 100
100 100 100 99 100 100 85 100 100 100 100 100 100 100 100 100 100 100 100 100 100 100 100 100 80 61 100 30 14 5 6 5 5 5 7 48 66 91 88 86 98 100 100 95
100 100 100 100 100 95 99 100 100 100 100 89 87 100 100 100 100 100 100 100 100 99 100 100 100 100 100 100 97 19 7 6 5 5 5 68 10 84 94 5 39 89 34 98
100 100 100 100 100 100 98 81 72 92 94 84 79 100 100 99 100 100 67 99 100 92 68 100 100 100 100 100 94 70 50 17 5 9 78 96 43 9 19 7 5 16 22 88
100 100 100 100 100 100 100 100 99 100 91 95 100 100 100 98 100 100 90 96 94 100 96 100 92 100 100 77 9 9 76 100 100 100 100 100 79 47 12 5 5 5 23 5
100 100 100 100 100 96 100 100 100 100 100 100 100 100 100 100 84 99 99 100 92 42 96 76 100 100 84 28 13 53 89 100 100 99 71 46 30 62 41 5 5 5 5 5
100 100 100 100 100 50 100 100 100 100 100 100 100 100 100 100 100 100 100 100 94 100 98 100 97 59 34 16 29 5 12 98 100 99 95 42 5 21 5 5 5 5 5 5
100 100 100 100 100 100 100 100 100 100 100 100 100 100 100 100 100 100 100 100 100 100 100 97 49 25 10 5 5 5 5 7 34 5 5 8 5 5 5 5 5 5 5 5
100 100 100 100 100 100 100 100 100 100 100 100 100 100 100 100 100 100 100 100 100 100 95 58 27 16 75 96 91 95 100 99 63 25 14 9 5 15 11 6 5 16 37 12
100 76 100 100 100 100 98 98 100 100 100 100 100 100 100 100 100 100 100 100 100 100 100 100 99 100 100 99 100 100 100 75 43 34 33 20 12 10 40 26 9 6 5 5

GFSNW_prec_cloud_009.txt.gz
Cloud_Cover
100 100 100 100 100 50 20 42 90 100 100 100 100 100 100 100 100 100 82 100 100 100 100 100 100 58 56 83 78 97 46 90 37 5 20 5 5 1 0 0 0 0 0 3
100 100 100 100 100 28 4 36 100 100 100 100 100 100 100 100 100 100 100 99 60 100 61 100 76 94 19 48 70 98 24 16 100 89 85 8 5 2 1 2 2 5 62 65
100 100 100 100 100 27 2 7 88 100 100 94 100 100 100 100 100 100 100 100 100 85 100 69 17 51 74 23 99 100 93 87 64 32 53 27 5 78 72 17 5 98 22 6
100 100 100 100 100 47 18 5 41 100 100 100 100 95 100 100 100 100 100 100 100 100 100 100 83 93 72 72 99 68 87 90 98 82 9 3 5 6 11 5 94 14 34 4
100 100 100 100 100 76 63 21 12 54 50 100 100 100 99 99 100 100 100 100 100 100 100 100 100 100 100 100 100 100 96 100 84 100 100 5 5 5 44 100 34 5 17 94
100 100 100 100 100 70 34 72 35 11 45 71 100 100 100 97 98 100 100 100 100 100 100 100 90 100 100 100 100 100 100 95 99 98 59 42 4 6 7 14 22 100 100 100
100 100 100 100 100 90 9 100 9 7 46 54 35 100 100 99 100 99 100 100 100 100 100 100 100 100 100 100 95 100 100 100 100 100 95 53 100 77 59 76 100 100 100 100
100 100 100 100 100 100 2 16 16 5 53 99 83 8 100 100 100 100 98 100 100 100 100 100 100 100 100 100 100 100 100 100 100 100 92 100 100 100 100 100 100 100 100 100
100 100 100 100 100 100 94 0 5 5 5 96 100 73 100 100 100 93 99 100 100 100 100 100 100 100 100 100 100 100 100 100 100 100 100 100 100 100 100 100 100 100 100 100
100 100 100 100 100 100 100 9 0 1 5 29 100 100 100 100 94 93 100 94 100 94 98 92 100 100 100 100 100 100 100 100 100 100 100 100 100 100 99 87 100 100 100 100
100 100 100 100 100 100 100 69 0 0 0 3 21 97 99 81 100 100 68 100 100 100 100 100 100 100 99 100 100 100 100 100 100 100 100 100 100 100 100 100 100 100 100 77
100 100 100 100 100 100 100 98 19 0 3 0 0 0 74 95 100 100 100 100 100 100 100 92 100 100 100 100 100 100 100 100 100 100 100 100 100 100 100 100 100 80 20 37
100 100 100 100 88 100 100 100 99 8 0 9 2 3 0 5 66 89 72 61 100 100 81 18 54 99 98 100 100 100 100 100 100 100 100 100 100 100 92 98 100 83 58 11
100 100 100 100 92 100 100 100 95 100 51 21 77 5 3 5 5 5 5 0 4 43 100 100 71 63 9 24 84 86 84 94 100 100 86 49 99 75 77 89 26 5 17 10
100 100 71 100 100 100 100 100 100 99 97 100 76 86 26 2 1 2 0 2 5 5 5 8 25 36 62 100 47 87 5 84 90 59 6 16 51 58 55 5 11 36 8 23
100 100 100 100 100 100 100 99 100 100 100 100 95 100 64 52 54 43 16 5 5 9 80 72 99 100 99 44 35 5 11 35 100 99 97 87 82 62 34 37 9 55 28 5
100 100 100 100 100 76 81 54 100 100 100 100 100 99 100 100 100 100 100 94 72 100 91 100 100 100 99 39 54 26 100 100 100 100 98 47 23 5 5 5 77 93 94 66
100 100 100 100 100 94 84 98 100 65 100 100 100 100 100 100 100 100 100 100 100 100 100 100 100 100 100 95 40 10 81 79 38 8 38 37 5 14 6 49 84 93 90 100
100 100 100 100 98 100 92 100 99 84 29 100 100 100 100 100 100 100 100 100 100 100 100 100 100 100 100 55 24 7 43 48 80 64 95 100 94 100 88 48 10 14 99 100
100 100 100 100 100 95 32 72 90 100 99 53 97 100 100 100 100 100 100 100 100 100 100 100 100 100 95 5 35 68 57 28 5 5 5 35 6 48 16 5 5 57 100 47
99 95 100 100 100 100 100 99 83 87 100 96 72 75 100 100 100 100 100 100 100 96 92 99 100 100 96 5 5 5 5 5 5 5 5 5 5 5 5 5 5 5 10 5
100 100 100 100 100 99 88 97 79 99 18 97 100 97 99 96 100 100 100 70 77 93 51 96 42 49 11 5 5 5 5 9 17 41 48 25 5 5 5 5 5 5 5 5
100 100 100 100 98 98 100 94 99 100 100 100 98 96 100 100 100 96 87 100 94 65 100 92 5 97 56 30 66 68 79 96 100 94 93 92 49 9 5 5 5 5 5 5
100 100 100 100 94 43 51 93 100 100 100 100 100 100 100 99 100 100 100 94 70 99 94 44 72 53 93 100 100 100 100 100 100 100 100 100 96 48 5 5 5 9 5 5
100 100 100 88 30 70 99 79 100 100 100 100 100 100 100 100 100 100 100 97 98 78 5 5 12 33 31 53 79 46 8 9 12 6 5 5 5 6 55 36 36 10 30 31
100 100 73 64 50 100 100 100 100 100 100 100 100 100 100 100 100 100 100 100 63 49 64 70 59 21 11 13 16 53 57 64 80 86 95 69 65 50 36 14 51 77 49 13
100 100 72 100 94 100 100 100 100 100 100 100 100 100 100 100 100 100 100 100 100 73 41 34 86 97 84 86 74 38 60 92 97 72 60 86 75 38 44 34 6 5 5 65

GFSNW_prec_cloud_015.txt.gz
Cloud_Cover
100 100 100 100 100 100 100 100 100 100 100 100 100 100 100 100 100 100 100 80 2 1 2 100 100 58 99 91 87 6 5 0 14 5 43 43 25 66 30 5 5 4 0 0
100 100 100 100 100 100 100 100 100 100 100 100 100 100 100 100 100 100 100 100 16 8 97 100 52 49 92 84 92 49 14 5 36 54 28 5 5 8 45 23 5 5 5 1
100 100 100 100 100 100 100 100 100 100 100 100 100 100 100 100 100 100 100 97 90 5 83 93 83 92 100 95 100 97 100 94 33 75 53 82 10 41 14 46 34 5 2 0
100 100 100 100 100 100 100 100 100 94 100 100 100 100 100 100 100 100 100 96 61 5 13 59 100 100 100 93 94 80 79 92 100 100 100 36 67 2 1 6 2 5 30 13
100 100 100 100 100 100 100 100 100 39 95 100 100 100 100 100 100 100 99 100 100 94 5 98 100 100 100 100 98 52 55 95 93 77 92 5 5 5 5 5 84 36 5 0
97 100 100 100 100 100 100 100 100 97 100 100 100 100 100 100 100 100 94 100 87 100 52 86 99 97 100 100 100 97 86 63 69 76 100 68 5 10 4 18 48 56 5 2
100 100 100 100 100 100 100 100 100 75 100 100 100 100 100 100 100 100 100 100 100 80 58 57 94 100 100 100 100 100 100 100 90 94 73 39 80 9 5 5 12 5 65 92
100 100 100 100 100 100 100 100 100 80 100 100 100 100 100 100 100 100 100 100 100 100 100 100 100 100 100 100 100 88 100 95 97 89 12 48 88 100 100 99 73 5 64 99
100 100 100 100 100 100 100 100 100 85 100 96 98 100 100 100 100 100 100 100 100 100 100 100 100 100 100 100 100 100 100 100 100 100 100 100 100 100 86 48 98 100 100 100
100 100 100 100 100 100 100 100 100 31 100 100 68 100 100 100 100 100 100 100 100 100 100 100 100 100 100 100 100 100 100 100 99 92 63 94 100 100 90 99 95 100 91 100
100 100 100 100 100 100 100 100 100 65 89 100 94 66 94 100 100 100 100 100 100 100 100 100 100 100 100 100 100 100 100 100 100 100 100 100 100 78 88 100 100 100 100 100
100 100 100 100 100 100 100 100 100 79 28 99 100 36 95 100 100 100 100 100 100 100 96 100 100 100 100 100 100 100 100 100 100 100 100 100 100 100 100 92 98 99 99 100
100 100 100 100 100 100 100 100 100 88 13 80 97 100 70 100 100 100 100 100 100 100 63 87 100 100 99 100 97 100 100 100 100 100 100 100 100 100 100 100 100 100 100 100
100 100 100 100 100 100 100 100 100 100 70 88 97 100 94 100 100 100 100 94 97 97 100 100 100 100 85 76 71 96 84 61 80 92 66 81 7 5 46 100 100 100 97 98
100 100 100 100 100 100 100 100 100 100 100 76 92 100 75 42 100 98 90 100 100 87 100 100 88 97 100 59 5 30 36 9 19 21 5 5 5 37 13 6 32 86 26 5
100 100 100 100 100 100 100 100 100 100 100 100 100 78 76 15 7 54 92 82 100 100 100 100 100 100 28 9 79 91 88 48 28 89 100 100 22 5 4 4 5 28 60 79
100 100 100 100 100 100 100 100 100 100 100 100 100 100 100 84 56 21 6 5 24 81 100 100 100 100 5 35 76 41 5 5 9 57 5 4 5 5 5 8 39 57 94 77
100 100 100 100 100 100 100 100 100 100 100 100 99 100 100 100 100 100 100 100 78 65 53 92 64 23 36 47 15 6 5 5 21 5 5 5 5 50 93 97 100 99 96 80
100 100 100 100 100 100 100 100 92 100 100 100 100 100 100 100 100 100 100 100 100 100 100 100 100 96 90 33 7 5 5 30 5 12 6 61 100 100 100 100 100 100 54 97
100 100 100 100 100 100 100 100 100 63 100 100 100 100 100 100 100 100 100 100 100 100 100 99 100 84 12 7 6 7 19 95 89 100 100 100 100 100 100 73 59 100 100 66
100 100 100 100 100 100 100 100 93 64 98 100 100 100 100 100 100 100 100 100 99 76 75 99 98 100 100 95 99 100 100 100 100 100 100 99 100 84 50 62 92 100 77 60
100 100 100 100 100 100 100 100 100 96 89 98 100 100 100 100 100 99 100 97 100 95 100 100 100 100 100 83 100 100 100 100 97 79 58 84 80 84 94 73 23 5 5 5
100 100 100 100 100 96 91 100 100 100 100 100 100 100 100 100 100 93 98 38 34 72 97 100 100 100 100 100 100 100 100 100 98 65 43 8 10 8 5 5 5 5 5 5
100 100 100 100 100 64 59 100 100 100 100 100 100 99 90 63 92 37 14 46 96 100 100 100 100 100 100 100 100 100 82 67 72 66 74 58 24 9 26 45 20 24 22 5
100 100 96 99 66 85 95 100 100 100 100 100 100 100 90 94 68 59 100 100 100 100 100 100 100 100 100 100 100 100 100 100 96 80 50 32 25 22 32 28 7 5 5 10
100 100 100 100 70 100 100 100 100 100 100 100 100 100 100 100 60 100 47 59 85 100 100 71 70 83 94 96 97 100 100 100 100 77 60 75 89 92 92 41 12 5 9 62
100 99 62 67 56 100 100 100 100 100 100 100 100 99 100 100 99 99 100 100 80 57 100 100 100 100 100 100 100 100 100 94 99 100 100 100 100 87 11 5 35 43 47 59

GFSNW_prec_cloud_021.txt.gz
Cloud_Cover
100 100 100 100 100 100 100 100 100 100 100 100 100 100 100 100 100 100 100 100 94 85 80 99 100 100 100 100 100 100 100 100 100 100 100 100 65 100 96 46 27 3 7 19
100 100 100 100 100 100 100 100 100 100 100 100 100 100 100 100 100 100 100 100 77 21 98 89 95 96 100 100 100 100 100 100 100 100 100 100 100 37 5 10 53 5 5 68
100 100 100 100 100 100 100 100 100 100 100 100 100 100 100 100 100 100 100 84 71 65 7 39 54 70 83 93 100 100 100 100 100 100 100 95 100 68 56 36 71 10 45 80
100 100 100 100 100 100 100 100 100 100 100 100 100 100 100 100 100 100 100 97 89 14 6 5 36 53 99 91 100 70 86 100 100 100 100 100 100 99 98 72 74 5 5 7
100 100 100 100 100 100 100 100 100 100 100 100 100 100 100 100 100 100 100 100 91 25 18 92 14 100 98 36 74 89 83 99 100 100 100 100 68 56 5 33 6 6 38 5
100 100 100 100 100 100 100 100 100 100 100 100 100 100 100 100 100 100 100 100 100 53 67 85 100 86 100 100 100 100 78 67 100 97 29 5 3 5 5 76 22 24 11 93
100 100 100 100 100 100 100 100 100 100 100 100 89 100 100 100 100 100 100 100 100 47 78 60 100 100 97 87 95 100 90 99 100 90 76 83 5 0 0 1 4 0 0 5
100 100 100 100 100 100 100 100 100 100 100 100 100 100 100 100 100 100 100 100 100 100 99 39 100 100 99 68 67 100 87 100 91 90 81 54 7 3 2 0 3 5 5 5
100 100 100 100 100 100 100 100 100 100 100 99 100 100 100 100 100 100 100 100 100 100 100 85 100 100 100 100 100 100 71 100 99 62 64 88 55 5 5 4 5 5 2 3
100 100 100 100 100 100 100 100 100 100 100 100 100 100 100 100 100 100 100 100 98 100 100 100 79 100 100 100 100 100 100 100 100 100 95 68 34 27 5 5 11 5 5 5
100 100 100 100 100 100 100 100 100 100 100 100 100 100 100 100 100 100 100 100 86 100 100 100 100 100 93 100 99 100 100 100 100 100 99 100 67 94 74 99 51 5 9 75
100 100 100 100 100 100 100 100 100 100 100 100 100 100 100 100 100 100 100 100 100 100 100 84 87 99 99 91 97 100 100 99 96 91 100 100 98 87 50 69 26 96 75 40
100 100 100 100 100 100 100 100 100 100 100 100 100 100 100 99 100 100 100 100 100 100 100 100 100 100 100 100 100 100 100 100 100 100 100 100 91 64 86 100 100 100 100 100
100 100 100 100 100 100 100 100 100 100 100 100 100 100 100 100 100 100 100 100 100 100 100 100 100 100 100 100 100 100 100 100 100 100 100 100 100 100 100 100 100 100 100 100
100 100 100 100 100 100 100 100 100 100 100 100 100 100 80 100 99 100 100 100 100 100 100 100 100 100 100 100 100 100 100 100 100 100 100 100 100 100 100 100 100 100 100 100
100 100 100 100 100 100 100 100 100 100 100 100 100 97 91 100 100 100 100 100 100 100 100 100 100 100 94 100 100 100 100 100 100 100 100 100 100 100 100 79 58 70 95 95
100 100 100 100 100 100 100 100 100 100 100 100 100 100 98 90 100 100 100 100 100 100 100 100 100 100 100 100 100 100 100 100 100 63 6 14 7 5 5 17 22 5 5 5
100 100 100 100 100 100 100 100 100 100 100 100 100 100 100 97 98 99 100 100 100 100 100 100 82 80 100 100 100 100 100 100 99 6 5 5 5 18 12 5 5 5 5 2
100 100 100 100 100 100 100 100 100 100 100 100 100 100 100 100 100 93 94 45 69 91 100 100 81 23 90 100 100 67 6 5 10 5 8 5 5 5 5 5 5 5 4 4
100 100 100 100 100 100 100 100 100 100 100 100 100 100 100 100 100 100 99 80 92 99 75 97 97 90 100 100 100 100 35 6 44 12 80 100 100 24 5 5 5 5 7 75
100 100 100 100 100 100 100 100 100 100 100 100 100 100 100 100 100 100 100 100 100 100 89 99 86 100 82 5 5 23 13 16 33 36 10 5 7 5 6 11 75 71 100 100
100 100 100 100 100 100 100 100 91 89 100 100 100 100 100 100 100 100 100 100 100 95 99 95 100 100 38 5 3 7 70 100 100 89 52 10 9 41 53 89 100 100 100 100
100 100 100 100 100 96 93 99 99 100 100 100 100 100 100 100 100 100 97 90 100 100 100 100 100 7 5 23 24 9 67 100 100 87 98 40 87 99 100 100 100 77 78 98
100 100 100 100 97 39 74 100 100 100 100 100 100 100 97 95 54 14 59 39 84 100 100 100 100 100 100 100 100 100 100 100 100 100 99 93 94 100 100 100 85 100 100 100
100 100 100 100 100 100 100 100 100 100 100 100 100 99 100 100 51 10 70 100 55 100 100 100 100 100 99 100 100 100 100 100 100 100 100 100 100 100 100 100 100 97 91 93
100 100 100 100 100 100 100 100 100 100 100 100 100 69 63 94 54 76 24 69 100 100 100 94 96 100 93 94 98 100 100 100 100 100 100 100 100 100 100 100 100 100 88 96
100 100 71 100 100 100 100 100 100 100 100 100 72 62 42 71 99 61 63 100 100 100 85 69 75 100 100 100 100 100 100 100 100 100 100 100 100 100 100 77 52 97 100 96

GFSNW_prec_cloud_024.txt.gz
Cloud_Cover
100 100 100 100 100 98 100 100 100 100 100 100 100 100 100 100 100 100 100 100 100 100 100 100 72 100 100 100 100 100 100 100 100 100 100 100 100 100 83 97 80 100 100 4
100 100 100 100 100 100 100 100 100 100 100 100 100 100 100 100 100 100 100 100 100 99 60 100 100 100 100 100 100 100 100 100 100 100 100 100 100 100 100 89 98 100 95 64
100 100 100 100 100 100 100 100 100 100 100 100 100 100 100 100 100 100 100 100 100 100 30 88 100 100 100 100 100 100 100 100 100 100 100 100 100 100 38 68 100 100 38 5
100 100 100 100 100 100 100 100 100 100 100 100 100 100 100 100 100 100 100 100 100 34 80 44 100 100 100 100 100 100 100 100 100 100 100 99 100 100 95 5 22 5 35 5
100 100 100 100 100 100 100 100 100 100 100 100 100 100 100 100 100 100 100 100 93 73 94 5 6 100 100 100 100 100 100 100 100 100 100 100 100 100 45 5 5 5 5 5
100 100 100 100 100 100 100 100 100 100 100 100 100 100 100 100 100 100 100 100 100 70 13 66 100 100 87 100 100 100 100 98 97 100 100 100 100 100 99 100 40 40 46 84
100 100 100 100 100 100 100 100 100 100 100 100 100 100 100 100 100 100 100 100 100 95 42 61 100 100 100 100 100 80 68 32 43 37 61 78 89 81 65 100 72 35 62 45
100 100 100 100 100 100 100 100 100 100 100 100 100 100 100 100 100 100 100 100 100 100 100 94 100 100 100 100 96 97 100 78 95 99 77 94 100 58 93 8 37 13 6 4
100 100 100 100 100 100 100 100 100 100 100 100 100 100 100 100 100 100 100 100 100 100 99 69 100 100 100 85 100 100 100 100 99 100 97 37 55 6 5 7 14 4 5 5
100 100 100 100 100 100 100 100 100 100 100 100 100 100 100 100 100 100 100 100 100 100 100 89 77 100 100 100 100 100 100 100 80 91 85 94 100 88 38 32 55 5 5 1
100 100 100 100 100 100 100 100 100 100 100 100 100 100 100 100 100 100 100 100 100 100 100 100 100 100 100 100 100 99 100 100 100 98 75 74 41 91 98 91 88 16 5 5
100 100 100 100 100 100 100 100 100 100 100 100 100 100 100 100 100 100 100 100 100 100 100 100 100 100 100 100 100 100 100 100 100 99 100 100 100 81 100 80 80 60 47 33
100 100 100 100 100 100 100 100 100 100 100 100 100 100 100 100 100 100 100 100 100 100 100 100 100 100 100 100 100 100 100 100 100 77 100 100 100 77 78 100 64 80 99 100
100 100 100 100 100 100 100 100 100 100 100 100 100 100 100 100 100 100 100 100 100 100 100 100 100 100 99 100 100 100 100 100 100 100 90 94 100 99 100 100 100 100 100 100
100 100 100 100 100 100 100 100 100 100 100 100 100 100 100 100 100 100 100 100 100 100 100 100 100 100 100 100 100 100 100 100 100 100 100 100 100 100 100 100 100 100 100 100
100 100 100 100 100 100 100 100 100 100 100 100 100 100 100 100 100 100 100 100 100 100 100 100 100 100 100 100 100 100 100 100 100 100 100 100 100 100 100 100 100 100 100 100
100 100 100 100 100 100 100 100 100 100 100 100 100 100 100 100 100 100 100 100 100 100 100 100 100 100 100 100 100 100 100 100 100 100 100 100 100 100 100 100 100 82 26 48
100 100 100 100 100 100 100 100 100 100 100 100 100 100 100 100 100 100 100 100 86 100 100 100 100 100 100 100 100 100 100 81 63 100 100 100 100 100 100 100 100 76 5 5
100 100 100 100 100 100 100 100 100 100 100 100 100 100 100 100 100 100 100 100 100 82 95 98 79 89 100 100 100 84 100 99 100 22 92 100 97 100 100 59 6 5 23 69
100 100 100 100 100 100 100 100 100 100 100 100 100 100 100 100 100 100 100 100 100 100 100 76 90 100 100 100 84 34 67 99 78 34 100 100 99 50 41 95 42 59 96 68
100 100 100 100 100 100 100 100 100 100 100 100 100 100 100 100 100 100 100 100 100 100 100 100 100 100 100 100 100 29 5 5 5 5 5 34 5 15 74 57 40 72 29 5
100 100 100 100 100 100 100 100 100 100 100 100 100 100 100 100 100 100 100 100 99 100 100 100 100 100 98 42 7 47 56 6 10 56 40 28 12 5 5 15 6 12 87 99
100 100 100 100 100 100 100 100 100 100 100 100 100 100 100 99 100 100 100 82 98 100 100 100 100 100 100 94 72 76 90 77 99 100 100 100 71 5 13 14 81 99 85 95
100 100 100 100 100 70 90 100 100 100 100 100 100 100 100 78 86 99 78 47 70 99 100 100 100 98 49 78 86 80 47 67 100 100 100 100 90 96 100 100 100 100 100 100
100 100 100 100 80 100 100 100 100 100 100 100 100 100 63 84 100 85 70 91 100 100 100 100 100 100 97 95 100 100 100 100 100 100 100 100 100 100 100 100 100 100 100 75
100 100 100 100 100 100 100 100 100 100 100 100 100 100 94 71 7 63 59 84 100 100 100 100 52 45 64 42 81 100 100 100 100 100 100 100 100 100 98 78 43 62 98 100
100 100 100 100 100 100 100 100 100 100 100 100 100 100 99 95 79 10 18 100 93 100 100 100 99 83 95 100 100 100 100 100 100 100 100 100 100 100 95 91 100 100 100 100

GFSNW_prec_cloud_027.txt.gz
Cloud_Cover
100 100 100 100 100 100 100 100 100 100 100 100 100 100 100 100 100 100 100 100 100 100 100 50 99 100 100 100 100 100 100 100 100 100 100 100 100 100 100 100 100 100 90 69
100 100 100 100 100 100 100 100 100 100 100 100 100 100 100 100 100 100 100 100 100 100 78 99 95 100 100 100 100 100 100 100 100 100 100 100 100 100 100 100 100 100 100 84
100 100 100 100 100 100 100 100 100 100 100 100 100 100 100 100 100 100 100 100 100 100 93 95 83 96 100 100 100 100 100 100 100 100 100 100 100 100 100 100 100 100 100 100
100 100 100 100 100 100 100 100 100 100 100 100 100 100 100 100 100 100 100 100 100 100 83 6 8 45 100 100 100 100 100 100 100 100 100 100 100 100 100 100 100 100 100 100
100 100 100 100 100 100 100 100 100 100 100 100 100 100 100 100 100 100 100 100 100 100 76 5 100 100 100 100 100 100 100 100 100 100 100 100 100 87 100 100 100 100 100 100
100 100 100 100 100 100 100 100 100 100 100 100 100 100 100 100 100 100 100 100 100 100 89 19 59 95 99 100 100 100 100 100 100 100 100 100 100 100 100 100 100 100 67 80
100 100 100 100 100 100 100 100 100 100 100 100 100 100 100 100 100 100 100 100 100 100 100 94 73 99 80 100 100 100 95 100 100 100 100 98 84 98 84 100 100 57 75 100
100 100 100 100 100 100 100 100 100 100 100 100 100 100 100 100 100 100 100 100 100 100 100 100 100 99 88 100 97 100 49 98 100 76 87 99 97 90 80 100 25 25 5 78
100 100 100 100 100 100 100 100 100 100 100 100 100 100 100 100 100 100 100 100 100 100 100 100 100 100 89 98 100 91 99 99 97 75 100 100 97 67 98 52 19 99 74 83
99 100 100 100 100 100 100 100 100 100 100 100 100 100 100 100 100 100 100 100 100 100 100 100 100 100 100 100 98 91 100 100 100 100 100 100 100 100 55 43 58 79 58 20
100 100 100 100 100 100 100 100 100 100 100 100 100 100 100 100 100 100 100 100 100 100 100 100 50 97 100 90 88 100 100 99 100 100 99 93 70 98 83 71 91 94 98 81
100 100 100 100 100 100 100 100 100 100 100 100 100 100 100 100 100 100 100 100 100 100 100 96 98 92 95 78 98 92 99 100 100 45 98 38 32 5 39 18 5 5 5 5
100 99 100 100 100 100 100 100 100 100 100 100 100 100 100 100 100 100 100 100 100 100 100 100 100 100 100 87 100 84 63 95 100 95 100 77 100 100 98 12 14 7 6 11
100 100 100 100 100 100 100 100 100 100 100 100 100 100 100 100 100 100 100 100 100 100 100 100 100 100 100 100 100 100 100 100 100 100 72 74 73 67 92 96 98 94 85 93
100 100 100 100 100 100 100 100 100 100 100 100 100 100 100 100 100 100 100 100 100 100 100 100 100 100 97 98 100 100 100 100 100 100 100 100 100 100 100 97 90 99 96 100
100 100 100 100 100 100 100 100 100 100 100 100 100 100 100 100 100 100 100 100 100 100 100 100 100 100 100 100 100 100 100 100 100 100 100 100 100 100 100 100 100 100 100 100
100 100 100 100 100 100 100 100 100 100 100 100 100 100 100 100 100 100 100 100 100 100 100 100 100 100 100 100 100 100 100 100 100 100 100 100 100 100 100 100 100 100 100 100
100 100 100 100 100 100 100 100 100 100 100 100 100 100 100 100 100 100 100 100 96 100 100 100 100 100 100 100 100 100 100 100 100 100 100 100 87 88 100 100 100 91 100 98
100 100 100 100 100 100 100 100 100 100 100 100 100 100 100 100 100 100 100 100 100 100 93 98 100 100 100 100 100 100 100 100 100 100 100 100 100 100 100 97 69 88 99 89
100 100 100 100 100 100 100 100 100 100 100 100 100 100 100 92 100 100 100 100 100 100 96 100 100 100 100 100 96 100 98 68 98 100 100 100 100 100 100 89 83 100 87 94
100 100 100 100 100 100 100 100 100 100 100 100 100 100 100 100 100 100 100 100 100 100 100 98 100 100 100 40 83 90 73 42 74 100 100 100 97 76 48 30 6 47 100 100
100 100 100 100 100 100 100 100 100 100 100 100 100 100 100 100 100 100 100 100 100 100 100 98 100 100 96 86 14 5 8 17 5 35 100 87 9 39 14 6 15 100 100 100
100 100 100 100 100 100 100 100 100 100 100 100 100 100 100 100 100 100 94 99 100 100 100 100 100 100 100 100 100 93 90 20 5 45 94 100 100 100 96 89 100 100 73 81
100 100 100 100 100 98 100 68 95 100 100 100 100 100 100 100 100 99 86 91 100 100 100 100 100 83 100 99 100 99 95 97 93 100 100 100 100 100 88 100 88 62 72 94
100 100 100 100 100 100 98 99 100 100 100 100 100 100 100 100 100 100 68 99 100 100 100 100 95 61 72 78 86 80 92 95 100 100 100 100 100 88 98 100 100 100 100 100
100 100 100 100 100 100 100 100 100 100 100 100 100 100 98 96 82 84 76 100 100 100 100 100 100 100 99 99 93 98 98 99 100 100 100 100 100 100 100 100 100 100 100 100
100 100 100 100 100 100 100 100 100 100 100 100 100 100 100 93 93 100 100 100 100 100 100 100 100 100 100 100 100 100 100 100 100 100 100 100 100 100 100 100 100 99 79 90

GFSNW_prec_cloud_030.txt.gz
Cloud_Cover
100 100 100 100 100 100 100 100 100 100 100 100 100 100 100 81 5 95 99 100 100 100 100 100 100 32 98 100 100 100 100 100 100 100 100 100 100 76 37 99 98 100 100 100
100 100 100 100 100 100 100 100 100 100 100 100 100 100 100 49 99 98 100 100 100 100 100 100 67 100 100 100 100 100 100 100 100 100 100 100 100 100 100 100 100 100 100 100
100 100 100 100 100 100 100 100 100 100 100 100 91 99 98 100 100 100 100 100 100 100 100 100 88 100 100 100 100 100 100 100 100 100 100 100 100 100 100 100 100 100 100 100
100 100 100 100 100 100 100 100 100 100 100 100 100 100 100 100 100 100 100 100 100 100 100 100 93 100 100 100 100 100 100 100 100 100 100 100 100 100 100 100 100 100 100 100
100 100 100 100 100 100 100 100 100 94 100 100 100 100 100 100 100 100 100 100 100 100 100 15 10 100 97 100 100 100 100 100 100 100 100 100 100 100 100 100 100 100 100 100
100 100 100 100 100 100 100 100 100 69 75 100 100 100 100 100 100 100 100 100 100 100 100 54 5 71 100 100 100 100 100 100 100 100 100 100 100 100 100 100 100 100 100 100
94 100 100 100 100 100 100 100 70 64 100 100 100 100 100 100 100 100 100 100 100 92 100 99 42 100 100 99 100 100 100 100 100 100 100 87 93 80 100 100 100 91 100 100
100 80 100 100 100 100 100 100 76 100 100 100 100 100 100 100 100 100 100 100 100 100 100 31 85 85 62 100 100 100 100 100 100 100 100 100 57 62 66 94 100 77 90 17
97 100 100 100 100 100 100 100 100 100 100 100 100 100 100 100 100 100 100 100 100 100 100 100 100 100 100 100 100 72 100 94 96 92 31 62 98 82 51 50 72 15 5 12
100 76 100 100 100 100 100 100 100 100 100 100 100 100 100 100 100 100 100 100 100 100 100 100 100 100 100 100 98 97 100 100 100 100 100 69 49 58 100 100 100 71 29 5
86 61 91 100 100 100 100 100 100 100 100 100 100 100 100 100 100 100 100 100 100 100 100 100 100 100 100 100 100 100 100 100 94 99 96 100 100 100 100 100 100 99 80 89
18 85 86 99 100 100 100 100 100 100 100 100 100 100 100 100 100 100 100 100 100 100 100 100 100 100 100 98 94 100 100 100 100 84 66 99 100 100 100 100 100 100 100 100
51 99 100 98 100 100 100 100 100 100 100 100 100 100 100 100 100 100 100 100 100 100 100 100 100 100 100 98 24 62 46 35 78 7 19 42 9 100 100 100 100 98 99 96
50 99 98 100 100 100 100 100 100 100 100 100 100 100 100 100 100 100 100 100 100 100 100 100 100 99 100 100 91 90 79 100 95 88 84 93 98 93 98 100 100 100 100 98
86 70 100 100 100 100 100 100 100 100 100 100 100 100 100 100 100 100 100 100 100 100 100 100 100 100 89 76 100 100 100 100 100 100 100 100 100 100 100 100 100 100 100 100
47 85 100 100 100 100 100 100 100 100 100 100 100 100 100 100 100 100 100 100 100 100 100 100 100 100 100 100 100 100 100 100 100 100 100 100 100 100 100 100 100 100 98 99
70 100 100 100 100 100 100 100 100 100 100 100 100 100 100 100 100 100 100 100 100 100 100 100 100 100 100 100 100 100 100 100 100 100 100 100 100 100 100 100 100 100 100 100
96 100 100 100 100 100 100 100 100 100 100 100 100 100 100 100 100 100 100 100 100 100 100 100 100 100 100 100 100 100 100 100 100 100 100 100 100 100 100 100 100 100 100 99
47 100 100 100 100 100 100 100 100 77 100 100 100 100 100 100 100 100 100 100 99 100 100 100 100 96 100 100 100 100 100 100 100 100 100 100 100 100 89 78 68 75 100 93
100 100 100 100 100 100 100 100 100 100 100 100 100 100 100 100 100 100 100 100 100 100 100 100 100 100 100 100 100 94 73 99 100 100 99 100 100 91 99 93 100 88 65 73
100 100 100 100 100 100 100 100 100 100 100 100 100 100 100 100 100 100 100 100 100 100 100 100 100 100 98 98 100 100 100 100 100 100 99 100 97 71 74 64 100 85 67 100
100 100 100 100 100 100 100 100 100 100 100 100 100 100 100 100 100 100 100 100 94 100 98 100 100 92 100 89 100 100 100 100 100 100 99 97 97 62 60 65 33 50 100 100
100 100 100 100 100 100 100 100 100 100 100 100 100 100 100 100 100 100 100 100 100 100 100 100 79 79 80 100 100 100 100 100 100 100 100 94 53 19 75 75 86 100 100 100
100 100 100 100 100 94 100 100 100 100 100 100 100 100 100 100 100 100 96 100 100 100 100 100 100 100 100 100 62 47 56 88 95 96 97 97 100 98 75 65 100 100 100 99
100 100 100 100 100 94 100 100 100 100 100 100 100 100 100 100 100 100 100 100 100 100 100 59 36 15 38 44 48 61 68 62 62 97 93 93 80 100 89 93 100 100 97 85
100 100 80 100 100 100 100 100 100 100 100 100 100 100 100 100 100 100 100 100 100 100 96 10 46 8 34 38 41 65 73 98 100 100 99 100 98 99 100 100 97 98 100 100
100 97 92 99 100 100 100 100 100 100 100 100 100 100 100 100 81 99 100 100 100 100 100 83 76 63 97 99 99 100 100 100 100 100 100 100 100 100 100 100 100 100 100 100

GFSNW_prec_cloud_033.txt.gz
Cloud_Cover
79 100 100 100 100 100 100 100 100 100 100 100 100 100 100 100 100 100 33 68 100 94 88 100 100 100 100 100 56 78 61 100 100 100 100 100 100 100 100 100 100 42 48 88
100 94 89 100 100 100 100 100 100 100 100 100 100 100 42 87 96 91 63 83 83 99 100 100 100 100 97 95 82 63 100 100 100 100 100 100 100 100 100 100 100 5 17 100
100 99 100 100 100 100 100 100 100 100 100 100 100 100 100 80 96 22 54 96 94 100 100 100 100 100 35 98 100 100 100 100 100 100 100 100 100 100 100 100 37 5 60 62
100 100 100 100 100 100 100 100 100 100 100 100 100 100 24 95 99 80 98 100 100 100 100 99 100 99 66 100 100 100 100 100 100 100 100 100 100 100 100 100 100 100 100 100
95 100 100 100 100 100 100 100 100 100 100 100 100 100 61 100 80 98 100 100 100 100 100 100 100 100 100 51 100 100 100 100 100 100 100 100 100 100 100 100 100 100 100 100
95 100 100 100 100 100 100 100 100 100 100 100 100 100 100 98 68 100 98 98 100 100 100 100 100 100 100 100 100 100 100 100 100 100 100 100 100 100 100 100 100 100 100 100
98 100 100 100 100 100 100 100 100 100 100 100 100 100 95 100 100 100 100 100 100 100 100 100 100 100 100 100 100 100 100 100 100 100 100 100 100 100 100 100 100 100 100 100
12 100 100 100 100 100 100 100 100 95 100 91 88 100 100 100 100 100 100 100 100 100 99 100 100 100 100 96 100 100 100 100 100 100 100 100 100 100 100 100 100 100 100 100
5 100 62 100 100 100 100 100 100 97 60 99 100 100 100 100 100 100 100 100 100 100 100 100 100 100 82 99 100 100 100 100 100 100 100 100 100 99 100 100 100 99 98 100
8 82 89 100 100 100 100 100 100 100 100 100 100 100 100 100 100 100 100 100 100 100 100 100 100 97 96 97 100 98 88 100 100 100 100 99 100 100 100 100 94 99 77 94
86 100 100 100 100 100 100 100 100 100 100 100 100 100 100 100 100 100 100 100 100 100 100 100 100 100 100 98 85 100 100 100 100 100 100 100 100 100 100 100 100 91 100 100
5 95 100 100 100 100 100 100 100 100 100 100 100 100 100 100 100 100 100 100 100 98 100 100 100 92 96 100 100 100 100 100 100 100 100 100 100 100 100 100 100 88 63 90
5 32 99 71 100 100 100 100 100 100 100 100 100 100 100 100 100 100 100 100 100 100 100 100 100 100 99 99 100 100 100 100 100 100 100 69 97 100 100 100 100 100 100 100
79 100 34 45 100 100 100 100 100 100 100 100 100 100 100 100 100 100 100 100 100 100 100 100 100 100 100 100 100 100 100 100 94 100 99 100 86 98 45 62 71 96 68 96
8 39 28 70 100 100 100 100 100 100 100 100 100 100 100 100 100 100 100 100 100 100 100 100 100 100 100 100 100 100 95 100 100 100 100 100 100 100 90 70 100 100 100 94
5 29 38 98 100 100 100 100 100 100 98 100 100 100 100 100 100 100 100 100 100 100 100 100 99 88 100 100 100 100 100 100 100 100 100 100 100 100 100 100 100 100 100 100
5 7 32 99 100 100 100 100 100 100 100 100 100 100 100 100 100 100 100 100 100 100 100 100 100 98 100 100 100 100 100 72 100 100 100 96 100 100 100 100 100 100 100 100
96 86 16 89 100 100 100 100 100 100 98 100 100 100 94 100 100 100 100 100 100 100 100 100 100 100 100 100 82 98 100 100 100 100 100 100 100 99 98 100 100 100 100 100
100 42 35 92 100 100 100 100 100 100 81 100 100 100 100 100 100 100 100 100 100 100 100 98 85 100 100 100 100 100 100 100 100 100 100 100 100 97 100 99 100 100 99 100
70 96 100 100 100 100 100 100 100 100 100 100 100 100 100 98 100 100 100 100 100 100 100 100 100 52 58 78 100 98 100 100 82 100 100 100 100 99 100 80 95 75 100 100
100 100 100 100 100 100 100 100 100 100 100 94 93 100 100 100 100 100 94 100 99 100 100 100 100 100 100 100 100 100 100 100 100 100 100 100 100 100 100 98 100 100 100 100
100 100 100 100 100 100 100 100 100 100 100 100 100 100 100 100 100 100 100 95 86 100 100 100 100 100 100 100 100 100 100 100 100 100 100 100 100 100 100 100 97 100 100 100
100 100 100 100 100 100 100 100 100 100 100 100 100 100 100 100 100 100 100 100 99 100 100 100 69 100 100 100 100 100 100 100 100 100 100 100 100 100 99 100 100 100 100 100
100 100 100 100 100 97 100 100 100 100 100 100 100 100 100 100 100 100 98 98 100 100 85 96 96 91 92 96 99 100 100 100 100 100 100 100 100 100 100 95 67 100 100 100
100 100 100 100 100 81 88 100 100 100 100 100 100 100 100 100 100 99 69 100 100 100 99 61 45 56 56 83 86 100 100 100 100 100 100 100 100 100 100 100 100 100 100 100
100 100 100 81 100 100 100 100 100 100 100 100 100 100 100 100 100 100 100 100 100 100 68 10 74 98 100 100 100 85 100 87 100 100 100 100 100 100 100 100 100 100 100 99
96 99 81 96 100 100 100 100 100 100 100 100 100 100 100 100 100 100 100 100 100 33 98 81 26 5 6 64 100 100 100 100 78 100 100 100 100 100 100 100 100 100 100 100

GFSNW_prec_cloud_036.txt.gz
Cloud_Cover
5 100 96 100 100 100 57 100 100 100 100 100 100 100 100 100 100 100 100 89 73 98 100 100 100 100 33 24 5 100 100 100 100 100 81 100 100 100 100 100 100 100 100 12
5 43 72 100 100 100 100 100 100 100 100 100 100 100 71 100 100 100 98 58 73 91 100 100 100 100 94 10 50 100 100 100 93 84 100 100 100 100 100 100 100 93 34 35
18 5 100 100 100 100 100 100 100 100 100 100 100 100 100 85 100 100 73 89 98 97 100 100 100 99 78 100 100 100 100 100 100 78 97 100 100 100 100 100 100 57 66 95
9 58 100 100 98 96 100 100 100 100 100 100 100 100 100 93 22 100 41 52 59 99 100 100 100 95 100 100 100 100 100 100 99 100 100 100 100 100 100 100 100 94 25 99
5 78 100 100 100 100 100 100 100 100 100 100 100 100 100 96 6 93 81 53 87 100 100 100 100 100 100 100 100 100 100 100 100 100 100 100 100 100 100 100 100 100 13 39
5 39 100 100 100 100 100 100 100 100 100 100 100 100 92 85 14 40 5 56 100 100 98 100 100 100 100 100 100 100 100 100 100 100 100 100 100 100 100 100 100 90 64 100
49 6 56 100 100 100 100 100 100 100 100 100 100 100 100 91 100 100 85 100 100 97 100 100 100 100 100 100 100 100 100 100 100 100 100 100 100 100 100 100 100 100 100 100
9 93 32 100 100 100 100 100 100 100 100 100 100 99 65 94 100 100 99 100 100 100 100 100 100 100 100 100 100 94 100 100 100 100 100 100 100 100 100 100 91 100 100 100
19 6 83 100 100 100 100 100 100 100 44 47 92 79 100 99 100 100 100 100 100 100 100 100 100 100 100 70 96 99 98 100 100 100 100 100 100 100 100 100 100 98 100 100
5 5 77 100 100 100 100 100 100 100 99 84 92 100 100 100 100 100 100 100 100 100 100 100 100 100 100 97 98 100 100 100 100 100 100 100 100 100 100 100 100 100 100 100
5 32 47 100 99 100 100 100 100 100 100 99 100 100 100 100 100 100 100 100 100 100 100 100 100 98 100 66 15 100 99 100 100 100 100 100 100 100 100 100 100 100 100 100
97 73 100 100 100 100 100 100 100 100 100 100 100 100 100 100 100 100 100 100 100 100 99 67 100 30 85 12 7 50 89 100 100 100 100 100 100 100 100 100 100 100 86 99
6 81 57 89 100 100 100 100 100 100 100 100 100 100 100 100 100 100 100 100 100 100 81 100 87 96 90 100 100 100 99 100 96 100 100 100 100 100 100 100 100 90 62 26
83 51 57 77 100 100 100 100 100 100 100 100 100 100 100 100 100 100 100 100 100 100 100 100 100 99 100 100 100 100 100 97 100 100 100 100 100 100 100 100 100 100 100 100
76 30 21 58 86 77 86 100 100 100 100 100 100 100 100 100 100 100 100 100 100 100 100 100 100 100 100 100 100 100 100 100 100 100 73 99 100 100 100 100 100 100 100 100
91 20 5 6 94 100 100 100 100 100 100 100 100 100 100 100 100 100 100 100 100 100 100 100 91 100 100 100 100 100 100 100 100 100 100 100 100 100 100 100 100 100 100 100
100 100 100 96 100 100 100 100 100 100 100 100 100 100 100 100 100 100 100 100 100 100 100 100 100 100 100 100 100 100 100 100 100 100 100 100 100 100 100 100 100 100 100 100
100 99 100 100 100 100 100 94 100 100 100 90 100 100 100 100 100 100 100 100 100 100 100 100 100 100 100 99 100 100 100 100 100 100 100 100 100 100 96 100 100 100 100 100
97 99 80 61 100 100 100 100 100 100 100 100 100 100 100 98 100 100 100 100 100 100 100 100 100 100 100 98 99 99 90 100 97 100 100 100 100 100 100 100 100 100 100 100
100 100 100 100 100 100 100 99 100 100 100 100 100 100 100 98 100 100 88 96 100 100 100 100 100 100 100 100 100 100 100 100 100 99 100 100 100 100 100 100 100 100 100 100
99 100 100 100 99 100 100 100 100 100 100 100 100 100 100 100 100 100 100 100 99 100 100 100 100 100 100 100 100 100 100 100 92 100 100 100 100 100 100 100 100 100 100 100
97 100 100 100 100 100 100 100 100 100 100 100 100 100 100 100 100 100 100 98 97 100 96 100 100 100 100 100 100 100 100 100 99 100 100 100 100 100 100 100 100 100 100 100
67 100 100 100 100 100 100 100 100 100 100 100 100 100 100 100 92 93 100 95 98 72 100 98 100 100 100 100 100 100 100 100 100 100 100 100 100 100 100 100 100 100 100 100
100 100 100 100 100 100 100 100 100 100 100 100 100 100 100 100 98 100 100 100 100 89 100 88 87 100 100 100 100 100 100 100 100 100 100 100 100 100 100 100 100 100 100 100
100 100 100 99 100 100 90 100 100 100 100 100 100 100 100 100 100 100 100 96 100 92 60 74 95 98 100 100 100 100 99 100 100 100 100 100 100 100 100 100 100 100 100 100
100 100 100 100 96 100 100 100 100 100 100 100 100 100 100 100 100 100 100 100 100 99 88 18 69 63 81 99 100 99 100 100 100 100 100 100 100 100 100 100 100 100 98 100
100 100 91 99 100 100 100 100 100 100 100 100 100 96 77 66 85 100 100 100 100 79 84 91 67 48 58 83 100 100 100 100 100 100 100 100 100 98 100 100 100 96 96 93

GFSNW_prec_cloud_039.txt.gz
Cloud_Cover
18 46 5 32 100 100 100 100 100 97 100 100 100 100 100 100 100 100 100 100 100 100 100 100 100 100 100 100 100 75 91 99 76 17 100 100 86 87 100 100 100 100 100 20
32 8 5 99 100 100 100 100 100 100 100 100 100 100 100 100 100 100 100 100 100 100 100 100 100 100 100 100 56 100 48 92 78 100 96 98 92 100 100 100 100 100 100 100
5 3 25 100 98 94 100 100 100 100 100 100 100 100 100 100 100 100 100 100 100 100 100 100 100 100 100 94 72 91 88 89 100 99 99 100 100 100 100 100 100 99 79 52
5 5 19 100 100 100 100 100 100 100 100 100 100 96 100 100 100 100 100 100 100 100 100 100 100 100 100 37 84 66 100 100 100 100 87 100 100 100 100 100 76 100 97 75
5 5 7 30 100 100 100 100 100 100 100 100 100 100 100 99 90 69 93 87 94 100 100 100 100 100 99 43 30 69 100 100 93 100 100 100 100 100 100 100 100 100 50 45
6 3 6 33 100 100 100 100 100 100 100 100 100 100 100 98 100 68 69 100 100 100 100 100 100 100 89 54 76 85 100 100 100 88 100 100 99 100 100 100 100 100 100 94
18 5 6 100 100 100 100 100 100 100 100 100 100 100 78 100 99 85 78 100 100 100 100 100 100 100 100 93 82 100 100 100 100 100 100 91 100 100 100 100 100 100 100 100
6 5 5 100 100 100 100 100 100 100 100 100 100 100 100 69 79 79 97 100 100 100 100 100 100 100 100 78 100 92 86 100 100 100 100 100 100 100 100 100 100 100 100 100
5 5 66 100 100 95 100 100 100 100 100 97 100 99 62 72 91 62 99 92 100 100 100 100 100 93 100 90 78 100 100 100 100 100 100 100 100 100 100 100 100 100 100 100
5 5 4 15 54 100 100 100 100 100 100 83 98 96 71 88 93 100 100 100 100 100 100 100 98 92 100 61 100 100 100 100 100 100 100 100 100 100 100 100 100 100 100 100
5 5 6 47 34 98 100 100 100 100 100 98 80 99 76 15 93 100 100 100 100 100 100 100 99 62 8 46 50 95 100 100 100 100 100 100 100 100 100 100 100 100 100 100
5 5 9 100 80 100 100 100 100 100 75 30 19 82 100 100 100 100 100 100 100 100 100 88 99 61 34 22 59 5 35 90 100 100 100 100 100 100 100 100 100 100 100 100
5 5 5 20 100 100 100 100 100 100 100 100 100 100 100 100 100 100 100 100 100 100 100 100 91 98 100 99 82 100 15 86 99 32 81 100 100 100 100 100 100 100 100 100
5 5 31 23 97 40 100 100 100 100 100 100 100 100 100 100 100 100 100 100 100 100 100 99 100 96 99 100 95 100 99 98 70 80 47 83 100 96 80 100 100 100 100 100
5 5 5 5 7 27 69 92 100 100 100 100 100 100 100 100 100 100 100 100 100 100 100 100 100 64 100 100 100 100 100 51 80 86 94 100 100 100 100 100 100 100 100 100
88 100 71 49 97 85 99 100 100 100 100 100 100 100 100 100 100 100 100 100 100 100 100 100 100 97 100 100 100 100 100 100 100 100 100 100 100 100 100 100 100 100 100 100
100 100 99 100 100 87 100 100 100 100 100 100 100 100 100 100 100 100 100 100 100 100 100 100 100 100 100 100 100 100 100 100 100 100 100 98 100 95 100 94 99 100 100 100
100 100 83 100 100 90 100 100 100 100 100 100 100 100 100 100 100 100 100 100 100 100 100 100 100 100 100 100 100 100 100 100 97 100 64 97 100 100 100 100 100 100 100 100
100 99 66 55 61 98 100 100 100 100 100 100 100 100 100 100 100 100 100 100 100 100 100 100 100 100 93 100 90 100 100 100 98 80 100 100 84 100 100 100 100 100 100 100
100 96 100 100 100 100 100 100 100 100 100 100 100 100 87 100 100 100 100 100 100 100 100 100 100 100 100 100 100 100 100 100 100 100 100 100 100 100 100 100 100 100 100 100
43 99 100 100 100 100 100 100 100 100 100 100 100 100 100 96 100 100 100 100 100 100 100 100 100 100 100 100 100 100 100 100 100 100 100 100 100 100 100 100 100 100 100 100
90 94 100 100 100 100 100 100 100 100 100 100 100 100 100 87 94 88 100 100 100 100 100 100 100 100 100 100 100 100 100 100 97 98 100 100 100 100 100 100 100 100 100 100
83 99 100 100 100 100 100 100 100 100 100 100 100 100 100 98 99 96 100 100 100 100 100 100 100 100 100 100 100 100 100 99 100 98 100 100 100 100 100 100 100 100 100 100
100 100 82 100 100 100 100 100 100 100 100 100 100 100 100 100 98 98 100 100 100 100 100 100 100 100 100 100 100 90 68 80 97 100 100 100 100 100 100 100 100 100 100 100
100 99 89 90 98 100 100 100 100 100 100 100 100 100 100 100 100 100 98 100 100 100 100 97 100 100 100 100 100 100 100 100 100 100 100 100 100 100 100 100 100 100 100 100
100 100 89 68 84 100 100 98 100 99 100 100 100 100 100 99 99 100 100 100 100 100 100 100 100 100 100 100 100 100 100 100 100 100 100 100 100 100 100 100 100 100 100 100
100 100 100 87 71 90 91 100 100 100 100 100 100 100 96 65 100 100 100 100 98 92 79 95 100 100 100 100 100 100 100 100 100 100 100 100 100 100 100 100 100 100 100 99

GFSNW_prec_cloud_042.txt.gz
Cloud_Cover
12 5 5 6 65 96 100 100 100 26 92 100 100 100 100 100 100 100 100 100 74 68 96 73 22 10 8 22 43 80 88 100 86 42 99 22 8 64 95 100 94 100 100 41
5 5 5 5 13 92 100 100 100 100 100 100 100 100 100 100 100 100 100 100 100 100 100 100 96 53 75 99 100 100 81 81 100 16 43 30 77 100 100 100 100 100 100 63
35 5 5 2 18 100 100 100 100 100 100 100 100 100 100 100 100 100 96 100 100 100 100 100 96 80 100 100 87 91 95 100 71 9 74 97 90 100 100 100 100 99 80 100
4 5 5 2 5 79 100 100 100 100 100 100 100 99 100 94 100 100 100 100 100 100 100 100 94 100 100 100 100 100 97 99 88 76 96 98 97 92 100 100 100 100 100 100
5 5 5 4 60 97 100 100 100 100 100 100 97 76 100 95 99 94 97 100 100 100 100 100 100 100 100 100 100 100 99 100 85 100 84 46 100 100 100 100 100 100 100 100
5 5 5 5 21 90 100 100 100 100 100 100 100 94 100 71 69 71 100 100 100 100 100 100 100 100 100 100 100 100 100 100 100 84 65 69 96 100 100 100 100 100 100 88
5 4 5 5 80 100 100 100 100 100 100 100 100 100 85 60 52 82 100 100 100 100 100 100 100 100 100 100 100 100 100 100 97 100 99 90 98 100 100 100 100 100 100 100
5 5 49 6 30 91 100 100 100 100 100 100 98 44 10 23 29 5 100 100 100 100 100 100 100 100 99 90 100 100 100 100 100 100 100 95 100 100 100 100 100 100 100 100
5 5 4 72 100 99 100 91 100 100 100 99 100 82 100 100 29 35 93 100 100 100 100 100 100 96 16 42 96 100 100 100 100 100 100 92 100 100 100 100 100 100 99 100
5 3 9 27 27 56 100 100 100 100 100 100 100 83 50 18 7 27 66 100 100 100 100 100 100 98 5 78 86 99 100 100 100 100 100 100 96 100 100 100 100 100 100 100
5 5 5 38 92 100 90 100 100 100 100 100 100 82 39 100 22 14 66 81 100 100 100 100 100 79 10 97 74 90 100 100 100 100 100 97 100 100 85 100 100 88 100 100
5 5 5 5 7 16 96 100 100 100 100 90 74 100 100 100 100 94 100 100 100 100 100 100 100 38 95 64 79 89 100 100 87 58 100 100 100 100 100 95 100 100 100 100
5 5 6 5 55 91 89 100 100 99 98 98 88 32 41 84 100 100 100 74 100 100 100 100 84 56 99 37 80 63 100 64 23 28 100 99 71 97 100 98 100 100 100 100
90 5 5 5 5 88 98 100 100 100 100 92 88 100 100 100 100 100 100 100 100 100 100 100 100 46 97 43 34 100 19 62 72 100 88 81 26 85 96 100 100 100 100 100
18 100 94 76 15 71 13 64 100 100 100 100 100 100 100 100 100 100 100 100 100 100 100 100 100 98 91 82 90 80 99 100 100 14 71 6 100 98 100 99 100 100 100 100
5 100 42 92 12 100 85 100 100 100 100 100 100 100 100 100 100 100 100 100 100 100 100 100 70 13 100 100 90 100 100 96 99 99 8 83 100 100 100 90 100 100 100 89
64 100 100 100 100 100 96 77 100 100 100 100 100 100 100 100 100 100 100 100 100 100 100 100 100 100 96 68 10 100 100 99 100 100 92 100 100 84 94 100 100 100 98 100
97 100 100 100 100 74 71 100 100 100 100 100 100 100 100 100 100 100 100 100 100 100 100 100 100 100 100 100 93 100 100 100 100 100 86 75 88 100 97 100 100 100 100 100
100 99 99 86 48 97 100 100 100 100 100 100 100 100 100 100 100 100 100 100 100 100 100 100 100 100 96 96 100 100 100 100 100 100 100 99 100 100 100 100 100 100 100 100
32 89 100 100 100 100 100 100 100 100 100 100 100 100 100 100 100 100 100 100 100 100 100 100 100 90 34 88 98 100 85 58 100 100 100 100 100 100 100 100 100 100 100 100
20 63 99 100 100 100 100 100 100 100 100 91 92 98 100 100 100 100 100 100 100 100 100 100 99 100 90 100 100 100 100 100 100 100 100 100 86 100 100 100 100 100 100 100
96 99 100 100 100 100 100 100 100 100 100 99 97 84 100 100 99 100 100 100 100 100 100 100 100 100 100 100 100 100 100 100 99 100 100 100 95 98 100 100 100 100 100 100
90 99 100 100 100 100 100 100 100 100 100 100 100 99 98 98 95 100 100 100 100 100 100 100 100 100 100 100 100 100 100 100 100 100 100 100 100 100 100 100 100 100 99 100
100 99 74 95 100 100 100 100 100 87 100 100 100 100 100 83 100 99 100 100 100 100 100 100 100 100 100 100 100 100 100 100 100 100 100 100 100 100 100 100 100 100 100 100
99 95 58 100 85 100 100 100 100 97 100 100 100 100 100 100 98 97 100 98 100 100 97 100 98 96 98 100 100 96 96 100 100 100 100 100 100 100 100 100 100 100 100 100
100 100 91 70 94 84 77 100 92 100 100 100 100 100 98 87 100 100 100 100 100 94 74 89 91 91 100 100 94 97 96 100 100 100 100 100 100 100 100 100 100 93 94 100
100 100 99 96 72 48 42 86 98 100 100 100 100 100 96 73 99 100 100 100 66 79 45 100 100 100 100 100 84 93 91 80 96 96 100 100 100 100 100 100 98 90 100 100

GFSNW_prec_cloud_045.txt.gz
Cloud_Cover
95 74 5 5 5 99 100 100 99 97 91 100 100 100 100 100 100 100 99 100 100 98 100 100 100 100 76 59 96 100 100 99 91 60 5 66 89 60 54 100 70 100 92 6
39 22 5 5 20 100 100 100 100 89 100 100 100 100 100 100 100 100 70 100 98 60 66 98 100 100 96 75 78 100 95 77 84 81 73 100 68 26 97 99 100 98 100 20
24 4 5 5 54 100 100 100 100 100 100 100 100 100 100 100 100 100 77 100 92 55 91 72 89 100 88 54 59 46 60 100 50 25 96 91 90 44 80 100 100 70 85 49
14 5 5 5 98 100 100 100 100 100 99 100 100 100 100 100 100 100 91 100 69 62 79 63 68 95 76 90 97 82 99 97 100 100 92 62 70 96 100 100 100 100 99 100
5 5 5 5 28 100 100 100 100 100 100 100 100 100 100 100 100 100 29 97 88 6 40 78 78 82 100 100 100 100 100 100 100 100 65 62 83 91 98 100 100 100 100 100
3 5 5 4 13 100 100 100 100 100 100 100 100 94 100 100 71 95 67 100 100 100 100 99 94 82 58 100 100 100 100 100 100 57 13 5 37 27 88 100 100 100 100 97
2 5 1 5 5 61 100 100 100 100 100 100 92 36 49 48 100 100 100 100 100 100 100 100 100 100 100 100 100 100 100 100 100 79 69 85 100 99 100 100 100 100 80 70
7 5 1 10 5 62 100 100 100 100 100 100 93 80 100 99 100 100 100 100 100 100 100 100 100 100 100 100 100 95 100 100 100 79 92 100 100 100 84 100 100 100 100 97
8 5 4 5 80 98 100 100 100 100 100 91 99 100 97 71 93 39 100 100 100 100 100 100 100 100 100 100 100 100 100 100 100 100 86 80 100 80 100 94 100 100 100 100
17 5 5 4 5 86 99 100 100 100 100 100 68 99 58 100 94 100 100 100 100 100 100 100 100 100 100 97 100 100 100 100 100 100 99 82 98 87 79 100 91 100 100 100
5 5 5 5 5 5 30 100 100 100 100 98 79 92 100 100 100 99 64 100 100 100 100 100 100 100 98 100 100 80 100 100 100 100 100 51 86 100 100 100 100 92 100 100
11 58 47 5 5 16 100 100 100 100 100 100 100 100 98 68 21 78 100 82 100 100 100 100 100 91 100 100 100 100 100 100 100 100 18 7 67 100 100 100 100 96 88 100
12 75 100 100 14 6 65 89 100 94 100 98 44 26 52 100 86 100 48 54 64 100 100 100 100 96 100 100 64 100 100 100 100 100 73 49 24 71 96 89 100 93 93 100
5 17 78 100 89 6 65 70 100 100 100 95 100 100 100 89 92 96 96 76 92 96 100 100 100 99 100 97 84 100 100 100 100 97 8 7 32 40 100 99 94 99 97 91
5 5 90 100 48 7 6 85 100 100 100 100 58 19 95 100 100 100 100 99 100 100 100 100 100 98 100 99 76 100 100 100 100 95 68 40 11 84 79 96 92 100 99 100
5 12 98 100 100 87 100 100 100 100 100 100 100 100 100 100 100 100 100 100 100 100 100 100 95 70 88 96 100 100 100 100 77 100 100 14 38 100 90 59 98 95 100 78
5 99 100 100 100 82 100 96 100 100 100 100 100 100 100 100 100 100 100 100 100 100 100 100 85 100 100 77 86 74 100 87 100 99 68 100 99 100 27 82 100 100 100 100
62 100 100 100 100 66 89 100 100 100 100 100 100 100 100 100 100 100 100 100 100 100 100 100 100 100 62 100 37 100 100 100 100 98 92 100 100 96 72 97 100 100 100 100
47 100 98 81 93 100 95 100 100 100 100 100 100 100 100 100 100 100 100 100 100 100 100 100 100 100 100 74 100 100 84 100 100 98 66 100 100 100 100 100 100 100 100 100
34 99 98 99 100 100 100 100 100 100 100 100 100 100 100 100 100 100 100 100 100 100 100 100 100 100 92 99 80 47 100 100 96 81 92 100 100 100 100 100 100 100 100 100
53 95 92 95 100 100 100 100 100 100 100 100 100 100 100 100 100 100 100 100 100 100 100 97 94 59 36 29 51 71 68 100 91 52 100 100 100 100 100 100 100 100 100 100
83 94 100 100 100 100 100 100 100 100 100 100 100 100 100 100 100 100 100 100 100 100 100 100 100 83 75 83 98 66 84 92 99 96 100 100 100 100 96 100 100 100 100 100
96 99 100 100 100 100 100 100 100 100 100 100 100 100 100 100 100 100 100 100 100 100 100 100 100 100 100 100 99 97 100 100 100 100 100 100 100 100 100 100 100 100 100 100
86 95 100 100 100 100 100 100 100 86 100 100 100 100 100 100 100 100 100 100 100 100 100 100 100 99 98 100 100 100 100 100 100 100 100 100 100 100 100 100 100 100 100 100
95 100 100 100 98 99 100 100 100 100 100 100 100 100 86 100 100 100 100 100 100 100 100 100 100 100 100 70 82 99 100 100 100 100 100 100 100 100 100 100 100 100 100 100
100 100 98 100 97 100 88 100 100 98 100 100 100 100 100 100 94 100 100 100 100 100 99 91 100 100 100 100 100 100 88 93 79 80 99 100 100 94 100 96 100 70 83 100
99 85 99 95 94 96 100 100 90 68 97 100 100 100 100 94 100 100 100 100 90 63 95 96 99 100 100 100 100 100 100 100 100 100 100 100 100 100 100 100 100 98 94 92

GFSNW_prec_cloud_048.txt.gz
Cloud_Cover
5 1 5 16 5 98 96 100 100 85 5 88 100 100 100 100 100 100 88 87 61 39 99 98 100 71 98 60 93 100 100 100 100 27 46 11 80 27 25 36 16 34 40 16
5 5 4 5 5 100 100 100 100 86 98 100 100 100 100 100 100 100 100 100 93 94 100 89 98 44 60 92 78 97 99 100 95 100 62 93 12 50 57 75 79 51 98 13
5 0 2 3 15 100 100 100 77 100 100 100 100 100 100 100 100 100 100 84 100 80 100 95 99 98 95 93 97 100 96 100 12 58 86 85 59 66 61 96 99 87 81 9
4 0 3 2 40 100 96 100 100 100 100 100 100 100 100 100 100 100 90 100 100 100 100 100 100 100 100 87 74 60 73 29 8 71 100 100 28 10 28 79 78 100 100 100
0 4 0 2 3 60 100 100 100 100 100 100 100 100 100 100 100 99 72 94 100 100 100 100 100 100 100 100 96 83 69 75 49 93 98 9 7 61 48 100 100 100 100 100
3 5 0 5 5 99 88 93 100 100 100 96 100 100 100 98 99 92 96 100 100 100 100 100 100 100 100 97 69 100 72 87 100 100 14 56 55 9 18 33 99 100 100 97
21 5 4 3 10 97 100 100 100 100 88 100 100 21 100 100 89 89 100 100 100 100 100 100 91 70 100 96 100 100 100 99 100 89 82 93 80 99 38 20 92 100 100 100
7 7 5 5 5 82 100 100 100 100 100 93 95 10 88 53 96 100 100 100 100 100 100 100 100 96 70 100 100 100 100 100 100 77 100 86 100 93 20 80 73 100 100 100
5 5 5 5 5 100 100 100 100 100 100 22 19 97 55 89 98 100 100 100 100 100 100 100 100 100 89 100 100 100 100 100 100 100 91 36 100 63 42 100 100 100 100 100
5 5 5 5 5 67 83 100 100 100 100 88 99 99 34 99 100 100 100 100 100 100 100 100 100 100 82 99 100 100 100 100 100 100 100 73 84 25 97 100 93 100 100 100
5 5 22 5 12 10 100 100 100 100 100 79 16 100 70 48 100 100 100 100 100 100 100 100 100 93 92 100 100 100 100 92 100 100 100 55 25 10 86 100 98 100 98 98
5 5 5 100 100 90 64 100 100 100 100 78 39 54 96 97 93 98 100 99 100 100 100 100 100 96 100 100 100 100 87 100 100 84 98 94 6 6 76 100 55 98 100 79
12 5 5 49 92 57 65 100 100 100 100 92 77 96 100 100 97 66 77 75 100 88 100 98 100 100 100 100 100 100 100 100 100 100 100 49 56 77 84 64 19 80 100 100
5 5 5 18 73 100 62 92 100 100 100 99 98 67 100 72 70 36 84 61 30 82 100 99 100 100 100 100 100 100 100 100 100 100 87 55 37 82 47 66 89 99 100 94
5 5 5 5 100 97 30 98 100 100 100 100 44 58 5 17 31 36 44 11 51 61 100 100 100 100 100 100 100 100 97 100 100 100 92 86 52 11 59 56 88 100 99 74
7 5 48 43 100 99 99 100 100 100 100 100 90 44 5 9 99 100 97 99 100 100 100 100 100 100 100 100 100 25 100 100 100 100 100 70 91 44 85 80 72 99 98 100
5 26 100 100 100 98 100 100 100 100 100 100 100 100 100 92 88 100 100 100 100 100 100 100 100 98 100 100 96 43 100 100 100 100 98 100 89 98 95 64 77 83 100 100
5 74 98 100 100 67 100 100 100 100 100 100 100 100 100 100 100 100 100 100 100 100 100 100 97 100 100 100 10 66 100 100 99 100 100 100 78 67 100 69 92 100 100 96
5 100 99 92 94 94 100 100 100 100 100 100 100 100 100 100 100 100 100 100 100 100 100 100 100 100 81 85 97 98 100 100 99 100 100 100 94 100 100 100 85 100 100 100
5 93 95 100 97 100 100 100 100 100 100 100 100 100 100 100 100 100 100 100 100 100 100 100 100 100 97 82 32 100 100 100 100 100 100 87 86 100 100 100 100 100 100 100
49 100 89 99 100 100 100 100 100 100 100 100 100 100 100 100 100 100 100 100 100 100 100 100 100 100 100 100 98 100 83 24 62 100 100 98 100 100 100 100 100 100 100 100
76 95 100 98 100 100 100 100 100 100 100 100 100 100 100 100 100 100 100 100 100 100 100 100 100 100 100 100 96 78 91 78 87 95 99 100 100 100 100 100 100 100 100 100
93 100 100 100 100 100 100 100 100 100 100 100 100 100 100 100 100 100 100 100 100 100 100 100 100 100 100 100 100 84 30 64 81 100 100 100 100 100 100 100 100 100 100 100
100 96 79 95 100 100 100 100 100 100 100 100 100 100 100 100 100 100 100 100 100 100 100 100 100 100 100 100 100 100 100 100 100 100 100 100 100 100 100 100 100 100 100 100
90 98 99 100 93 100 100 100 100 100 100 100 100 95 100 100 100 100 100 100 100 100 100 100 100 100 100 100 100 100 100 100 100 100 100 100 100 100 100 100 100 100 100 100
100 100 96 100 100 100 100 100 100 100 100 100 100 100 100 100 100 100 100 100 100 100 100 100 100 100 100 100 100 100 100 100 100 100 100 100 100 100 100 100 100 100 100 100
100 94 100 98 83 99 100 100 100 100 100 100 100 100 100 84 100 100 100 100 99 99 100 100 100 100 100 100 100 100 100 100 100 100 100 100 100 100 100 100 100 100 100 100

GFSNW_prec_cloud_054.txt.gz
Cloud_Cover
63 31 62 5 100 27 4 5 63 73 100 100 100 100 100 100 100 100 90 11 95 100 100 100 100 100 100 100 100 100 100 100 100 100 100 100 100 24 9 5 62 49 66 100
87 91 9 0 19 58 5 99 85 95 100 100 100 100 100 100 100 62 70 48 56 55 45 97 70 80 100 100 100 100 100 100 100 100 100 100 38 9 81 46 99 36 91 99
30 79 14 0 5 4 5 11 46 98 83 96 100 100 100 100 71 100 91 94 100 100 64 95 100 99 100 100 100 100 100 100 100 100 100 100 68 87 100 100 84 90 44 99
52 100 7 0 5 5 4 86 98 100 98 96 100 100 100 100 92 100 100 98 76 100 100 100 100 100 100 100 100 100 100 100 100 100 100 98 99 98 100 50 93 90 5 47
89 84 5 5 2 5 36 94 100 100 100 100 100 100 100 100 80 100 100 100 100 100 100 100 100 100 100 100 100 100 100 100 100 100 100 54 59 100 11 5 99 70 54 15
97 62 5 5 4 5 91 100 100 93 28 85 100 72 53 48 100 100 100 100 100 100 100 100 100 100 100 100 100 81 85 73 92 100 100 96 14 52 98 27 31 92 99 92
88 26 5 7 73 8 91 100 100 92 85 27 52 5 12 100 100 100 100 100 100 100 100 100 100 100 100 100 100 100 100 81 84 100 100 76 100 67 34 39 43 86 100 100
78 49 100 28 52 26 99 100 100 100 90 38 34 57 93 100 100 100 100 100 100 100 100 100 100 100 100 100 100 100 100 95 67 99 100 99 11 5 59 45 75 100 100 100
98 42 100 94 74 5 92 100 100 100 100 6 91 78 39 100 100 100 100 100 100 100 100 100 100 100 100 100 100 100 100 100 88 100 97 45 21 100 67 53 42 40 100 95
100 28 80 11 100 23 29 100 100 100 100 95 100 100 100 100 99 100 100 100 100 90 100 100 100 100 100 100 100 95 100 100 100 96 100 35 100 100 39 31 43 86 97 78
100 92 7 18 99 73 31 96 100 100 100 77 91 100 86 27 56 29 49 40 30 10 89 100 100 100 100 100 99 93 92 92 98 97 98 98 100 98 38 72 97 77 74 100
94 100 8 6 7 5 35 67 100 100 100 83 20 43 27 54 71 46 47 61 76 92 99 98 100 100 100 69 76 89 82 70 74 35 34 14 98 33 99 85 60 72 74 50
73 100 26 27 6 5 24 96 100 100 100 84 85 83 5 8 5 5 25 34 96 90 99 100 100 100 100 95 76 18 45 82 38 45 92 91 50 64 98 68 38 74 83 77
100 100 32 24 34 5 78 87 100 100 100 100 54 29 66 94 18 5 5 5 38 34 92 95 100 82 98 61 56 5 48 97 100 20 100 74 88 72 98 13 5 88 97 90
88 100 45 100 12 70 100 80 100 100 100 100 100 100 95 71 7 5 5 5 5 13 89 100 100 100 100 96 100 14 16 37 8 57 61 92 100 98 15 5 5 64 96 89
99 58 39 49 44 100 51 96 100 100 100 100 100 100 56 23 6 43 5 5 12 58 99 100 100 76 100 100 98 93 98 44 68 60 96 53 79 48 55 9 7 43 63 76
100 84 100 73 100 99 72 100 100 100 100 100 100 100 99 99 91 98 79 72 91 98 100 100 100 100 100 100 58 99 99 100 95 97 100 95 12 15 16 75 64 43 96 100
100 44 97 100 100 56 59 100 100 100 100 100 100 100 65 57 92 99 100 100 100 100 100 100 100 100 100 100 87 44 73 76 60 80 100 100 100 8 6 59 55 98 99 100
100 54 100 46 50 14 100 100 100 100 100 100 100 100 100 100 100 100 100 100 100 100 100 100 100 100 100 100 100 97 100 100 100 97 100 100 100 10 82 100 99 86 100 96
94 50 92 89 69 100 100 100 100 100 100 100 100 100 100 100 100 100 100 100 100 100 100 100 100 100 100 100 100 100 85 85 36 76 100 100 100 100 88 100 99 100 82 86
94 14 88 95 100 100 100 100 100 100 100 100 100 100 100 100 100 100 100 100 100 100 100 100 100 100 100 96 86 55 66 85 76 78 100 71 100 97 98 100 100 100 100 98
100 57 90 100 98 100 100 100 100 100 100 100 100 100 100 100 100 100 100 100 100 100 100 100 100 100 95 82 98 100 100 100 100 95 100 100 100 100 100 100 100 100 100 100
100 100 100 100 100 100 100 100 100 100 100 100 100 100 100 100 100 100 100 100 100 100 100 100 100 100 95 94 100 100 100 100 100 85 100 100 100 100 100 100 100 100 100 100
100 85 100 100 99 92 100 90 100 100 99 100 100 100 100 100 100 100 100 100 100 100 100 100 100 100 97 99 100 100 100 100 100 100 100 100 100 100 79 100 100 100 100 100
100 100 100 100 90 100 100 100 100 100 100 100 100 100 90 100 100 100 100 100 100 100 100 100 100 100 100 100 100 100 100 100 100 100 100 100 100 100 98 99 100 92 96 96
100 97 100 100 94 99 100 100 100 100 100 100 100 100 99 96 100 100 100 100 100 100 100 98 100 100 100 100 100 100 100 100 100 100 100 100 100 100 100 100 100 100 100 99
100 100 100 100 99 100 100 100 100 100 100 100 100 100 92 100 100 100 100 99 90 100 100 100 100 98 100 100 100 100 100 100 100 100 100 100 100 100 100 100 100 100 100 100

GFSNW_prec_cloud_057.txt.gz
Cloud_Cover
100 12 100 5 88 26 2 1 5 20 26 71 85 100 100 100 100 99 98 99 99 100 100 100 100 100 98 90 100 100 100 100 100 100 100 100 100 100 100 100 100 100 100 100
100 76 100 5 83 79 9 5 54 100 100 80 96 100 100 100 91 100 88 100 100 99 80 97 100 100 100 100 100 100 100 100 100 100 100 100 100 100 100 100 100 100 100 88
100 100 100 5 12 8 5 14 72 26 5 96 100 100 100 90 62 62 67 98 100 98 100 100 100 100 100 100 100 100 100 100 100 100 100 100 100 96 45 99 66 62 39 5
50 93 100 20 5 5 4 36 84 100 87 97 100 100 92 39 54 100 100 100 100 100 100 100 100 100 100 100 100 100 100 100 100 100 100 100 100 100 100 80 63 35 16 5
100 100 20 5 4 5 47 91 91 99 100 100 100 82 98 100 100 100 99 99 99 100 100 100 100 99 100 100 100 100 100 100 100 100 100 100 100 100 100 100 100 5 52 80
100 43 100 5 10 7 99 100 100 99 13 8 14 82 8 7 98 100 100 100 100 100 100 100 100 100 100 100 100 100 100 100 100 100 100 100 100 100 100 96 100 68 74 99
100 54 78 93 5 36 96 100 100 75 16 7 33 48 83 88 100 100 100 100 100 100 100 100 100 100 100 100 100 100 100 100 100 100 100 100 100 99 82 53 38 64 99 100
100 100 51 78 95 7 91 100 100 98 96 61 61 41 21 87 100 100 100 100 100 100 100 100 100 100 100 100 100 100 100 100 100 100 100 77 6 68 100 61 92 98 88 100
100 100 93 25 100 20 51 100 100 100 90 26 73 36 5 100 100 100 100 100 100 100 100 100 100 100 100 100 100 100 100 100 85 100 98 38 99 98 99 100 82 98 70 96
100 100 100 100 82 93 7 77 100 100 100 61 100 67 24 95 94 68 100 74 98 98 100 100 100 100 91 96 99 98 100 100 100 100 99 94 38 92 100 99 94 100 82 75
100 100 100 100 87 48 5 8 87 100 100 55 90 97 92 32 28 61 37 77 88 94 94 92 99 100 95 92 37 100 99 90 96 100 96 68 15 100 100 92 100 100 89 78
100 100 100 100 100 67 53 6 76 100 100 20 60 100 100 34 33 99 26 41 72 94 100 59 97 100 92 84 91 63 65 36 84 21 45 32 100 100 99 93 100 89 64 86
100 100 100 100 100 100 10 100 91 100 100 99 89 88 100 99 54 41 5 31 100 100 98 100 97 42 52 53 55 59 73 69 57 21 98 98 100 100 100 88 100 5 58 98
100 92 99 100 100 100 22 16 37 98 100 100 88 78 98 96 58 25 5 5 13 16 99 100 100 100 29 25 46 9 45 83 89 97 100 73 100 98 100 100 51 28 45 79
100 100 100 100 100 100 57 22 88 100 100 100 100 82 67 85 67 10 9 5 5 22 85 100 100 100 100 98 47 91 36 52 24 82 79 86 76 94 100 93 49 42 34 78
100 100 100 74 100 100 100 48 19 94 100 100 100 100 100 53 81 98 24 32 61 99 100 86 100 100 99 90 93 80 91 76 93 82 96 70 78 98 72 58 7 10 74 86
100 58 27 100 100 99 79 65 100 100 100 100 100 100 100 100 100 80 100 99 98 100 99 100 100 100 100 100 100 99 100 89 99 100 100 100 98 78 100 61 26 6 79 77
100 55 75 100 100 96 73 100 100 100 100 100 100 100 100 100 100 100 100 100 100 100 100 100 100 100 100 100 80 100 79 92 61 94 83 89 99 48 78 51 12 80 26 24
98 78 100 79 83 28 93 100 100 100 100 100 100 100 97 99 100 100 100 100 100 100 100 100 100 100 100 98 100 100 99 99 100 98 98 100 100 100 98 99 14 68 100 90
100 69 100 86 17 100 100 100 100 100 100 100 100 100 100 100 100 100 100 100 100 100 100 100 100 100 100 100 100 100 100 99 100 100 100 100 100 100 100 100 24 100 100 99
100 97 100 31 81 100 100 100 100 100 100 100 100 100 100 100 100 100 100 100 100 100 100 100 100 100 100 100 97 100 61 59 62 49 72 100 100 100 100 100 100 100 75 97
96 97 100 84 100 100 100 100 99 100 100 100 100 100 100 100 100 100 100 100 100 100 100 100 100 99 84 95 89 84 84 99 100 100 100 99 100 100 100 100 100 100 92 100
100 100 100 100 100 100 100 100 100 100 100 100 100 100 100 100 100 100 100 100 100 100 100 100 100 100 100 98 38 65 100 100 100 100 100 99 100 100 100 50 98 100 100 100
100 100 100 97 94 100 100 99 100 100 100 100 100 100 99 100 100 100 100 100 100 92 98 100 100 100 100 97 97 100 100 100 100 100 100 100 100 100 100 100 100 100 100 100
100 100 100 100 89 98 100 100 100 100 100 100 100 100 99 100 100 100 100 100 100 100 98 100 100 100 100 100 100 100 100 100 100 100 100 100 100 100 100 100 100 100 100 100
100 100 100 100 100 92 100 100 100 100 100 100 100 100 100 99 96 100 100 100 100 98 100 100 100 100 100 100 100 100 100 100 100 100 100 100 100 100 100 100 100 97 100 90
100 100 100 100 100 100 98 100 100 100 100 100 100 100 97 100 100 100 100 100 98 99 99 92 100 100 96 100 100 100 100 100 100 100 100 100 100 100 100 100 100 100 100 100

GFSNW_prec_cloud_060.txt.gz
Cloud_Cover
98 100 72 5 100 100 6 0 7 63 5 94 100 100 100 100 100 96 19 46 95 88 100 100 100 100 100 100 100 100 100 100 100 100 100 100 100 100 100 100 100 100 100 89
100 100 14 5 100 100 86 18 14 71 5 100 100 100 100 92 16 5 10 54 74 12 26 52 98 100 100 100 100 100 100 100 100 100 100 100 100 100 100 100 100 100 100 100
100 97 98 5 21 20 5 23 40 93 100 96 100 100 33 5 5 5 6 86 26 27 68 100 100 100 100 100 100 100 100 100 100 100 100 100 100 100 100 100 100 100 88 82
100 96 99 5 4 5 4 28 72 100 86 96 76 63 42 5 18 5 5 18 94 100 100 100 100 52 83 98 100 100 100 100 100 100 100 100 100 100 100 100 100 100 100 64
100 60 100 32 5 5 69 88 98 100 96 96 8 36 55 5 52 96 70 88 58 98 100 100 100 38 44 82 100 100 100 100 100 100 100 100 100 100 100 100 100 96 67 52
100 100 6 61 5 16 98 97 98 100 18 89 13 66 53 90 43 77 100 100 100 96 100 100 100 100 100 100 100 100 100 100 100 100 100 100 100 100 100 85 71 5 5 81
100 100 93 56 90 30 96 100 100 94 26 58 94 15 5 98 100 100 100 100 100 100 100 100 100 100 100 100 100 100 100 100 100 100 100 100 100 100 100 100 41 41 86 100
100 100 100 97 100 28 26 100 100 100 98 69 100 97 88 24 75 100 100 59 72 100 100 100 100 99 89 100 100 100 100 100 100 100 100 100 100 100 100 100 100 63 97 92
100 100 100 96 83 94 18 100 100 100 98 8 55 100 56 73 54 41 100 100 100 98 100 100 100 100 94 100 100 100 90 94 98 82 84 100 100 100 99 92 99 100 88 91
100 80 100 100 100 90 96 67 96 100 100 95 98 100 54 38 81 91 96 100 100 100 99 99 99 98 87 90 100 95 100 97 94 100 92 100 95 85 93 91 96 100 100 92
100 100 98 76 100 73 100 93 89 100 100 59 9 5 100 100 99 54 87 93 100 100 100 75 68 80 86 85 84 99 97 85 91 99 96 62 5 77 99 98 94 100 99 72
100 100 100 97 100 100 100 100 95 100 100 32 37 5 8 79 99 55 28 54 68 85 100 98 86 100 90 94 70 78 64 46 82 16 74 36 100 93 95 96 90 99 92 22
95 100 100 100 100 88 100 100 100 91 99 84 87 24 37 100 32 74 37 59 100 100 96 93 96 25 54 59 58 48 8 62 70 17 80 57 92 100 100 100 36 73 83 72
89 100 100 100 100 100 100 100 100 100 100 100 55 98 64 40 100 100 74 36 85 86 100 100 100 100 56 49 38 14 8 32 40 50 54 97 84 100 100 100 89 53 68 96
100 100 100 100 100 100 99 86 100 100 100 100 98 100 100 95 98 100 99 29 36 40 65 100 100 91 85 48 50 90 99 35 32 89 71 70 35 100 100 100 99 77 80 70
100 100 100 100 100 100 98 66 93 50 100 100 100 98 62 39 98 100 97 74 53 96 100 100 100 100 80 60 65 83 94 42 99 95 58 28 49 62 100 100 100 98 78 43
100 100 100 100 71 63 53 66 100 96 100 100 100 100 100 100 100 100 100 96 100 100 100 100 99 100 99 100 85 100 72 19 29 80 62 85 98 77 80 85 98 79 30 11
100 65 100 99 38 83 44 83 100 100 100 100 100 100 100 100 100 100 100 100 100 100 100 100 100 100 100 100 97 100 61 95 64 62 55 92 93 83 43 72 64 100 54 55
86 74 40 64 63 54 52 100 100 100 100 100 100 100 100 100 100 100 100 100 100 100 100 100 100 100 100 100 100 100 100 73 97 73 100 100 87 97 100 99 100 75 58 26
26 25 91 81 92 96 100 100 100 100 100 100 100 100 100 100 97 100 100 100 100 100 100 100 100 100 100 100 91 100 100 99 74 100 100 100 100 100 100 100 100 100 100 40
60 24 44 88 100 100 100 100 100 100 100 100 100 100 100 97 100 100 100 100 100 100 100 100 100 100 100 100 100 93 100 100 95 100 92 75 73 76 76 100 100 100 100 100
6 49 94 100 100 100 100 100 100 100 100 100 100 100 100 100 100 100 100 100 100 100 100 100 100 100 100 100 100 93 100 100 100 100 100 100 100 97 74 99 100 100 100 100
100 99 100 100 100 100 100 98 100 100 100 100 100 100 100 100 100 100 100 100 100 100 100 100 100 100 100 100 99 84 100 100 100 100 100 100 100 83 93 81 100 100 100 100
100 100 100 100 100 100 100 100 97 100 100 100 100 100 100 100 100 100 100 100 100 100 100 99 100 100 100 100 100 90 93 100 100 100 100 100 100 100 100 100 100 100 100 100
100 99 92 100 100 100 100 100 100 100 100 100 100 100 98 100 100 100 100 100 100 100 100 100 100 100 100 100 100 100 100 100 100 100 100 100 100 100 100 100 100 100 100 100
99 99 100 100 100 100 100 100 100 100 100 100 100 99 100 100 100 100 100 100 100 100 100 100 100 100 100 100 100 100 100 100 100 100 100 100 100 100 100 100 100 100 100 100
97 100 96 100 99 100 100 100 100 100 100 100 100 100 100 99 100 98 100 100 94 94 100 100 100 100 100 100 100 100 100 100 100 100 100 100 100 100 100 100 100 100 100 100

GFSNW_prec_cloud_066.txt.gz
Cloud_Cover
13 100 8 9 100 100 9 0 49 1 1 67 94 100 100 99 88 99 34 7 8 5 16 5 5 16 100 100 100 97 100 100 99 100 100 100 100 99 63 95 100 100 100 100
100 74 13 19 83 91 93 0 3 3 0 91 97 18 10 18 5 5 5 5 5 5 6 68 23 99 100 94 71 63 57 95 99 100 100 100 100 100 100 100 97 97 86 100
5 10 3 9 7 10 0 1 44 5 5 51 100 94 61 5 5 5 5 5 27 9 7 40 74 100 100 99 100 35 7 7 64 46 87 100 100 100 100 100 62 54 84 100
26 21 20 5 0 5 0 20 83 56 77 7 43 73 20 0 8 5 5 5 5 97 100 100 100 100 71 5 38 78 77 99 100 80 33 91 100 100 100 100 100 100 79 98
5 63 20 5 3 0 19 100 97 96 11 5 17 39 80 37 11 5 5 5 32 72 100 100 100 100 100 100 30 58 61 39 74 100 100 100 100 100 100 100 94 8 27 40
7 94 100 7 5 10 26 66 90 96 8 6 90 100 100 49 13 6 5 5 5 5 5 11 41 56 100 100 100 100 96 67 100 100 100 100 100 100 100 100 100 100 100 100
5 84 99 100 47 38 53 86 100 98 32 58 63 75 99 12 53 38 5 5 22 5 5 6 5 40 18 46 89 98 100 100 100 100 100 100 100 100 100 100 100 100 100 100
5 52 100 100 100 84 12 72 100 99 100 29 54 72 28 5 5 5 5 5 5 5 72 64 45 39 88 94 8 41 49 81 98 100 100 100 100 100 100 100 100 100 97 100
5 6 15 99 100 100 100 52 44 100 84 10 21 79 91 79 72 41 5 5 33 38 96 100 97 81 77 81 98 89 100 100 100 100 100 100 100 100 87 80 98 100 100 99
5 5 5 89 100 100 90 100 91 97 100 30 68 96 98 86 62 99 68 93 85 31 89 92 91 100 99 99 100 100 98 97 72 99 100 100 100 100 97 96 92 99 92 98
5 5 5 92 98 100 77 100 100 100 89 60 50 19 68 97 98 95 97 91 69 98 67 70 98 95 92 99 100 100 100 96 85 65 84 72 59 90 98 98 99 98 100 96
5 5 7 99 96 100 99 83 100 100 80 35 25 73 2 49 100 98 92 99 93 98 100 84 98 100 100 60 99 60 99 83 97 93 90 73 88 94 87 100 100 100 100 79
5 5 5 84 100 93 100 100 91 100 100 100 82 7 48 5 26 66 40 73 100 100 99 100 100 97 76 98 68 57 32 81 53 67 48 52 45 71 100 100 100 100 100 61
14 5 10 51 100 100 99 100 66 65 65 100 99 73 100 56 13 73 29 72 84 80 100 100 98 90 14 23 58 48 49 50 11 19 10 59 34 72 100 99 100 100 100 88
90 79 65 95 100 100 76 28 8 78 99 97 100 75 39 100 99 36 100 100 100 99 100 100 95 100 59 14 40 70 100 42 56 20 56 7 5 76 42 100 85 99 100 53
71 96 100 100 100 100 95 98 93 99 99 95 98 93 54 100 100 100 100 100 100 100 99 93 100 100 92 57 51 84 87 85 72 11 15 14 56 65 36 30 44 93 100 72
98 100 100 100 94 100 98 24 43 75 100 93 100 100 89 93 100 100 100 100 100 96 97 92 100 94 97 100 97 5 91 100 55 5 10 5 5 5 5 50 42 57 100 75
100 100 100 100 94 59 99 95 99 94 100 98 100 97 100 100 100 100 100 100 100 99 94 100 96 80 83 99 100 4 84 100 98 73 49 14 5 5 5 29 67 99 100 100
100 100 100 100 100 100 15 6 78 91 87 100 100 100 100 100 100 81 100 92 100 88 100 93 83 94 83 98 99 5 88 100 100 50 60 93 100 16 20 91 24 72 100 100
100 100 100 98 99 88 58 100 100 100 100 100 100 100 100 100 100 100 100 99 100 100 100 100 100 100 38 32 94 100 100 100 100 100 100 95 84 32 28 67 23 77 100 100
100 100 100 65 100 94 100 100 100 100 100 100 100 100 100 100 100 100 100 100 100 100 97 97 99 100 86 64 72 95 100 100 100 100 93 98 88 100 97 45 21 61 91 82
100 100 100 86 100 100 100 100 100 100 93 100 100 100 100 100 100 100 100 100 100 100 98 100 100 71 90 100 85 100 100 98 100 100 100 100 100 100 97 100 100 84 100 78
100 100 100 100 100 100 100 98 100 100 100 100 100 100 100 100 100 100 100 100 100 100 100 100 83 91 96 97 71 65 79 100 89 100 100 100 100 100 100 100 100 100 61 68
100 100 100 95 100 100 73 98 100 100 100 100 100 100 100 100 100 100 100 100 100 100 100 100 100 100 100 100 100 100 100 99 92 100 100 100 100 100 100 100 100 99 70 64
100 100 89 100 75 97 100 100 100 100 100 100 100 100 100 100 100 100 100 100 100 100 100 100 100 100 100 100 100 94 95 96 100 100 100 99 99 100 100 100 100 100 100 100
98 93 93 100 96 100 89 100 100 100 100 100 100 100 100 100 100 100 100 100 100 100 100 100 100 100 100 100 100 100 100 100 100 100 100 100 100 100 100 100 100 100 100 100
99 96 91 100 100 100 96 98 100 100 100 100 100 100 98 98 98 100 100 100 100 84 100 100 100 100 100 100 100 100 100 100 100 100 100 100 100 100 100 100 100 100 100 100

GFSNW_prec_cloud_072.txt.gz
Cloud_Cover
0 18 0 0 5 2 2 4 43 2 0 67 98 93 29 55 54 58 98 95 41 82 25 20 83 100 100 100 100 100 100 100 100 100 68 100 100 100 96 98 100 100 100 100
10 35 0 3 0 34 15 1 5 3 0 67 69 29 30 5 8 17 21 58 11 5 5 90 100 100 100 96 100 100 100 100 100 100 100 98 100 48 89 100 100 100 100 100
8 12 0 0 4 4 5 85 94 3 99 87 64 92 98 63 4 5 5 5 5 5 5 4 86 100 100 100 72 100 98 87 99 70 100 91 100 31 82 98 100 100 100 100
91 5 2 4 4 62 11 86 96 100 95 13 100 100 100 100 19 5 2 7 5 5 21 5 5 67 100 100 100 100 49 5 12 20 6 96 98 95 84 100 88 100 100 100
50 5 5 2 42 63 9 89 76 93 49 100 99 67 100 100 100 8 41 29 5 5 5 3 5 2 86 100 100 100 24 5 30 100 100 100 100 89 50 78 90 100 100 100
99 12 4 5 94 100 100 88 100 97 14 84 100 97 95 59 100 47 6 5 24 8 6 19 5 5 23 46 56 98 68 59 46 5 63 100 100 100 100 100 7 64 100 100
59 23 28 0 6 84 100 94 100 100 85 28 100 88 98 100 87 46 90 5 37 7 5 5 5 59 16 5 93 100 100 100 100 62 6 23 53 82 96 100 100 100 100 100
18 5 2 0 5 29 74 96 95 92 100 43 71 99 29 10 92 99 95 37 5 5 5 100 100 91 98 78 6 7 10 70 32 6 36 80 91 93 94 100 100 100 100 100
5 4 0 0 1 1 100 100 94 51 70 100 32 99 5 49 49 72 20 6 5 5 99 98 100 98 100 85 100 21 5 5 45 98 98 100 100 100 100 100 100 100 100 100
5 5 5 4 3 3 100 22 46 24 89 100 100 100 82 94 100 98 86 50 99 36 98 90 93 100 45 69 40 89 82 76 41 69 100 100 100 100 100 100 100 100 100 100
60 9 5 5 5 70 73 100 5 5 6 100 100 98 100 45 92 100 68 50 26 98 97 80 93 82 97 57 53 57 99 100 100 100 100 100 100 100 100 100 100 100 100 100
100 95 5 11 5 41 85 91 86 100 99 48 94 100 100 100 66 100 100 100 100 98 94 100 95 99 88 83 100 60 93 82 88 40 100 100 100 100 100 100 100 100 100 100
100 100 95 46 97 5 8 38 26 96 69 61 83 100 100 100 100 100 98 36 53 86 99 94 100 100 97 79 96 88 91 100 100 67 87 70 95 100 100 100 100 100 100 100
100 100 100 100 86 99 95 30 100 100 100 92 100 98 93 90 100 100 100 28 98 96 98 99 92 100 100 100 99 76 100 86 74 89 91 70 58 75 83 100 100 99 100 83
86 100 100 97 90 94 100 52 100 100 97 70 100 90 96 100 100 100 100 100 87 100 99 100 100 100 100 100 100 100 100 98 100 93 100 98 99 60 61 90 100 100 100 100
27 100 100 100 84 100 100 43 100 100 100 100 93 94 88 38 100 100 100 100 100 100 100 100 100 100 100 100 100 100 100 100 100 100 99 92 87 74 64 62 69 70 92 100
63 100 100 100 79 99 100 100 100 93 100 100 79 100 100 98 100 75 100 100 100 100 100 99 88 96 97 100 100 100 100 100 100 100 100 100 100 92 66 63 41 38 37 100
89 100 100 100 86 100 100 100 100 79 100 98 83 20 74 100 100 100 100 100 100 100 100 100 15 5 9 62 76 100 10 87 100 100 100 100 100 100 99 32 37 36 55 72
100 100 100 100 100 100 100 100 98 90 100 93 90 93 71 100 100 100 100 100 100 100 100 100 100 99 79 5 35 100 14 19 10 52 96 80 88 100 100 100 48 8 45 15
100 100 100 100 100 100 100 100 100 100 100 100 99 91 100 87 100 100 98 100 100 100 100 100 96 96 100 100 55 5 11 5 31 5 61 10 94 100 100 100 92 10 5 5
100 100 100 100 100 100 100 100 100 98 97 97 100 100 100 100 100 100 100 100 100 100 100 100 100 100 100 75 100 100 100 94 95 68 82 100 100 100 100 100 90 95 86 76
77 96 100 100 94 100 100 100 100 99 95 99 100 100 100 100 100 100 100 100 100 100 97 100 100 100 90 76 59 60 96 100 86 100 100 95 78 62 91 100 100 100 100 86
100 82 100 100 80 100 97 100 91 98 100 100 100 100 100 100 100 100 100 100 100 100 100 100 98 28 34 18 76 57 97 76 28 65 98 97 98 100 100 100 100 100 100 100
94 69 100 75 98 74 100 100 100 100 100 100 100 100 100 100 100 100 100 100 100 100 96 100 100 100 100 100 94 99 98 100 95 100 100 100 100 100 100 100 100 100 100 100
100 100 99 100 95 99 100 100 100 100 100 100 100 100 100 100 100 100 100 100 100 100 100 100 100 100 100 100 100 100 100 100 100 100 100 100 100 100 100 100 100 100 99 100
100 98 100 100 98 100 100 97 55 100 100 100 100 100 100 100 100 100 100 100 100 100 100 100 100 100 100 100 100 100 100 100 100 100 100 100 100 100 100 100 100 99 78 85
96 89 100 93 100 100 100 98 50 100 94 98 94 100 100 100 100 100 100 100 100 100 94 100 100 100 100 100 100 100 100 100 100 100 100 100 100 100 100 100 99 100 99 97

GFSNW_prec_cloud_075.txt.gz
Cloud_Cover
0 0 4 4 1 26 4 3 0 0 4 67 71 68 96 14 5 6 61 46 37 8 56 97 87 77 100 100 100 100 100 100 100 91 96 91 99 100 100 100 70 99 96 100
0 0 0 5 27 91 46 4 0 4 44 33 96 55 57 47 5 5 5 6 31 67 100 89 99 100 100 100 100 100 100 100 61 100 69 73 71 87 92 96 89 88 92 100
0 0 5 44 80 16 9 1 21 5 11 83 100 100 92 100 57 6 5 5 5 8 96 100 100 100 100 100 100 100 100 100 100 100 45 21 9 100 100 100 83 43 100 100
0 5 4 1 2 1 0 1 74 69 75 46 100 98 100 100 63 47 9 94 5 5 5 18 82 56 100 100 100 100 100 100 19 74 93 5 40 89 96 80 35 89 100 100
0 0 2 0 0 0 2 10 30 40 37 100 98 100 97 100 100 30 45 25 5 5 5 5 30 76 100 100 98 100 82 100 100 100 99 32 62 62 98 97 100 100 100 100
3 5 1 0 1 0 0 4 23 76 4 16 99 99 100 100 100 92 99 5 5 6 5 1 4 5 14 28 58 6 17 68 29 63 89 100 73 68 70 100 99 100 100 100
5 6 5 0 1 0 2 67 88 95 4 1 34 100 94 100 100 99 100 63 5 5 5 40 53 7 5 17 100 26 10 60 71 95 76 43 100 100 98 70 100 100 93 100
5 16 5 1 0 0 1 1 12 66 11 3 1 30 84 100 84 100 39 21 5 8 5 95 100 100 86 13 22 68 100 58 38 99 100 66 5 5 51 100 96 100 65 100
5 6 5 5 0 0 0 0 3 64 99 3 4 4 89 100 100 71 81 80 94 54 50 98 89 99 100 89 80 18 35 30 31 74 24 31 48 21 5 5 71 99 61 100
6 89 39 5 5 5 4 4 9 5 93 5 30 12 100 88 95 100 100 93 69 74 74 93 92 100 89 92 63 87 98 98 87 78 86 90 6 29 80 98 98 76 87 40
51 86 97 100 82 13 13 5 6 32 60 29 100 60 100 95 100 100 100 30 87 39 7 56 83 88 95 83 64 90 61 99 100 100 100 93 100 100 98 96 100 92 89 94
100 100 100 95 100 46 18 8 72 97 93 15 97 94 99 100 97 100 100 95 100 98 85 48 81 100 82 100 97 50 94 84 88 92 68 76 100 100 100 100 100 100 100 100
11 96 98 100 100 32 94 72 52 83 99 76 80 61 68 100 98 96 100 100 100 100 98 85 87 63 61 96 91 88 85 99 100 100 73 83 100 100 100 100 100 100 100 100
0 3 70 100 95 100 100 88 91 96 100 100 87 54 100 98 96 99 100 100 100 72 100 92 76 10 47 98 100 66 94 99 90 100 99 100 100 100 100 100 100 100 100 100
0 0 4 100 100 100 100 82 14 97 100 93 100 91 33 99 100 99 100 100 100 100 100 100 90 98 33 100 100 100 100 93 100 100 100 100 100 42 96 100 100 100 84 51
0 0 0 100 100 100 93 93 29 36 100 100 100 12 8 100 100 99 100 100 81 100 100 100 100 97 93 100 100 100 100 100 100 100 100 100 100 100 100 100 98 90 92 13
4 2 86 100 100 99 100 60 70 99 100 100 100 100 86 56 100 100 100 100 100 100 100 90 83 40 71 100 100 93 100 100 100 100 100 100 100 100 66 98 97 58 57 51
98 100 100 94 100 92 94 86 97 100 100 100 100 93 68 100 100 99 100 100 100 100 99 99 98 73 70 58 100 99 60 100 100 81 100 100 100 100 98 38 53 32 21 5
100 100 97 72 93 98 76 80 100 100 65 96 99 83 75 39 97 100 97 100 100 87 100 100 83 70 44 46 27 100 32 5 37 55 63 93 68 99 100 96 100 98 34 5
100 100 100 100 14 15 30 94 100 100 100 100 98 88 100 94 97 100 100 100 100 100 80 99 100 100 100 100 99 99 57 5 13 30 27 50 78 59 45 97 100 100 92 21
100 100 100 92 25 99 87 100 100 90 100 94 99 100 100 100 100 100 100 100 100 100 100 100 100 100 100 51 9 52 62 98 96 100 100 97 93 97 100 100 100 100 60 92
98 78 99 100 74 80 94 97 92 96 67 100 100 100 100 100 100 100 100 100 100 100 100 100 100 100 100 96 60 25 19 22 82 87 99 100 100 99 89 85 75 100 100 100
90 54 100 99 100 93 98 100 83 89 99 100 100 100 100 100 100 100 100 100 100 100 100 100 100 100 100 100 100 93 93 93 96 84 66 94 98 100 100 100 100 100 100 100
62 10 32 80 81 82 90 91 100 100 100 100 100 100 100 100 100 100 100 100 100 100 100 100 99 100 100 100 99 92 97 100 100 100 100 100 100 100 100 100 100 100 100 99
57 99 76 100 100 100 100 100 100 57 96 100 100 100 100 100 100 100 100 100 100 100 100 100 100 100 100 100 100 100 100 100 100 100 100 97 90 81 87 97 100 83 82 79
100 97 86 97 81 100 100 100 92 89 100 100 100 100 100 96 100 100 84 98 100 100 100 100 100 100 100 100 100 100 100 100 100 100 100 100 100 100 100 100 100 99 100 98
88 83 68 99 100 100 100 100 100 98 97 97 91 100 92 95 93 100 100 100 100 100 100 100 100 100 100 100 100 100 100 100 100 100 100 100 100 100 100 100 100 100 99 87

GFSNW_prec_cloud_078.txt.gz
Cloud_Cover
0 0 0 0 0 0 10 5 0 0 4 5 50 5 26 5 5 7 5 5 5 5 5 5 99 100 100 96 94 93 73 100 100 100 100 100 100 100 100 34 85 46 14 43
0 0 0 0 0 8 2 40 0 0 5 25 27 7 16 56 76 5 5 8 49 6 5 57 56 100 100 98 100 100 100 100 100 100 100 100 100 94 96 25 16 5 7 48
0 0 0 0 0 0 0 1 7 0 5 5 5 5 5 86 99 7 5 5 5 68 52 65 87 91 100 100 100 100 100 100 100 100 100 100 96 17 30 95 93 15 65 100
0 0 0 0 0 0 0 10 61 35 29 5 5 5 16 6 85 79 59 36 5 16 100 95 82 96 100 100 100 100 100 100 91 100 99 100 97 100 56 40 28 100 100 100
0 0 0 0 0 1 7 5 18 6 51 5 12 5 5 100 49 74 32 29 5 5 13 100 100 9 99 100 100 100 100 100 72 100 100 44 9 5 5 49 100 100 100 100
0 0 1 5 5 1 0 0 30 97 8 5 21 4 4 5 97 10 83 72 5 5 5 5 6 88 5 11 66 92 100 100 100 18 13 78 60 62 34 97 100 100 100 100
0 1 5 4 2 0 4 0 34 66 7 11 5 4 85 41 69 100 81 100 88 33 5 5 5 5 50 14 5 5 26 62 87 90 10 69 100 66 72 91 100 100 100 100
4 5 5 4 1 0 0 0 7 72 10 5 3 8 55 100 96 100 100 65 100 80 75 100 100 99 60 5 41 60 6 60 57 96 90 82 100 75 73 97 92 100 100 100
5 5 19 94 9 5 5 5 5 5 60 4 6 7 29 100 100 100 100 100 96 79 82 100 100 100 100 94 68 24 14 8 26 53 100 100 75 28 5 5 6 94 97 100
4 30 25 100 16 84 56 5 5 5 58 10 59 87 100 100 100 100 100 100 99 93 97 100 100 100 100 100 93 72 58 83 88 52 39 27 51 100 57 54 65 91 41 81
65 43 100 100 20 94 38 10 8 5 68 20 54 91 99 100 100 100 100 100 100 94 78 88 83 82 96 100 68 49 39 35 37 37 95 42 8 8 56 76 100 88 42 52
53 5 34 92 98 97 100 34 80 41 100 75 32 51 54 100 100 100 100 100 100 97 67 55 66 99 100 99 100 93 100 100 95 98 37 99 55 94 98 96 98 100 100 98
5 82 4 7 98 96 100 100 97 68 76 47 19 18 98 76 75 100 100 100 100 100 100 100 100 95 35 90 100 100 98 100 90 80 100 100 61 100 100 100 100 98 100 100
19 5 2 0 42 96 100 86 95 86 100 100 95 27 48 5 40 100 100 98 100 100 98 100 98 68 49 86 99 91 100 100 100 100 99 100 46 98 100 100 100 100 100 100
6 5 5 2 100 100 100 80 89 52 54 98 94 16 35 50 9 93 100 100 100 100 100 100 88 41 87 96 100 100 78 100 100 100 100 100 84 32 100 100 100 100 100 100
16 5 0 42 87 51 85 68 10 36 96 100 57 32 16 89 100 48 100 100 100 100 100 100 100 100 97 100 100 88 100 100 100 100 100 100 100 92 91 100 100 100 100 100
74 5 88 100 99 99 65 14 51 84 96 86 67 18 63 100 100 100 96 91 100 100 100 83 100 100 100 100 100 100 100 100 100 100 100 100 100 97 52 60 88 79 88 93
44 94 100 43 62 52 81 100 97 100 91 75 98 97 41 95 100 49 93 100 97 91 89 99 98 68 63 96 99 63 100 100 100 100 100 100 100 99 63 6 5 5 6 7
72 100 61 80 99 96 95 58 72 99 81 74 74 96 78 79 96 100 88 100 100 50 99 88 81 24 90 89 100 100 28 100 100 98 100 100 100 100 97 48 5 10 6 5
63 71 96 89 11 99 84 77 100 100 100 98 63 77 99 77 100 100 100 100 100 100 100 88 96 41 98 100 100 94 5 5 6 55 92 100 100 100 100 98 48 69 99 97
91 70 87 100 64 100 98 100 97 78 70 77 79 71 91 100 100 99 100 100 100 100 98 100 100 100 95 15 19 100 100 50 27 86 96 100 100 100 100 100 100 100 100 100
29 87 65 100 100 98 95 100 92 82 43 43 98 100 100 100 100 100 100 100 100 100 96 100 99 31 91 97 95 100 100 100 96 87 99 90 99 100 100 99 100 100 100 95
67 46 100 100 93 97 98 46 96 95 96 100 100 100 100 100 100 100 100 100 100 100 100 100 100 96 97 90 100 100 100 100 100 77 76 84 90 100 100 100 100 100 100 100
28 11 56 88 73 81 6 42 57 73 96 71 100 100 100 100 100 100 100 100 100 100 100 100 100 100 100 100 100 100 99 99 100 99 98 87 98 96 98 100 100 96 96 100
7 64 65 86 9 57 79 96 100 95 100 95 98 99 100 100 100 100 100 100 100 100 100 100 100 100 100 100 100 100 100 100 100 100 100 98 99 99 88 99 93 79 62 61
76 90 87 91 81 48 56 44 91 100 97 99 94 100 100 100 100 100 100 100 100 100 100 100 100 100 100 100 100 100 100 100 100 100 100 100 100 100 100 100 98 98 94 91
100 80 51 60 59 5 5 8 50 95 100 100 88 100 100 88 100 100 98 100 100 100 100 100 100 100 100 100 100 100 100 100 100 100 100 100 100 100 100 100 100 100 100 100

GFSNW_prec_cloud_084.txt.gz
Cloud_Cover
100 75 54 5 5 5 5 0 0 0 72 0 57 0 0 2 5 93 98 92 78 5 92 82 100 100 100 100 100 100 100 100 100 100 100 100 100 100 100 100 100 100 100 91
100 99 99 5 31 58 5 3 0 0 1 0 2 2 5 5 45 87 54 100 100 94 100 98 100 100 100 100 94 100 100 100 100 100 96 88 100 100 100 95 100 100 100 100
90 100 100 11 44 5 5 0 1 2 0 0 40 91 8 18 3 10 97 98 97 100 99 97 99 100 87 100 99 100 100 100 100 100 100 100 100 100 100 100 100 100 100 100
83 66 61 99 59 5 5 13 85 88 5 5 75 87 9 5 5 5 95 52 100 96 96 100 99 100 100 100 100 100 100 100 100 100 100 100 100 29 5 5 80 62 100 92
100 100 92 82 10 5 23 4 5 5 15 5 16 4 92 88 26 28 57 94 100 94 100 99 100 100 100 100 100 100 100 100 100 100 100 100 100 100 27 34 88 95 100 94
100 100 100 20 5 5 2 5 2 8 3 5 5 4 2 0 5 0 86 98 100 100 100 100 66 100 100 100 100 100 100 100 100 100 100 61 63 61 41 54 32 100 100 100
100 92 11 18 5 3 0 5 3 5 2 1 0 0 5 5 5 69 4 39 97 100 100 93 100 34 99 100 100 100 99 69 100 100 100 100 100 100 100 100 100 100 100 100
100 50 57 12 5 5 0 5 5 5 5 3 2 3 5 5 4 5 5 37 100 100 100 93 74 95 85 56 100 100 100 100 100 100 100 100 100 100 100 100 100 100 100 100
34 6 100 38 93 10 5 5 5 6 5 4 5 5 5 13 42 15 1 71 100 100 100 100 62 79 93 71 88 59 79 99 100 100 57 90 88 100 100 99 100 100 80 69
64 50 92 100 44 56 67 81 71 59 6 5 5 5 5 47 74 96 33 54 100 100 100 100 100 93 62 95 34 28 44 99 76 100 100 98 36 83 100 99 100 100 100 100
66 40 100 81 98 100 100 98 100 63 58 5 6 41 5 5 11 100 59 94 98 100 100 100 100 98 86 99 99 28 78 11 22 100 99 42 8 11 10 40 99 88 54 20
100 100 99 68 62 100 91 96 98 99 100 36 6 5 5 5 6 88 93 96 97 100 100 100 99 99 100 94 100 80 77 54 47 58 5 5 83 28 10 73 100 99 100 14
100 100 69 99 5 91 44 97 100 100 100 17 5 1 2 2 4 4 71 46 70 100 98 100 100 99 87 90 89 99 95 80 86 55 62 71 100 47 27 8 93 95 91 98
100 100 100 23 5 85 88 99 98 94 100 89 5 0 4 5 5 16 57 5 67 53 27 100 96 100 95 96 80 83 100 100 88 52 93 100 80 73 100 100 92 95 98 97
100 100 64 95 21 68 77 94 94 100 52 26 5 2 5 10 71 16 92 53 5 54 24 41 100 96 96 99 100 100 67 98 100 96 100 100 100 92 94 85 100 95 100 100
100 100 100 98 97 100 94 24 6 6 96 97 56 3 5 5 85 13 15 97 7 72 96 69 93 100 65 56 95 29 100 98 100 100 98 100 73 72 100 100 100 100 100 100
100 100 86 71 96 61 7 7 8 48 64 52 21 5 5 5 71 65 5 5 5 5 9 37 96 51 64 97 99 94 72 71 79 92 65 70 56 100 100 98 66 98 100 100
100 100 100 100 100 80 42 36 93 96 92 47 51 30 5 5 31 99 27 12 5 74 5 27 52 98 55 100 100 13 3 96 86 73 74 45 81 100 99 100 100 100 100 100
100 100 100 97 73 24 87 23 97 100 24 35 51 94 52 21 43 80 100 86 96 48 92 89 32 100 100 91 100 4 5 5 84 100 82 85 84 99 100 100 100 100 100 100
100 100 100 98 75 31 83 86 100 98 99 60 75 7 100 66 90 86 100 100 98 100 79 93 100 19 45 44 100 100 100 95 36 86 100 100 100 100 100 100 100 100 100 100
100 100 99 78 98 98 100 100 96 88 93 88 69 53 60 43 100 96 100 100 100 100 95 94 96 99 92 98 97 100 100 98 60 63 76 100 100 100 100 100 100 100 100 100
100 100 98 90 100 100 89 91 79 96 45 6 77 92 78 89 100 100 100 100 100 100 100 100 94 73 100 100 100 100 100 100 90 60 92 100 100 100 100 100 100 100 100 100
100 100 100 100 100 96 89 74 88 93 87 75 91 67 100 100 100 100 100 100 100 100 100 100 99 100 100 100 100 100 100 100 100 100 100 100 100 100 100 100 100 100 100 99
100 100 100 100 100 100 51 9 36 6 87 92 57 95 99 100 100 100 100 100 100 100 100 100 100 100 100 100 100 100 100 100 100 100 100 92 95 95 94 80 98 69 64 54
100 100 100 100 100 100 68 48 55 32 82 44 62 91 84 77 97 100 96 99 98 100 100 100 100 100 100 100 100 100 100 100 100 100 100 100 100 100 100 100 100 84 68 17
100 100 100 100 96 96 98 100 70 16 10 22 74 91 91 82 98 92 89 97 96 100 100 100 100 100 100 100 100 100 100 100 100 100 100 100 100 100 100 100 100 90 86 73
100 100 100 100 100 57 96 79 15 7 5 14 86 95 93 89 89 99 89 98 86 100 100 100 100 100 100 100 100 100 100 100 100 100 100 100 100 100 100 100 100 100 100 100

GFSNW_prec_cloud_087.txt.gz
Cloud_Cover
100 75 93 5 5 96 78 5 5 62 100 19 61 5 5 2 9 8 66 100 100 100 96 94 100 100 100 22 29 96 100 100 100 100 100 100 100 74 100 100 100 100 100 100
100 100 78 18 5 100 35 40 19 33 83 5 33 1 3 6 10 1 34 40 99 100 100 63 100 100 100 100 100 88 100 100 100 100 100 99 100 97 100 100 100 100 100 100
100 100 79 99 21 100 15 8 5 1 1 2 6 79 67 47 6 14 87 66 73 100 97 98 100 100 100 100 100 100 100 100 100 100 100 97 100 100 100 100 100 100 100 100
100 100 100 100 99 76 5 6 67 63 4 4 7 89 97 1 3 3 89 89 100 100 100 100 100 100 100 100 100 100 100 100 100 100 100 100 100 100 100 100 100 100 100 100
100 100 29 100 62 92 6 5 5 5 5 5 5 3 5 5 1 4 6 92 99 100 100 100 100 100 100 100 100 100 100 100 100 100 100 100 6 52 98 100 100 100 100 100
100 100 14 100 100 100 5 10 2 5 1 0 0 4 5 5 7 5 4 5 59 99 100 100 100 100 100 100 100 100 100 100 100 100 100 100 100 99 100 100 100 100 100 90
100 100 100 100 100 70 5 5 1 3 0 0 0 0 5 5 5 34 5 28 92 100 70 100 76 79 100 100 100 100 100 100 100 100 100 100 100 97 86 91 61 100 98 48
100 100 100 100 100 7 5 7 3 5 5 3 0 3 5 5 34 5 41 16 93 100 90 100 75 100 56 100 100 100 100 100 100 100 100 100 38 5 5 7 5 13 28 57
100 100 100 100 98 47 6 5 6 5 5 4 5 5 5 5 10 5 5 94 75 100 100 100 6 59 94 75 100 100 88 99 100 100 100 100 100 100 100 100 100 100 100 100
100 100 100 100 100 94 43 10 23 29 45 5 5 7 11 6 15 45 12 26 50 90 100 100 58 5 16 100 90 54 68 100 95 100 100 100 100 100 100 100 100 100 100 100
100 100 100 100 100 100 88 21 71 100 10 5 5 8 51 10 55 49 5 30 61 90 98 100 100 43 8 34 18 29 25 14 90 100 100 100 100 99 100 100 100 100 100 100
100 100 100 100 75 100 100 99 91 100 18 5 5 3 2 5 5 26 5 22 20 30 98 66 100 97 98 13 9 29 93 57 8 5 25 54 76 77 98 100 100 100 100 83
100 100 100 100 72 94 69 55 91 66 90 32 5 0 0 2 5 5 5 5 58 100 41 74 90 100 100 94 79 7 18 53 56 5 45 50 23 24 7 31 66 97 33 34
100 100 100 100 100 100 100 17 99 18 67 64 5 0 5 5 41 54 5 30 5 20 5 5 54 100 99 66 11 72 35 71 54 7 10 78 62 30 29 33 78 90 93 76
100 100 100 100 100 100 90 59 92 83 22 6 5 4 0 5 70 61 70 100 48 5 5 7 59 98 100 63 47 8 53 84 81 84 65 78 59 82 93 94 88 100 96 92
100 100 100 100 100 100 74 97 9 7 6 86 34 5 3 5 32 44 5 82 26 78 57 67 92 98 64 66 25 5 12 61 58 14 72 32 71 98 95 100 97 100 100 100
100 100 100 100 100 100 89 5 5 5 61 61 20 5 5 5 18 88 46 5 14 5 5 59 100 100 98 90 100 89 12 5 26 97 82 100 100 100 100 100 99 100 99 100
100 100 100 100 100 100 100 79 66 79 50 5 55 20 8 5 5 40 94 27 21 59 10 6 19 16 82 100 100 82 5 67 12 7 70 100 100 100 100 100 100 100 94 100
100 100 100 100 100 100 75 75 100 100 20 30 21 69 6 5 5 39 99 76 89 57 99 69 80 34 94 85 100 100 8 63 99 47 63 88 100 100 100 100 100 100 100 100
100 100 100 100 100 100 100 81 96 97 36 54 52 22 44 5 28 46 86 100 93 100 62 95 100 45 72 90 100 100 100 100 100 66 60 98 100 100 100 100 100 100 100 100
100 100 100 100 100 98 96 99 80 69 77 74 24 5 29 45 64 76 61 98 100 95 36 100 100 98 98 100 100 100 100 100 100 100 100 88 85 100 100 100 100 100 100 100
100 100 100 100 100 100 39 66 72 86 6 7 44 51 26 44 99 100 98 96 100 99 98 100 100 100 100 100 100 100 100 100 100 100 100 100 100 100 100 100 100 100 100 100
100 100 100 100 100 100 42 94 82 65 53 47 83 29 20 63 100 100 100 99 100 99 100 97 98 100 94 100 100 100 100 100 100 100 100 100 100 100 100 100 100 100 100 100
100 100 100 100 100 54 9 98 77 42 40 97 68 70 17 43 91 92 100 94 100 100 100 77 68 89 100 100 100 100 100 100 100 100 100 100 100 100 95 100 100 100 100 100
100 100 100 100 100 100 100 100 87 100 99 40 21 56 44 66 99 92 99 92 86 86 59 75 92 99 97 100 100 100 100 100 100 100 100 100 100 100 100 100 100 100 94 91
100 100 100 100 100 97 94 100 66 61 72 14 14 62 86 83 91 98 54 98 38 33 83 65 71 100 100 100 100 100 100 100 100 100 100 100 100 100 100 100 100 100 100 100
100 100 100 100 100 90 98 100 99 81 21 28 58 44 13 56 75 86 96 56 53 57 100 87 42 41 100 100 100 100 100 100 100 100 100 100 100 100 100 100 100 100 100 100

GFSNW_prec_cloud_090.txt.gz
Cloud_Cover
100 100 100 88 100 6 49 100 9 100 100 25 31 1 2 6 21 15 46 98 100 100 100 100 100 100 97 5 8 98 100 100 100 100 100 100 97 90 58 100 100 100 100 100
100 100 100 99 93 5 47 100 93 43 56 5 0 1 5 5 5 24 100 100 100 100 100 100 100 100 93 24 97 100 100 100 100 100 100 100 100 66 7 100 100 100 100 100
100 100 100 100 37 5 74 100 65 5 5 4 3 14 5 4 0 80 82 91 100 100 100 96 100 100 100 100 100 100 100 100 100 100 100 84 100 100 100 100 100 100 100 100
100 100 100 63 5 5 100 100 51 5 8 4 2 6 5 5 5 0 5 65 41 78 95 99 100 100 100 100 100 100 100 100 100 54 19 85 81 84 100 100 100 100 100 100
100 100 100 16 5 28 100 100 19 6 5 5 0 0 5 5 5 5 5 5 5 92 93 100 100 100 100 100 100 100 88 100 100 100 100 100 69 99 100 100 100 100 100 100
100 100 100 5 5 68 100 100 7 5 5 3 3 4 5 5 63 5 5 5 89 100 86 61 100 100 100 100 99 92 76 100 100 100 100 100 25 82 100 100 100 100 100 100
100 100 100 32 64 100 99 100 12 5 5 3 1 5 5 5 5 66 15 5 8 39 7 21 46 38 35 25 50 100 42 57 95 100 100 100 100 62 50 86 100 100 100 100
100 100 100 98 99 100 100 93 6 5 5 0 2 5 5 5 5 5 5 5 8 66 99 91 22 43 16 9 23 19 77 96 90 97 100 100 100 8 66 89 86 100 100 100
100 100 100 99 100 100 100 66 5 6 5 3 36 5 5 5 5 4 5 34 86 99 100 82 62 50 5 8 8 95 99 32 57 98 100 100 100 100 57 93 98 98 83 59
100 100 100 100 100 100 100 10 5 5 5 5 46 5 5 5 6 5 5 5 44 74 93 98 87 85 14 80 12 5 65 99 100 55 31 22 5 5 5 6 41 30 5 5
100 100 100 100 100 100 71 5 5 7 56 5 23 5 6 6 5 4 2 8 12 42 47 90 98 94 20 57 39 5 49 91 97 92 92 93 100 82 58 56 97 68 61 100
100 100 100 100 100 100 72 5 5 8 65 5 30 5 4 5 5 5 5 8 55 99 86 42 90 99 95 40 94 42 87 29 88 100 100 100 100 68 100 100 100 100 100 100
100 100 100 100 100 59 32 31 5 5 53 23 12 100 9 5 5 5 5 5 27 53 7 48 88 100 94 94 80 6 5 9 43 56 80 43 24 28 38 44 71 100 100 100
100 100 100 100 100 99 100 99 7 5 26 15 4 99 5 5 88 17 5 5 5 5 5 6 23 100 99 100 90 24 45 30 57 57 25 5 9 18 5 5 79 83 38 88
100 100 100 100 100 100 100 60 72 70 6 4 47 100 5 16 5 46 5 5 5 5 12 8 11 60 72 100 80 7 5 15 24 83 96 61 66 6 44 68 84 89 44 62
100 100 100 100 100 100 100 100 100 100 6 28 91 61 5 5 37 19 5 21 8 14 19 11 5 5 38 97 100 100 33 5 11 63 37 47 91 97 100 100 100 100 100 100
100 100 100 100 100 100 100 100 100 99 38 5 5 5 75 35 40 61 5 7 9 8 8 8 5 12 91 100 100 100 88 97 16 12 80 84 100 100 100 100 100 100 100 100
100 100 100 100 100 100 100 100 100 99 99 5 5 9 48 24 37 80 76 36 27 63 11 18 18 5 6 94 100 100 70 44 100 86 23 79 99 100 100 100 100 100 100 100
100 100 100 100 100 100 100 100 100 100 79 8 16 33 5 20 72 9 100 73 99 82 92 87 76 52 63 5 82 100 100 58 61 100 77 56 67 80 100 100 100 100 100 100
100 100 100 100 100 100 100 100 100 100 99 7 6 5 5 31 61 6 83 100 92 99 76 91 100 64 40 62 96 84 84 100 100 98 100 13 92 66 84 100 100 100 100 100
100 100 100 100 100 100 100 100 100 100 100 37 5 5 47 27 27 49 54 98 98 87 76 98 77 79 75 98 100 100 100 99 100 89 100 100 100 100 90 74 64 67 100 100
100 100 100 100 100 100 100 100 100 100 24 5 7 9 7 31 95 100 62 97 97 99 96 100 100 87 67 100 100 100 100 100 100 100 100 100 100 100 100 96 58 86 100 100
100 100 100 100 100 100 100 100 100 99 30 5 90 40 16 95 100 100 95 77 82 97 100 99 100 50 99 100 100 100 100 100 100 100 100 100 100 100 100 100 100 98 99 98
100 100 100 100 100 100 100 100 100 100 28 95 44 5 5 26 100 77 95 38 99 87 96 30 43 25 96 100 100 100 100 100 100 100 100 100 100 100 100 100 100 100 100 100
100 100 100 100 100 100 100 100 100 100 100 29 86 34 85 71 99 98 92 88 75 55 7 5 6 11 68 100 100 100 100 100 100 100 100 100 100 100 100 100 100 100 100 100
100 100 100 100 100 100 100 100 100 95 21 88 98 97 100 86 92 92 83 89 8 5 24 5 13 57 17 77 98 100 100 100 100 100 100 100 100 100 100 100 100 100 100 100
100 100 100 100 100 100 100 100 93 30 100 100 95 100 99 72 90 94 88 41 5 5 49 92 13 90 6 100 82 100 100 100 100 100 100 100 100 100 100 100 100 100 100 100

GFSNW_prec_cloud_093.txt.gz
Cloud_Cover
100 100 100 100 100 100 100 6 5 36 37 47 5 5 2 12 39 68 59 86 100 100 100 100 100 100 98 5 5 78 100 99 100 100 100 73 95 84 100 100 100 100 100 100
100 100 100 100 100 100 97 34 43 18 98 70 5 2 13 5 5 28 6 24 69 94 100 98 100 100 74 47 11 100 100 100 100 100 100 100 94 91 100 100 100 100 100 100
100 100 100 100 99 94 29 22 77 72 92 9 5 1 5 5 4 16 17 4 7 97 62 69 100 100 75 94 100 96 100 100 100 100 96 84 100 100 100 100 100 100 100 100
100 100 100 100 100 92 36 38 85 98 12 12 5 3 5 5 5 5 5 35 5 91 28 38 97 100 100 100 100 100 100 100 100 100 100 100 100 100 100 100 100 100 100 100
100 100 100 100 97 72 76 55 98 83 50 6 4 0 5 5 5 5 5 5 6 99 92 90 100 100 100 100 100 100 100 100 100 100 58 100 100 100 100 100 100 100 100 100
100 100 100 100 100 100 89 98 100 100 15 23 5 3 4 5 44 6 5 7 39 100 69 5 100 100 100 100 100 100 100 100 100 100 76 32 59 100 100 100 100 100 100 91
100 100 100 100 100 77 91 100 100 81 12 35 5 2 9 5 10 5 5 5 5 20 9 13 51 80 100 100 97 73 100 96 92 37 59 63 76 46 50 90 100 100 100 89
100 100 100 100 100 99 76 40 100 74 5 5 1 4 10 18 5 5 5 5 5 44 100 55 100 95 76 24 5 5 31 100 100 100 100 82 89 23 52 38 100 100 100 100
100 100 100 100 100 100 96 86 99 90 8 9 5 5 5 5 81 5 5 5 26 94 100 19 92 91 90 99 61 7 11 5 74 100 100 100 100 84 100 50 75 14 92 100
100 100 100 100 100 100 100 90 98 15 32 5 10 4 5 5 100 6 5 7 71 59 80 81 61 88 14 100 98 91 96 95 93 98 100 100 100 100 100 55 92 6 98 100
100 100 100 100 100 100 100 87 43 73 11 27 5 4 5 65 58 4 5 12 44 64 99 89 92 91 83 44 21 79 86 94 100 90 98 51 98 95 98 84 100 27 83 100
100 100 100 100 100 100 100 100 14 66 26 5 5 5 5 70 5 14 5 10 50 58 98 78 95 99 73 85 98 5 80 61 100 100 100 99 99 98 68 8 12 69 56 5
100 100 100 100 100 100 100 100 55 69 11 5 2 5 5 10 5 5 78 21 81 68 48 72 96 100 42 98 100 49 56 28 48 68 100 100 100 100 100 100 93 51 99 94
100 100 100 100 100 100 100 100 100 70 11 5 3 5 5 95 10 25 5 35 6 10 6 82 75 96 86 96 92 43 82 30 55 79 51 99 100 100 100 100 100 100 100 100
100 100 100 100 100 100 100 98 100 100 99 5 4 4 5 97 75 98 19 13 48 87 49 48 72 57 81 85 53 6 89 89 90 100 97 77 99 99 88 26 30 54 65 42
100 100 100 100 100 100 100 100 100 100 36 5 59 10 5 97 13 77 5 100 92 99 82 86 44 5 6 58 77 75 13 98 75 66 98 89 95 98 94 79 67 93 88 71
100 100 100 100 100 100 100 100 100 99 21 5 52 50 95 8 66 32 24 19 99 100 94 45 64 19 18 58 52 99 70 100 100 100 74 99 100 100 100 100 100 99 100 100
100 100 100 100 100 100 100 100 100 100 100 46 8 5 5 35 78 99 95 100 98 68 73 59 63 47 5 6 5 70 100 86 52 81 100 72 36 92 100 100 100 100 100 100
100 100 100 100 100 100 100 100 100 100 100 52 9 5 26 4 38 93 100 99 100 91 92 99 73 95 67 5 5 5 59 100 100 89 98 100 86 14 79 86 100 100 100 100
100 100 100 100 100 100 100 100 100 100 100 100 99 81 18 13 46 100 100 100 100 100 93 95 91 74 35 41 96 100 100 100 100 100 68 78 100 100 100 91 100 100 100 100
100 100 100 100 100 100 100 100 100 100 100 100 75 100 22 8 91 100 90 100 100 99 94 99 100 89 86 95 97 100 100 100 100 100 100 100 100 100 100 100 100 94 90 100
100 100 100 100 100 100 100 100 100 100 100 100 63 100 38 74 88 100 98 100 99 100 80 100 100 60 11 54 98 100 100 100 100 100 100 100 100 100 100 100 92 75 62 84
100 100 100 100 100 100 100 100 100 100 100 100 100 87 86 84 91 100 100 98 100 81 97 99 78 68 14 87 100 100 100 100 100 100 100 100 100 100 100 100 100 100 97 79
100 100 100 100 100 100 100 100 100 100 100 71 80 28 74 100 100 98 100 100 100 100 99 76 88 6 76 97 100 100 100 100 100 100 100 96 90 100 100 100 100 100 100 100
100 100 100 100 100 100 100 100 100 100 100 32 70 7 27 90 100 100 100 100 100 91 53 18 7 51 71 100 100 100 100 100 100 100 100 100 100 100 100 100 100 100 100 100
100 100 100 100 100 100 100 100 100 100 100 82 36 24 69 82 98 100 100 100 42 6 12 6 5 8 13 58 100 100 100 100 100 100 100 100 100 100 100 100 100 100 100 100
100 100 100 100 100 100 100 100 100 96 34 98 49 95 100 100 100 100 75 76 5 7 10 6 5 5 3 5 11 60 100 100 100 100 100 100 100 100 100 100 100 100 100 100

GFSNW_prec_cloud_096.txt.gz
Cloud_Cover
100 100 100 100 100 100 100 100 100 92 100 72 58 5 2 5 6 29 72 46 84 62 98 100 100 77 32 31 74 98 74 100 100 100 100 100 94 100 100 100 100 96 100 99
100 100 100 100 100 100 100 100 92 94 100 82 36 5 5 3 0 28 5 4 53 93 79 100 100 95 6 91 65 100 87 100 100 100 98 80 33 23 98 100 100 100 100 100
100 100 100 100 100 100 100 97 99 100 100 92 6 5 4 5 3 5 5 5 5 33 91 98 100 100 40 100 50 90 96 100 100 100 51 100 100 100 100 100 100 100 100 100
100 100 100 100 100 100 100 96 100 100 85 71 33 5 5 5 5 15 3 6 6 97 57 85 100 100 89 59 100 62 72 100 100 91 100 100 100 100 100 100 100 100 100 100
100 100 100 100 100 100 99 56 89 100 36 68 44 5 3 5 5 5 5 4 8 100 73 77 100 100 100 100 60 50 30 100 66 100 100 100 100 100 100 100 100 100 100 100
100 100 100 100 100 99 60 55 92 100 64 79 80 7 0 5 5 4 4 5 21 99 35 5 87 100 100 100 100 87 76 100 82 87 100 100 100 100 100 100 100 100 100 75
100 100 100 100 100 91 79 56 97 100 100 63 55 6 0 4 5 5 5 5 5 5 3 5 5 77 69 100 100 20 36 93 73 66 72 41 99 100 100 100 100 100 100 88
100 100 100 100 100 100 60 98 100 100 100 86 55 5 1 2 0 4 0 5 4 4 78 35 83 81 21 5 5 8 29 67 100 88 95 48 72 60 100 100 100 100 100 100
100 100 100 100 100 100 72 100 100 100 100 75 23 5 1 0 0 5 5 5 5 84 100 6 70 65 81 87 5 1 9 92 100 100 100 90 96 88 98 90 100 100 100 100
100 100 100 100 100 100 94 100 100 100 99 77 34 5 2 0 4 67 58 8 44 5 52 98 73 82 4 49 73 45 5 5 40 98 100 99 21 75 81 77 100 100 100 100
100 100 100 100 100 100 100 100 100 100 93 33 13 22 3 1 3 30 14 28 24 44 100 91 98 32 24 7 11 5 65 47 54 57 71 87 90 100 100 100 100 100 65 96
100 100 100 100 100 100 100 100 100 100 100 33 7 49 4 0 5 74 4 7 8 100 100 69 96 37 59 70 95 5 63 6 90 98 98 100 100 100 100 100 100 100 100 78
100 100 100 100 100 100 100 100 100 100 92 70 6 14 0 0 0 100 5 8 98 100 87 100 100 87 34 83 95 35 91 5 6 87 99 100 100 100 100 100 100 100 100 100
100 100 100 100 100 100 100 100 100 99 92 42 91 5 3 3 5 3 3 6 5 42 6 99 100 99 54 78 55 9 22 53 74 69 93 94 100 100 100 97 99 100 91 100
100 100 100 100 100 100 100 100 100 100 100 50 66 19 5 0 2 5 5 5 9 71 31 51 78 66 62 91 80 5 59 76 74 94 89 99 98 100 100 100 100 100 100 100
100 100 100 100 100 100 100 100 100 100 100 98 75 73 32 5 5 5 5 100 99 100 100 100 82 5 5 20 95 84 62 6 99 100 100 100 97 100 100 100 83 33 66 84
100 100 100 100 100 100 100 100 100 100 100 90 62 99 16 14 36 39 66 20 100 100 100 28 85 64 5 8 6 5 5 36 94 100 100 100 100 100 100 100 100 100 82 66
100 100 100 100 100 100 100 100 100 100 100 100 100 61 24 84 87 97 96 100 100 70 75 59 22 78 5 5 5 5 5 30 38 100 100 100 100 100 100 100 100 100 100 100
100 100 100 100 100 100 100 100 100 100 100 100 100 100 100 81 100 100 76 100 100 91 93 100 95 98 78 3 5 5 35 68 82 71 100 100 100 100 100 100 98 99 100 100
100 100 100 100 100 100 100 100 100 100 100 100 100 100 100 49 100 100 98 100 98 100 96 100 100 100 5 5 92 100 100 100 100 100 82 100 100 100 100 100 100 100 100 100
100 100 100 100 100 100 100 100 100 100 100 100 100 100 100 100 100 100 100 100 99 100 94 84 98 100 8 5 8 91 100 100 100 100 100 100 100 100 100 100 100 100 100 100
100 100 100 100 100 100 100 100 100 100 100 100 100 100 100 100 100 99 100 97 80 90 84 86 100 12 5 5 12 94 100 100 100 100 100 100 100 100 100 100 100 100 100 100
100 100 100 100 100 100 100 100 100 100 100 100 100 100 100 100 100 97 100 97 59 100 99 94 56 6 5 5 91 100 100 100 100 100 100 100 100 100 100 92 100 100 100 100
100 100 100 100 100 100 100 100 100 100 100 100 100 100 100 100 94 100 95 90 63 98 87 28 44 19 5 36 100 100 100 100 100 100 100 100 40 62 78 100 99 100 100 100
100 100 100 100 100 100 100 100 100 100 100 100 100 100 100 94 98 94 70 95 100 100 5 20 34 42 99 100 100 100 100 100 100 100 100 100 100 88 100 100 100 100 100 100
100 100 100 100 100 100 100 100 100 100 100 100 100 100 100 70 86 98 98 84 45 39 78 68 14 12 28 45 95 100 100 100 100 100 100 100 96 79 100 100 100 100 100 100
100 100 100 100 100 100 100 100 100 100 100 100 100 61 40 93 97 85 96 36 84 100 100 84 38 5 5 5 5 5 16 88 100 100 100 100 98 98 100 100 100 100 100 100

GFSNW_prec_cloud_099.txt.gz
Cloud_Cover
100 100 100 100 100 100 100 100 100 100 64 97 30 43 5 3 0 3 5 5 53 36 70 100 100 94 7 5 5 47 75 90 100 100 100 100 100 98 78 42 23 41 5 93
100 100 100 100 100 100 100 100 100 100 21 57 62 100 5 2 0 0 4 5 5 76 76 100 100 88 13 85 74 92 42 82 86 45 48 72 91 27 100 96 95 99 67 68
100 100 100 100 100 100 100 100 100 98 92 24 100 73 7 0 0 0 1 4 5 53 99 69 81 93 65 60 93 54 100 100 85 66 61 89 100 100 100 100 100 100 100 100
100 100 100 100 93 100 100 100 100 91 66 83 100 44 5 0 0 0 0 5 10 83 56 100 100 100 96 91 98 82 99 97 93 98 100 100 100 100 100 100 100 100 100 96
100 100 100 100 100 100 100 100 100 64 96 100 100 31 5 0 0 0 3 3 65 95 50 55 100 100 100 86 69 37 6 83 35 74 100 100 89 100 100 79 99 100 100 97
100 100 100 100 100 100 99 72 95 98 100 100 100 6 6 0 0 0 4 0 6 63 5 6 94 100 100 100 96 77 95 75 62 99 89 98 100 100 100 100 100 100 100 100
100 100 100 100 100 100 95 100 91 100 100 100 99 34 5 0 0 0 0 0 4 2 5 5 5 14 66 100 95 18 43 44 11 40 100 93 100 100 100 100 100 100 100 100
100 100 100 100 100 100 94 100 100 100 100 100 100 69 5 4 0 0 0 0 0 3 52 15 15 19 5 5 5 5 5 46 80 5 90 100 100 100 100 100 100 100 100 100
100 100 100 100 100 100 78 100 100 100 100 100 41 59 5 5 0 0 3 2 5 28 100 19 23 12 7 5 5 1 2 5 20 78 68 65 36 70 100 100 100 100 100 100
100 100 100 100 100 95 100 100 100 100 100 98 52 58 22 5 1 0 0 5 5 5 95 91 64 84 5 24 10 5 5 5 5 8 92 100 25 61 99 100 100 100 100 100
100 100 100 100 100 100 100 100 100 100 100 76 28 48 28 5 2 3 0 4 31 14 24 96 95 29 19 6 94 54 5 5 9 6 92 99 100 100 99 93 100 65 83 96
100 100 100 100 100 100 100 100 100 100 100 69 35 10 5 5 2 0 1 5 8 88 59 55 94 39 73 71 100 90 60 72 93 36 91 100 80 83 100 100 100 90 96 52
100 100 100 100 100 100 100 100 100 94 100 99 5 5 5 5 4 0 0 5 12 23 51 95 71 82 77 74 100 100 86 46 71 88 44 100 100 100 100 100 100 100 100 100
100 100 100 100 100 100 100 100 100 52 100 100 32 5 5 5 5 3 2 4 5 32 6 96 100 90 45 88 23 5 77 85 74 43 7 23 100 100 100 100 100 100 100 100
100 100 100 100 100 100 100 100 100 54 100 100 21 13 5 5 5 5 5 12 15 14 5 5 80 82 30 93 100 5 13 18 76 64 66 87 95 99 100 100 100 100 100 100
100 100 100 100 100 100 100 100 100 76 100 100 78 23 7 5 5 5 5 61 98 97 5 51 80 7 5 10 98 60 77 49 17 93 99 82 100 100 100 100 100 100 100 100
100 100 100 100 100 100 100 100 100 99 100 92 64 98 68 8 13 42 76 64 99 100 49 19 57 18 2 5 5 5 10 5 5 53 47 78 98 100 100 98 96 100 100 100
100 100 100 100 100 100 100 100 100 100 100 100 86 20 40 14 98 100 100 100 99 84 82 46 5 23 5 5 2 5 5 5 4 5 5 13 100 100 100 100 100 100 100 100
100 100 100 100 100 100 96 100 100 100 100 100 28 94 75 39 99 100 87 100 100 100 61 68 69 35 42 4 0 0 1 26 70 95 69 30 14 100 100 100 100 100 100 100
100 100 100 100 100 100 100 100 100 100 100 98 82 100 15 36 100 100 72 97 100 100 49 98 100 36 5 4 3 2 27 100 100 100 100 100 93 52 100 100 100 100 100 100
100 100 100 100 100 100 100 100 100 100 100 100 100 100 100 100 85 98 86 96 100 99 97 78 92 43 5 5 5 5 34 100 100 100 100 100 100 100 100 100 100 100 100 100
100 100 100 100 100 100 100 100 100 100 100 100 100 100 100 100 100 99 95 88 93 76 77 96 73 1 4 5 5 5 45 100 100 100 100 100 100 100 100 100 100 100 100 100
100 100 100 100 100 98 100 100 100 100 100 100 100 100 100 100 100 89 100 100 47 75 100 84 5 4 5 5 5 29 93 100 100 100 100 100 100 100 99 90 94 100 98 100
100 100 100 100 100 100 100 100 100 100 100 100 100 100 100 100 100 100 100 84 99 95 86 5 6 5 5 5 16 100 88 100 100 100 100 100 100 64 35 33 52 88 100 100
100 100 100 100 100 100 100 100 100 100 100 100 100 100 100 100 100 71 94 100 88 12 5 5 18 8 8 72 94 100 100 100 100 100 100 100 100 100 100 93 37 29 98 100
100 100 100 100 100 100 100 100 100 100 100 100 100 100 100 100 100 100 100 100 9 5 5 21 56 96 96 65 69 98 97 100 100 100 100 100 100 99 100 99 73 78 78 100
100 100 100 100 100 100 100 100 100 100 100 100 100 100 100 100 100 100 100 26 5 73 99 37 5 39 52 7 53 9 43 8 27 80 100 100 100 100 100 100 98 100 84 100

GFSNW_prec_cloud_102.txt.gz
Cloud_Cover
100 100 100 100 100 100 100 100 100 100 31 5 32 5 5 3 0 5 3 5 60 63 100 100 84 42 5 6 75 86 63 98 100 100 63 100 100 95 22 6 6 65 9 11
100 100 100 100 100 100 100 100 100 93 9 22 15 5 5 0 0 0 0 5 5 87 100 67 100 74 43 5 33 44 94 100 89 100 79 87 74 21 37 5 5 69 11 3
100 100 100 100 100 100 100 100 100 52 62 21 20 5 5 3 0 0 0 3 6 66 63 10 5 93 85 37 54 48 96 100 89 96 100 100 98 100 60 5 6 40 36 4
100 100 100 100 100 100 100 100 100 83 52 48 30 8 5 4 0 0 0 3 43 37 80 51 13 33 96 43 80 72 90 89 100 98 79 100 12 86 88 95 100 45 68 55
100 100 100 100 100 100 100 100 100 6 60 49 9 20 13 3 0 0 0 0 73 56 48 50 100 69 98 72 10 8 23 62 84 100 100 85 100 38 100 96 100 100 96 100
100 100 100 100 100 100 100 95 100 44 70 43 51 85 30 3 0 0 0 0 5 5 5 23 97 100 100 98 100 100 100 29 96 98 100 100 99 100 40 67 93 100 91 100
100 100 100 100 100 100 100 92 100 77 100 96 100 100 36 5 0 0 0 0 2 4 5 5 5 22 83 99 89 37 36 5 50 64 100 91 93 100 81 74 100 98 100 100
100 100 100 100 100 100 98 85 100 100 100 100 100 88 22 5 3 0 0 0 0 0 9 30 94 66 39 5 5 5 5 9 15 66 93 50 72 100 100 100 100 100 100 100
100 100 100 100 100 100 95 100 100 100 100 100 100 98 42 5 5 0 0 2 5 10 100 29 5 11 5 5 5 5 5 5 5 6 8 55 100 100 100 100 100 100 100 100
100 100 100 100 100 100 100 100 100 100 100 100 100 98 12 5 5 2 0 5 5 5 6 5 40 95 5 5 5 5 5 5 5 11 36 39 27 100 100 100 100 100 100 100
100 100 100 100 100 100 68 97 92 100 100 100 98 99 32 5 5 2 0 5 5 19 5 18 83 20 12 5 29 12 5 5 8 5 5 46 11 80 85 71 95 100 100 100
100 100 100 100 100 100 100 100 100 100 100 100 100 77 57 5 5 0 0 5 5 37 18 5 37 34 63 5 96 5 42 17 35 44 30 5 74 19 94 90 90 76 100 97
100 100 100 100 100 100 100 100 100 100 100 100 68 100 9 5 5 0 3 5 15 90 43 7 48 53 86 72 62 37 5 64 79 12 5 27 43 99 92 100 100 100 100 100
100 100 100 100 100 100 100 100 100 100 100 60 100 99 5 14 4 0 0 0 6 35 99 25 49 39 42 77 7 13 17 65 5 5 5 17 68 68 97 100 100 100 100 100
100 100 100 100 100 100 100 100 100 100 100 10 76 100 5 48 5 4 0 0 0 5 61 65 5 44 23 92 95 72 5 6 40 94 28 8 84 85 81 95 99 100 100 100
100 100 100 100 100 100 100 100 100 100 100 12 86 100 10 6 15 4 0 4 5 5 9 100 5 5 5 5 54 5 58 30 6 39 8 63 79 96 100 100 97 100 100 100
100 100 100 100 100 100 100 100 100 100 100 96 29 100 16 47 15 78 61 20 13 9 15 73 8 5 5 5 5 5 5 34 19 5 8 12 5 6 74 93 66 100 100 100
100 100 100 100 100 100 100 100 100 100 100 99 64 100 37 87 97 100 100 100 65 6 32 94 5 5 5 5 3 3 5 4 4 0 7 22 5 5 5 10 69 92 99 100
100 100 100 100 100 100 100 100 89 98 100 100 100 100 48 96 93 90 99 97 20 44 16 50 7 5 5 2 0 0 5 3 5 5 93 84 20 26 93 95 77 73 76 100
100 100 100 100 100 99 100 74 69 100 100 100 100 100 100 70 75 100 66 75 58 72 54 37 39 6 5 0 0 0 1 5 91 100 89 81 100 99 91 100 100 100 100 100
100 100 100 100 100 100 82 86 86 99 100 100 100 100 99 59 63 91 58 72 92 82 47 83 52 16 5 0 3 24 57 8 90 100 100 100 100 100 100 100 100 100 100 100
100 100 100 100 100 88 100 100 100 100 100 100 100 100 100 45 28 97 74 58 86 100 69 100 77 7 4 0 3 78 36 5 84 99 100 100 100 100 100 100 100 100 100 100
100 100 100 100 96 97 92 100 100 100 100 100 100 100 98 31 42 69 99 91 83 100 100 79 95 5 2 1 5 5 8 72 100 100 100 100 100 100 100 96 100 99 100 100
100 100 100 100 98 100 100 100 100 100 100 100 100 100 100 100 100 93 11 75 100 99 88 51 44 27 5 5 5 5 33 100 100 100 100 100 100 100 78 38 62 79 94 86
100 100 100 100 100 100 100 100 100 100 100 100 100 100 100 100 99 40 44 91 100 56 100 44 5 5 5 5 5 85 92 100 100 100 100 100 100 100 100 100 55 33 78 100
100 100 100 100 100 100 100 100 100 100 100 100 100 100 100 100 100 82 62 100 71 62 41 8 54 26 5 5 6 8 5 86 100 100 100 100 100 100 92 98 69 90 97 61
100 100 100 100 100 100 100 100 100 100 100 100 100 100 100 100 100 43 90 100 23 27 70 99 29 86 87 5 5 5 5 5 9 82 86 100 100 100 100 93 77 63 82 53

GFSNW_prec_cloud_108.txt.gz
Cloud_Cover
67 24 100 100 100 100 100 100 100 100 100 100 100 100 57 5 5 5 3 5 5 90 60 7 5 58 40 6 93 36 24 31 100 100 100 100 100 100 100 100 100 100 100 100
98 99 100 100 100 100 100 100 100 100 100 100 100 90 53 5 5 4 3 5 5 88 57 5 5 25 29 18 15 79 84 29 99 99 100 85 100 97 100 100 100 100 100 100
100 100 100 100 100 100 100 100 100 100 100 100 100 90 19 5 5 0 0 3 5 59 93 5 5 64 74 41 14 99 87 100 93 100 100 98 98 100 100 87 100 100 100 100
100 100 100 98 100 100 100 100 100 100 100 100 98 75 5 5 2 0 0 5 5 5 18 5 5 37 90 91 65 100 70 98 100 100 100 63 93 13 17 20 100 100 100 100
100 100 100 100 100 100 100 100 100 100 100 100 100 51 5 5 0 0 0 3 5 5 5 5 5 5 62 10 74 100 78 53 9 22 48 46 79 77 45 26 5 37 100 100
100 100 100 100 100 100 100 100 100 100 100 100 99 85 40 5 2 0 0 2 5 5 5 5 4 5 5 8 100 100 89 7 5 5 5 5 12 8 6 75 33 6 81 93
100 100 100 100 100 100 100 100 100 100 92 100 100 95 67 48 5 0 0 5 5 5 5 5 19 76 88 48 85 75 31 5 5 5 11 40 14 67 11 76 88 24 60 72
100 100 100 100 100 100 100 100 100 99 100 100 87 100 100 15 3 0 0 4 0 5 6 39 87 42 5 6 7 5 5 5 5 5 5 5 18 77 90 96 29 73 100 80
100 100 100 100 100 100 100 100 98 96 100 90 99 100 88 13 5 0 0 0 0 5 84 75 7 5 5 5 5 5 11 6 5 5 5 8 49 6 98 92 91 80 81 70
100 100 100 100 100 100 100 99 54 100 100 100 100 100 54 26 5 3 0 5 5 5 8 5 5 5 5 5 5 5 5 5 5 5 8 5 5 5 67 5 5 9 97 87
100 100 100 100 100 100 100 100 100 100 94 100 100 91 18 33 5 5 1 5 5 8 4 5 9 5 5 5 5 5 5 5 5 5 5 22 5 5 5 12 40 7 5 99
100 100 100 100 100 100 100 100 100 100 97 70 100 100 35 53 5 1 5 3 5 4 5 5 5 5 35 5 5 5 5 5 5 54 4 5 5 5 5 5 5 5 5 5
100 100 100 100 100 100 100 100 100 99 92 64 96 86 45 52 5 1 5 2 1 0 0 5 5 4 5 14 5 5 5 5 5 45 21 5 5 5 5 5 5 5 5 5
100 100 100 100 100 100 100 100 100 100 100 97 90 40 34 56 5 5 5 0 0 0 0 5 5 5 5 5 5 5 5 5 5 11 5 5 5 5 5 5 5 5 5 5
100 100 100 100 100 100 100 100 100 100 100 94 89 90 48 8 60 6 5 0 0 5 5 5 5 5 5 5 5 5 4 5 5 52 5 5 5 5 5 5 5 5 5 6
100 100 100 100 100 100 100 100 100 100 100 100 84 68 64 57 6 23 5 5 0 2 5 3 5 5 4 5 5 3 1 2 4 45 5 11 5 5 5 5 5 5 5 6
100 100 100 100 100 100 100 100 100 100 100 100 44 44 45 25 5 5 5 5 5 2 5 5 5 5 5 5 5 3 0 4 5 5 5 56 6 5 5 5 5 4 5 5
100 100 100 100 100 100 100 100 100 100 100 95 94 89 76 47 19 28 6 5 5 5 5 5 5 5 5 18 5 0 0 4 4 5 5 8 5 55 8 5 5 5 5 7
100 100 100 100 100 100 100 100 100 100 100 100 100 100 91 57 41 35 25 5 9 8 5 5 5 5 6 1 1 2 0 0 1 3 5 5 5 5 7 10 5 5 5 92
100 100 100 100 100 100 100 100 100 100 100 100 100 100 100 87 80 12 34 61 27 6 5 5 9 6 1 0 1 5 2 5 0 5 5 5 74 74 88 100 100 99 36 73
100 100 100 100 100 100 100 100 100 100 100 100 100 100 89 100 96 51 50 79 77 20 5 6 15 52 5 2 5 0 0 4 4 3 5 8 31 93 100 100 100 100 100 100
100 100 100 100 100 100 100 100 100 100 100 100 100 97 95 96 68 25 45 84 78 52 9 59 47 21 5 1 1 5 1 0 0 5 5 5 65 100 100 100 100 100 100 100
100 100 100 100 100 100 100 100 100 100 100 100 100 95 100 98 80 25 9 74 80 72 95 34 5 13 19 5 0 15 5 4 5 5 5 6 96 100 100 100 100 100 100 86
100 100 100 100 100 100 100 100 100 81 75 100 100 100 100 100 100 40 5 44 97 86 86 30 5 5 7 5 5 5 23 5 5 5 5 20 98 100 100 100 100 90 87 98
100 100 100 100 100 100 100 100 100 100 100 100 100 100 100 100 98 98 84 100 98 94 56 5 5 5 18 12 5 5 5 5 5 5 5 46 100 100 100 100 100 96 96 100
100 100 100 100 100 100 100 100 100 100 100 100 100 100 100 100 100 100 96 72 60 96 14 16 58 21 6 5 5 5 5 5 5 5 5 8 90 100 100 100 100 100 95 95
100 100 100 100 100 100 100 100 100 100 100 100 100 100 100 100 100 100 100 78 40 37 6 30 83 5 27 5 5 5 5 5 5 5 5 5 5 99 100 100 100 100 92 100

GFSNW_prec_cloud_111.txt.gz
Cloud_Cover
60 93 84 8 100 100 100 100 100 100 100 100 100 100 100 99 5 5 2 5 5 5 10 5 41 46 83 88 100 51 86 17 97 97 94 100 100 100 100 100 100 99 100 100
27 76 3 15 100 100 100 100 100 100 100 100 100 100 100 11 5 5 0 5 5 5 5 5 5 65 72 84 87 76 19 51 95 96 100 100 100 85 100 100 100 100 100 100
100 99 97 53 94 100 100 100 100 100 100 100 100 100 68 5 4 0 0 4 5 5 5 5 5 56 57 88 80 100 94 35 46 86 64 100 93 100 100 100 100 100 100 100
100 100 63 88 100 100 100 100 100 100 100 100 100 99 5 5 0 0 0 5 5 5 30 5 5 26 5 84 100 60 16 99 81 89 82 100 100 91 100 100 100 100 100 100
100 100 100 100 100 100 100 100 100 100 100 100 100 33 5 5 0 0 0 3 5 5 5 5 5 5 5 10 26 5 5 55 95 100 73 5 6 66 5 100 100 82 100 49
100 100 100 100 100 100 100 100 100 100 100 100 92 14 5 2 0 0 0 1 5 5 5 4 2 5 5 5 5 5 5 5 5 9 9 5 10 7 26 18 94 100 64 94
100 100 100 100 100 100 100 100 100 100 100 100 98 21 4 0 0 0 2 5 5 5 5 5 5 5 5 39 35 14 5 5 5 5 2 10 23 74 84 100 77 17 95 76
100 100 100 100 100 100 100 100 100 100 100 100 95 44 5 3 0 0 5 5 2 5 5 8 42 12 13 15 5 5 5 5 5 5 5 5 5 62 100 97 72 35 99 94
100 100 100 100 100 100 100 100 100 100 100 100 100 40 5 4 5 3 1 0 5 5 61 10 7 5 5 5 5 5 36 5 5 5 5 5 5 5 32 6 81 62 5 5
100 100 100 100 100 100 100 100 100 100 100 100 73 13 5 0 1 3 2 4 5 5 11 5 6 5 5 7 5 5 5 5 5 5 5 5 5 4 5 3 46 54 7 5
100 100 100 100 100 100 100 100 100 95 98 63 91 52 5 5 3 2 2 5 5 10 5 5 17 5 5 5 5 5 5 6 5 5 5 5 5 5 2 4 18 5 5 5
100 100 100 100 100 100 100 100 97 66 92 31 69 95 39 5 0 2 4 2 4 4 5 5 5 5 37 5 5 4 4 2 4 6 5 4 4 5 5 5 5 5 3 1
100 100 100 100 100 100 100 100 100 98 75 87 100 52 34 5 4 3 5 5 0 0 0 5 5 4 5 26 5 5 4 4 5 5 5 5 4 0 5 5 1 7 5 5
100 100 100 100 100 100 100 100 100 91 84 94 93 38 7 5 5 5 0 0 0 0 0 5 5 5 5 5 5 5 5 5 5 5 3 48 5 4 3 5 5 5 5 80
100 100 100 100 100 100 100 100 100 97 99 100 100 68 9 5 5 5 0 5 5 5 5 5 5 5 5 5 5 5 4 4 5 5 5 5 23 5 5 5 5 5 5 5
100 100 100 100 100 100 100 100 100 100 100 89 86 100 79 55 19 5 5 5 5 5 5 4 5 5 4 5 5 0 1 1 1 5 5 4 20 11 30 5 5 8 5 5
100 100 100 100 100 100 100 100 100 100 77 100 100 100 100 85 37 5 5 5 5 5 5 5 5 5 5 5 5 0 0 0 1 2 4 5 5 78 8 6 5 6 11 14
100 100 100 100 100 100 100 100 100 100 90 99 95 88 99 77 54 7 5 5 5 6 5 5 5 5 5 13 5 0 0 0 2 1 5 5 5 6 41 33 26 7 18 5
100 100 100 100 100 100 100 100 100 100 100 100 52 75 80 84 48 56 27 10 8 15 5 5 5 5 5 0 1 4 0 3 1 4 5 48 7 5 73 20 47 60 5 48
100 98 94 100 100 100 100 100 100 100 64 17 100 51 75 54 62 81 50 28 76 61 8 5 27 7 0 1 0 0 0 5 0 5 8 79 5 49 21 82 84 100 99 57
100 99 98 100 100 100 100 100 100 100 100 100 100 84 90 91 86 99 86 73 61 53 32 6 16 29 5 5 3 0 0 1 5 5 5 5 15 5 14 92 100 100 100 100
100 100 100 100 100 100 100 100 100 100 100 100 100 100 100 100 87 98 81 86 56 44 39 66 53 5 5 5 5 0 0 0 5 5 8 5 62 6 26 97 100 100 100 100
100 100 100 99 100 100 100 100 100 100 100 100 100 100 100 100 98 100 100 100 68 39 89 34 5 5 6 5 5 15 0 0 5 4 14 6 33 44 87 88 100 100 100 100
100 100 88 56 87 100 100 100 100 100 100 100 100 100 100 100 100 97 100 100 95 100 81 5 16 13 75 8 5 17 24 0 18 5 7 38 55 22 97 96 100 100 99 100
100 100 74 100 100 100 100 100 100 100 100 100 100 100 93 100 100 100 100 100 100 100 74 39 72 68 39 14 8 5 8 5 7 5 18 22 70 89 23 100 100 100 95 85
100 92 95 100 100 100 100 100 100 100 100 100 100 100 100 100 100 100 100 99 100 66 19 14 60 25 11 5 5 5 5 5 8 5 11 8 83 98 100 62 85 100 100 98
100 100 100 100 100 100 100 100 100 100 100 100 100 100 100 100 100 97 42 99 100 100 25 34 59 8 5 5 5 5 5 38 6 5 5 63 69 100 96 95 100 90 90 100

GFSNW_prec_cloud_114.txt.gz
Cloud_Cover
100 100 88 66 62 98 94 100 100 100 100 100 100 100 100 100 99 6 2 5 5 5 5 5 13 43 52 100 89 100 96 100 100 99 100 98 100 100 94 97 98 78 100 100
100 100 43 56 100 100 100 100 100 100 100 100 100 100 100 100 74 5 4 5 5 5 5 4 5 62 48 100 82 69 88 98 100 100 100 66 100 100 100 100 100 100 100 100
100 85 32 13 100 100 100 100 100 100 100 100 100 100 100 97 2 5 0 4 5 5 5 5 5 14 70 100 17 60 17 100 100 100 100 99 100 97 100 100 100 100 100 100
70 59 5 5 100 100 100 100 100 100 100 100 100 100 50 21 1 0 0 3 5 4 5 5 5 5 32 100 76 5 8 70 100 100 100 93 100 75 100 100 92 100 100 100
61 48 7 9 94 97 100 100 100 100 100 100 100 30 20 0 0 0 0 3 5 5 5 2 5 5 5 5 26 5 5 20 10 65 97 100 100 69 24 99 99 100 57 100
100 100 99 66 68 100 100 100 100 100 100 100 79 5 4 0 0 0 0 3 5 5 5 2 0 5 5 5 5 5 5 12 5 20 5 5 19 100 80 13 49 92 53 22
85 100 100 100 100 100 100 100 100 100 100 86 42 5 2 0 0 0 1 4 5 5 5 3 4 5 5 5 5 5 5 5 5 4 0 17 89 82 99 79 68 71 100 5
100 100 100 98 100 100 100 100 100 100 100 67 6 5 0 0 0 4 5 5 1 5 5 6 8 5 5 5 5 5 5 5 4 5 5 10 5 45 94 57 48 73 98 62
100 100 100 100 100 100 98 100 100 100 78 50 5 1 0 0 4 5 5 5 5 5 7 5 5 5 5 5 5 5 4 4 4 4 4 5 5 5 5 7 82 5 5 5
100 51 85 100 93 100 100 100 100 100 39 42 4 0 0 0 0 2 4 5 5 5 6 5 5 5 5 5 5 5 2 2 5 5 4 4 0 0 3 4 59 12 5 5
100 100 98 100 100 100 100 100 100 100 14 31 5 4 0 0 0 0 2 1 3 5 6 5 5 5 5 5 5 5 4 2 2 5 5 4 0 1 2 2 5 5 5 5
100 100 100 100 100 100 100 100 100 100 61 24 5 5 0 0 0 1 0 1 1 1 2 2 5 5 5 5 0 0 3 0 4 2 3 0 0 2 3 5 5 4 0 0
100 100 100 100 100 100 100 100 100 100 41 69 38 5 2 0 0 0 0 0 0 0 0 1 3 0 3 2 0 3 0 0 3 1 0 5 5 5 2 0 0 0 0 0
80 100 100 100 100 100 100 100 100 100 100 74 9 6 5 3 0 5 2 0 0 0 0 0 0 1 4 1 4 5 1 2 0 0 2 5 5 7 2 3 0 0 0 0
94 60 96 94 100 100 100 100 73 95 96 70 40 23 5 5 3 0 5 5 4 0 0 0 1 5 5 5 5 5 5 4 3 5 13 5 5 5 60 26 4 5 4 1
100 34 28 100 100 100 100 100 87 100 100 93 60 59 63 53 5 5 5 5 5 5 5 5 5 5 5 3 0 1 5 5 5 5 28 5 5 5 5 5 42 6 38 5
96 100 66 100 100 100 100 100 100 100 100 99 85 35 12 44 5 5 5 5 5 5 5 5 5 5 5 5 0 5 5 5 5 40 9 10 24 5 5 17 18 44 30 18
91 94 100 100 100 100 100 100 100 99 100 100 77 79 39 24 33 6 5 5 5 5 5 5 5 5 5 5 5 5 2 5 5 6 16 5 16 8 12 47 8 24 46 5
100 100 100 100 100 100 100 100 100 100 100 100 100 100 80 35 56 50 46 23 5 5 33 20 5 5 5 5 4 5 5 4 5 71 46 10 58 42 8 7 53 22 60 39
100 100 96 100 100 100 100 100 100 98 100 88 100 100 100 71 64 22 43 47 42 5 46 42 67 14 5 5 5 5 5 5 5 15 9 67 38 54 20 99 12 40 26 76
100 100 99 100 100 100 100 100 64 95 100 100 100 99 67 73 55 37 16 58 62 34 33 54 28 46 23 5 5 5 5 5 5 21 6 86 60 90 92 78 42 100 93 100
91 100 100 100 100 100 100 100 100 99 100 100 100 81 56 61 62 88 38 46 53 84 79 31 11 6 7 5 5 23 5 5 5 32 8 33 28 86 68 99 44 100 100 100
96 100 100 100 95 98 100 100 100 99 100 81 40 22 66 100 100 100 77 80 100 75 99 36 10 5 18 14 30 86 25 19 6 71 5 13 37 95 98 98 61 100 74 100
100 100 100 100 70 93 100 100 100 100 100 100 100 100 100 99 100 100 80 100 100 100 100 96 14 8 33 36 54 81 39 94 10 5 5 5 67 56 96 92 80 98 92 100
100 100 62 100 100 100 100 100 100 100 100 100 100 100 98 100 100 100 98 100 100 100 99 68 45 59 8 41 8 5 5 31 5 5 5 9 65 12 81 99 100 98 100 100
100 100 94 100 100 100 100 97 100 100 100 100 100 100 100 89 82 100 70 12 54 56 63 92 100 100 32 5 5 5 5 36 5 5 5 10 63 8 20 99 100 26 100 100
100 95 100 100 100 100 100 100 100 100 100 100 100 100 100 86 100 100 55 62 66 83 100 100 100 100 42 5 5 5 69 16 6 5 5 5 60 5 19 81 100 37 94 68

GFSNW_prec_cloud_117.txt.gz
Cloud_Cover
100 100 100 100 100 74 100 100 100 100 100 100 100 92 99 100 92 4 5 5 15 79 38 5 6 36 13 100 97 100 100 98 100 97 100 100 100 100 100 100 100 100 100 100
100 99 100 93 66 100 100 100 100 100 100 100 90 99 48 5 3 5 5 9 21 8 5 21 5 23 8 93 100 100 100 100 100 95 100 100 100 94 92 100 100 100 100 100
48 87 99 98 100 100 100 100 100 100 100 100 99 47 5 5 0 5 2 5 5 5 5 5 14 42 5 91 57 26 100 100 100 100 100 100 100 96 100 100 98 100 100 100
5 32 95 100 100 100 100 100 100 100 100 100 27 5 5 0 0 3 2 5 22 11 5 5 5 5 14 5 5 78 100 100 100 100 100 100 100 93 100 100 100 100 100 100
5 16 75 63 77 97 100 94 87 98 100 63 5 3 0 0 0 1 3 7 10 5 5 5 5 5 5 10 44 19 8 91 47 100 100 96 96 100 100 100 100 100 94 100
5 43 57 8 54 78 100 92 99 100 69 54 14 2 0 0 0 0 2 5 5 5 5 4 4 5 5 5 9 19 42 65 92 31 5 8 62 94 100 71 82 100 72 90
5 22 5 7 89 21 100 87 100 99 4 5 3 0 0 0 0 3 0 5 20 5 0 0 2 5 5 30 6 5 5 5 17 49 1 58 77 85 86 71 76 96 22 21
20 5 5 17 18 98 100 80 64 7 0 1 4 0 0 0 0 5 5 3 3 2 6 78 60 48 49 12 3 3 5 5 38 76 28 8 5 54 94 89 44 71 97 5
52 5 5 99 70 81 49 93 5 5 0 0 0 0 0 0 2 5 5 0 0 5 32 5 11 15 5 5 5 0 2 0 34 5 21 80 5 5 5 48 88 88 100 100
48 13 95 99 100 76 45 7 6 0 0 3 0 0 0 0 1 5 5 5 5 5 5 5 5 6 3 13 5 5 0 0 50 5 25 10 2 4 5 70 76 12 30 49
35 42 5 5 82 13 6 33 5 0 5 5 3 0 0 0 0 2 4 1 3 6 5 5 5 5 4 3 2 5 4 4 4 0 5 45 0 3 40 15 23 5 4 0
34 73 12 58 6 5 15 7 5 1 5 5 1 0 0 0 0 0 2 1 3 5 3 1 1 4 4 0 2 0 3 3 5 5 5 2 0 1 2 12 25 5 0 0
92 64 50 88 40 7 35 5 8 5 5 4 4 1 0 0 0 0 0 0 1 0 0 3 1 1 0 4 5 5 16 5 5 5 47 5 7 4 0 0 0 0 0 0
100 99 5 5 95 96 12 5 26 37 5 4 4 0 0 1 5 1 0 0 0 0 0 0 1 2 0 5 5 5 13 6 8 5 62 82 12 1 14 4 0 0 0 0
92 47 52 10 69 100 52 45 63 50 5 5 5 5 3 5 5 5 5 4 4 5 5 5 5 5 5 5 5 4 3 56 81 40 5 5 15 39 5 5 4 1 0 0
100 100 73 85 9 100 71 100 94 81 6 5 5 26 5 5 5 5 5 5 5 5 5 5 5 5 5 5 5 3 0 5 63 31 57 16 37 10 5 7 5 1 0 0
99 95 100 100 79 52 100 74 99 95 54 22 5 12 5 5 5 5 5 5 5 5 5 5 6 5 5 5 5 5 5 5 52 38 76 91 59 54 94 5 58 23 5 4
100 100 96 100 98 40 100 99 88 99 60 73 9 38 25 5 5 5 5 5 5 5 5 5 5 5 5 5 5 5 5 9 8 35 17 68 87 92 86 100 5 36 11 9
100 100 100 100 99 100 77 100 86 100 100 62 52 81 99 22 8 14 5 5 5 5 5 5 5 5 5 5 5 3 5 5 5 27 14 21 20 62 24 97 100 92 21 8
87 100 100 100 100 100 100 98 69 69 100 100 100 100 100 49 66 62 37 31 27 13 10 14 14 15 5 5 5 5 5 5 5 43 62 19 18 34 5 60 96 74 38 68
97 100 100 100 100 94 100 90 5 80 60 100 100 100 100 91 82 15 6 22 12 55 62 9 5 16 59 38 33 36 19 10 11 89 99 5 18 30 6 17 49 99 88 34
100 99 100 100 100 94 67 100 73 57 86 100 91 97 100 91 46 5 7 12 33 63 23 42 24 5 11 35 59 76 47 33 60 43 34 5 6 53 52 81 52 100 99 76
100 100 100 100 100 100 68 100 100 93 100 100 100 100 100 61 20 24 10 24 29 43 45 46 31 35 37 34 39 78 75 57 28 16 9 5 5 9 28 62 58 90 51 65
100 100 100 96 100 100 100 100 100 100 100 100 100 100 67 58 31 48 63 100 72 73 23 19 47 5 26 38 46 64 62 64 10 5 8 5 5 23 18 5 57 86 60 53
100 100 86 58 100 100 100 100 100 100 100 100 95 63 28 17 48 36 58 59 87 100 41 6 5 5 84 100 99 34 5 5 5 5 5 28 10 14 8 5 5 15 40 79
100 100 100 98 100 100 100 100 100 100 100 99 89 57 54 73 100 100 93 95 100 37 52 5 12 85 100 100 100 47 22 24 29 29 6 23 48 6 5 5 5 20 73 59
100 100 100 100 100 100 100 100 100 100 100 100 89 100 71 100 94 100 100 100 30 95 100 36 81 100 100 100 100 77 58 57 70 5 5 13 45 5 5 5 5 13 92 56

GFSNW_prec_cloud_120.txt.gz
Cloud_Cover
5 20 26 27 100 98 100 100 100 100 100 95 98 51 100 94 3 2 5 6 5 5 5 5 7 33 50 100 100 89 100 100 100 100 100 100 100 100 100 100 100 100 100 100
5 5 38 14 69 100 100 100 100 100 92 76 78 97 72 7 11 46 4 5 5 4 5 7 5 7 56 98 94 87 83 77 98 100 100 100 80 100 100 100 100 100 100 100
5 5 12 98 100 100 91 100 100 100 100 77 97 7 0 3 2 32 4 4 5 5 5 2 4 51 40 10 60 65 100 100 97 100 100 100 100 100 100 100 100 100 100 100
5 5 32 23 64 91 27 95 75 92 100 100 54 3 1 5 1 5 0 2 5 5 5 5 5 2 6 5 78 100 100 100 100 100 100 99 100 94 100 100 100 100 100 100
5 5 5 49 66 98 8 100 73 86 86 62 5 0 0 2 0 3 0 5 5 0 5 5 5 1 5 5 79 97 100 100 100 100 100 88 55 89 100 100 100 100 100 100
5 5 5 5 5 8 33 96 97 99 63 9 5 5 0 0 0 0 0 5 5 5 5 2 1 0 1 5 5 12 5 19 72 11 4 18 57 97 95 91 94 83 51 98
5 5 5 5 5 28 44 95 38 8 5 5 4 1 0 0 0 0 0 5 46 5 0 0 0 5 4 5 5 3 5 5 3 4 6 39 79 100 100 100 100 100 100 100
5 5 5 1 5 25 5 5 5 4 0 5 5 0 0 0 2 4 3 0 1 0 5 12 36 5 5 4 0 0 0 2 5 5 1 7 6 28 78 98 28 80 100 100
5 5 5 5 6 19 5 4 0 0 0 0 0 0 0 0 0 3 5 0 0 4 5 5 30 47 5 5 2 0 0 0 5 4 5 67 6 14 44 26 100 6 81 11
2 3 4 5 5 5 4 0 0 0 0 0 0 0 0 0 2 2 2 0 0 0 5 5 5 6 0 26 5 0 0 0 5 4 4 1 0 3 36 62 92 5 5 4
0 0 1 5 23 3 0 0 0 0 0 2 0 0 0 0 0 4 0 0 2 4 5 8 4 5 1 0 0 0 2 2 1 0 2 3 0 0 3 36 16 0 0 0
3 0 0 5 55 0 0 0 0 0 0 2 0 0 0 0 0 0 0 0 3 5 5 2 0 4 0 0 5 5 5 4 3 0 0 0 0 0 0 8 5 3 0 0
10 6 5 5 64 5 1 2 0 0 0 1 0 0 0 0 0 0 0 0 0 0 0 0 0 0 0 1 5 4 5 20 9 23 40 3 0 0 0 0 0 0 0 0
42 35 33 70 74 98 5 5 5 0 0 0 2 0 0 5 2 0 0 0 0 5 2 0 5 5 2 1 4 5 5 5 5 56 5 19 32 12 0 0 0 0 0 0
53 100 93 93 48 51 50 61 9 5 3 0 2 2 0 5 5 1 3 5 5 5 5 5 5 4 5 5 5 5 6 5 21 16 26 14 30 96 27 8 0 0 0 0
14 100 86 79 100 97 8 50 92 12 16 5 5 5 5 0 4 5 5 4 5 5 5 15 7 5 5 5 5 6 5 5 5 28 5 40 88 72 72 10 5 7 6 1
100 61 100 99 100 100 94 45 30 78 42 33 48 8 5 5 5 5 3 5 5 5 5 30 64 12 5 5 5 5 5 6 9 9 5 43 6 42 10 72 56 18 5 19
36 100 100 100 100 94 100 100 100 52 10 8 54 83 59 23 36 5 5 5 5 5 5 5 5 5 7 7 5 5 5 5 5 7 5 5 5 5 5 7 10 33 73 16
12 63 100 100 100 100 100 100 100 100 87 44 30 62 100 84 53 30 5 5 5 5 5 5 5 35 54 46 45 52 45 43 33 8 5 20 5 5 5 5 5 7 13 27
100 99 100 95 100 100 100 100 100 100 100 100 95 60 66 60 80 65 20 5 14 6 5 12 5 5 5 5 5 24 50 68 46 64 5 17 10 5 5 5 5 5 10 22
98 100 100 28 35 79 100 100 100 100 100 96 99 100 89 76 73 73 37 18 45 48 34 29 33 22 6 7 12 65 45 38 37 18 21 7 71 5 5 5 5 5 5 10
90 8 20 23 5 64 97 90 100 100 100 100 100 100 100 90 26 30 76 71 35 39 26 12 7 8 18 26 7 31 40 55 71 66 65 45 59 6 5 5 5 5 4 5
100 99 90 90 84 14 82 83 100 100 100 100 100 100 100 100 41 5 12 49 31 71 74 44 7 8 68 66 8 8 33 5 5 29 11 18 37 5 5 5 5 5 5 5
95 100 99 78 36 100 24 100 100 100 100 100 100 100 100 100 99 6 5 8 6 57 80 62 70 90 98 51 66 100 100 50 5 5 5 5 5 13 5 5 5 5 5 5
100 100 100 96 100 100 100 100 100 100 100 100 100 100 100 99 35 100 65 50 55 99 100 17 55 100 90 72 93 100 100 96 71 5 5 5 5 5 5 5 5 4 4 5
100 100 100 100 96 100 100 100 100 100 100 100 100 100 100 100 100 98 100 100 100 97 58 77 68 96 97 82 98 100 100 100 100 98 75 28 6 5 5 5 2 4 5 5
100 100 100 66 33 98 100 100 100 100 100 100 100 100 100 100 100 98 100 100 100 98 58 100 94 26 79 67 58 100 100 100 100 100 100 100 100 86 28 5 5 6 5 5

GFSNW_prec_cloud_123.txt.gz
Cloud_Cover
5 5 5 13 50 5 5 99 100 48 84 98 95 100 100 76 0 5 79 13 5 2 1 5 53 43 15 97 86 100 100 100 100 100 100 100 97 100 100 100 100 82 100 100
5 5 5 64 5 5 29 100 100 94 81 92 79 87 64 0 5 5 5 5 0 1 3 5 5 73 79 80 88 100 100 100 100 98 97 98 100 100 100 100 100 100 100 100
5 5 5 5 5 5 5 61 100 94 88 44 88 22 0 0 5 4 5 3 0 0 2 5 5 42 69 71 95 100 98 100 99 100 100 100 100 99 100 100 100 100 100 100
5 1 0 3 0 0 2 5 47 22 85 5 4 0 1 0 0 0 5 2 0 0 2 5 4 5 5 18 100 92 100 100 76 94 100 100 100 100 97 100 100 100 100 100
1 0 0 0 0 0 0 5 8 5 29 5 1 0 0 0 2 3 5 5 0 0 5 4 5 5 7 5 99 99 53 88 26 18 100 100 100 100 91 100 100 100 100 100
0 0 0 0 0 0 5 5 5 4 5 4 5 5 0 0 0 0 4 5 0 2 0 2 3 0 1 5 5 5 5 5 5 18 93 86 98 96 100 100 100 100 100 100
0 3 0 0 0 3 5 0 0 0 3 4 3 2 0 0 0 0 5 5 5 1 0 0 0 0 5 5 0 0 3 4 0 4 5 30 60 81 100 100 100 100 100 100
5 0 0 0 0 0 0 0 0 0 3 4 3 0 0 0 0 0 0 0 0 0 4 3 4 3 4 1 0 0 0 0 2 3 5 12 76 33 98 100 91 100 100 100
5 4 0 0 0 0 0 0 0 0 0 0 0 0 0 0 0 0 0 0 0 0 4 5 5 5 0 0 0 0 0 0 1 2 15 8 6 76 18 64 29 84 100 100
14 5 0 0 0 0 0 0 0 0 0 0 0 0 0 0 0 0 0 0 0 0 4 0 4 2 0 1 0 0 0 0 0 0 6 94 75 2 5 13 28 5 4 48
96 82 7 1 0 0 0 0 0 0 0 0 0 0 0 0 0 0 0 0 0 0 4 5 0 5 0 0 0 0 0 0 0 0 1 2 0 0 2 3 5 1 0 0
100 100 98 7 0 0 0 0 0 0 0 0 0 0 0 0 0 0 0 0 0 4 5 2 0 3 1 0 0 0 0 0 0 0 0 0 0 0 0 3 0 0 0 0
100 91 100 99 15 5 5 0 0 0 0 1 0 0 0 0 0 0 0 0 0 3 1 0 2 5 5 3 5 0 0 2 0 0 0 0 0 0 0 0 0 0 0 0
19 100 100 100 96 94 7 5 5 2 0 2 2 0 0 0 0 0 3 1 5 3 0 2 5 5 5 4 5 5 5 5 5 5 5 1 4 0 2 0 0 0 0 0
94 16 99 100 100 100 94 40 18 30 5 5 4 0 0 0 2 5 2 5 5 5 5 5 5 2 5 5 5 5 5 5 6 5 2 19 6 5 0 0 1 0 0 0
2 2 5 100 100 100 100 100 83 71 91 51 6 7 5 5 5 5 5 5 5 5 5 5 5 5 5 5 5 5 5 5 5 44 5 5 5 5 5 5 5 3 1 0
54 4 5 4 41 100 100 100 100 100 98 96 100 77 94 49 8 5 5 5 5 5 5 5 5 8 5 5 5 5 5 5 5 5 5 5 5 5 3 5 5 5 5 5
100 56 23 0 2 5 73 100 100 100 100 100 100 98 100 88 91 93 32 7 5 5 5 6 21 14 8 24 21 25 6 5 5 5 5 5 5 5 5 2 3 0 0 4
100 100 100 64 5 2 10 63 58 78 100 100 100 100 100 100 99 92 94 100 70 13 34 9 9 39 12 6 64 40 26 45 29 9 5 5 5 5 5 5 5 5 0 0
100 100 100 100 75 5 5 5 5 53 100 100 100 100 100 100 100 100 100 100 94 94 64 55 17 81 54 72 77 59 49 69 64 52 56 64 5 5 5 5 5 5 0 0
100 95 100 100 96 91 5 5 49 40 100 100 100 100 100 100 100 100 100 100 100 100 92 96 95 75 89 90 67 35 5 48 75 72 91 58 5 5 5 5 5 5 3 2
100 100 100 100 99 100 72 92 100 100 100 100 100 100 100 100 100 100 100 89 100 100 76 100 100 99 78 70 88 76 31 6 14 26 6 5 5 5 5 5 5 5 5 5
100 100 100 100 97 100 100 83 89 93 100 100 100 100 100 100 100 84 96 64 100 98 100 100 62 100 100 94 100 100 89 82 100 90 24 5 5 5 5 5 5 5 5 0
100 100 83 95 94 50 100 100 100 95 42 86 100 100 100 100 100 81 15 99 100 99 100 100 21 73 47 100 100 100 100 94 100 100 100 100 100 88 69 53 29 24 13 7
100 99 79 51 5 41 50 100 100 77 100 100 100 100 100 100 100 100 54 70 100 100 100 100 100 69 62 100 99 100 100 98 100 100 100 100 100 100 100 100 90 68 86 62
100 100 100 100 74 65 65 67 36 71 100 100 100 100 100 100 100 100 100 99 100 100 100 100 100 93 22 100 100 100 100 100 100 100 100 100 100 100 100 100 100 100 100 74
100 100 100 93 34 5 12 6 63 97 89 95 93 100 100 100 100 100 100 100 100 100 100 100 100 100 38 100 100 100 100 100 100 100 100 100 100 100 98 99 100 96 100 71

GFSNW_prec_cloud_126.txt.gz
Cloud_Cover
0 0 5 5 5 5 4 16 95 6 6 58 100 19 3 0 5 36 55 54 5 18 97 86 100 100 100 100 63 100 100 100 90 57 92 95 84 100 100 100 100 100 100 100
0 0 0 3 5 5 0 99 64 12 36 57 6 0 0 4 5 5 5 5 5 5 34 65 100 88 47 100 90 78 100 94 73 74 24 96 100 100 100 100 100 100 98 100
0 0 0 0 0 0 0 36 52 26 5 12 0 0 0 4 5 5 5 4 5 2 10 62 72 18 51 78 94 100 62 98 100 95 100 100 100 100 100 100 100 100 100 100
0 0 0 0 0 0 0 0 36 6 5 3 0 0 0 0 1 2 4 4 1 0 5 3 6 44 6 6 100 68 34 89 100 100 100 100 100 100 100 100 100 100 100 100
0 0 0 0 0 0 0 0 1 5 4 0 0 0 0 0 0 5 5 3 0 0 2 0 5 5 5 5 8 5 5 22 77 100 94 83 100 100 100 100 100 100 100 100
0 0 0 0 0 0 0 0 0 1 1 0 0 0 0 0 0 5 5 3 0 0 0 0 1 4 3 0 4 2 5 29 69 94 58 80 78 100 100 100 100 100 100 100
0 0 0 0 0 0 0 0 0 0 4 0 0 0 0 0 0 0 5 5 1 0 0 0 1 5 2 0 0 0 0 5 7 91 100 100 100 81 100 100 100 100 100 100
0 0 0 0 0 0 0 0 0 0 0 0 0 0 0 0 0 0 0 0 0 3 3 5 5 5 3 0 0 0 3 8 54 97 98 100 100 94 89 100 100 100 100 100
10 0 0 0 0 0 0 0 0 0 0 0 0 0 0 0 3 3 0 0 0 0 3 0 0 5 0 0 0 0 3 65 12 4 6 5 0 2 5 85 100 100 100 100
3 79 4 0 0 0 0 0 0 0 0 0 0 0 0 0 0 2 0 0 0 0 0 1 5 0 0 0 0 0 0 3 1 4 4 1 0 0 2 31 100 94 95 100
0 1 54 22 1 0 0 0 0 0 0 0 0 0 0 0 0 3 0 0 0 0 0 0 0 0 0 0 0 0 0 0 0 0 2 0 0 0 0 1 2 72 100 99
0 0 0 50 88 5 0 0 0 0 0 0 0 0 0 0 0 0 0 0 0 0 0 0 0 0 19 0 0 0 0 0 0 0 0 0 0 0 0 0 0 0 0 92
14 0 0 1 9 90 29 5 5 0 0 0 0 0 0 0 0 2 5 2 4 5 5 5 5 1 4 2 2 0 0 0 0 0 0 0 0 0 0 0 0 0 0 0
98 22 0 0 3 2 11 72 8 23 4 5 5 2 0 0 0 0 1 5 5 5 5 5 6 10 5 5 4 1 0 0 0 0 0 0 0 0 0 0 0 0 0 0
100 87 25 0 0 5 5 5 26 33 38 22 10 11 5 5 1 0 0 2 1 5 5 5 6 15 5 5 5 5 5 4 5 3 0 4 0 0 0 0 0 0 0 0
100 100 100 2 0 0 5 5 5 10 84 100 71 14 37 51 8 5 5 5 5 5 5 5 5 18 5 5 25 19 5 5 5 3 0 0 0 5 5 5 0 0 0 3
100 100 100 100 8 5 0 5 12 6 10 99 100 100 100 100 100 69 21 5 5 5 5 5 6 11 7 6 5 5 5 5 5 5 5 5 1 3 0 5 5 5 5 5
77 100 100 99 96 95 39 2 5 5 37 70 89 100 100 100 100 100 100 76 57 20 16 34 44 66 56 33 31 17 6 5 5 5 5 5 4 5 5 5 5 1 5 3
93 98 100 100 96 99 100 33 2 8 76 100 100 100 100 100 100 100 100 100 100 80 78 71 93 93 71 58 65 63 36 5 15 14 5 10 8 5 5 5 5 5 4 4
92 94 23 100 95 97 61 96 40 4 7 100 100 100 100 100 100 100 100 100 100 100 99 100 100 100 100 94 82 98 90 48 23 24 5 5 5 6 5 5 5 5 0 0
99 60 100 43 99 77 100 98 100 99 80 43 69 25 73 98 100 75 88 100 100 100 100 100 100 100 100 100 91 87 97 77 16 5 5 5 5 5 5 5 5 5 5 5
61 59 76 93 97 43 81 88 84 19 90 76 47 5 5 5 36 99 86 31 20 100 100 100 100 100 100 100 100 100 62 100 100 71 24 33 5 5 5 5 5 5 5 5
100 100 100 98 94 84 52 100 100 100 99 7 77 81 5 60 56 13 16 84 66 26 100 100 100 100 100 100 100 100 100 99 100 100 100 100 100 100 96 94 100 94 37 99
100 100 100 100 100 77 35 14 54 68 32 13 11 37 5 5 30 41 57 27 12 94 100 100 100 100 60 100 100 100 96 97 100 100 100 100 100 100 100 100 100 100 100 100
100 100 100 100 100 40 48 54 12 12 35 5 5 9 21 13 5 80 54 59 96 99 100 100 100 100 100 74 99 79 74 76 100 100 100 100 100 100 100 100 100 100 100 100
100 100 100 100 100 58 92 94 37 16 10 5 34 76 75 5 32 59 20 98 89 71 80 99 100 100 100 99 51 38 83 99 100 100 100 100 100 100 100 100 100 100 100 100
100 100 100 100 100 100 100 38 5 77 99 8 68 70 78 34 62 56 5 6 99 78 92 81 97 100 100 100 100 100 99 91 97 100 100 100 100 100 100 100 100 100 100 100

GFSNW_prec_cloud_129.txt.gz
Cloud_Cover
0 0 0 0 0 0 0 0 22 5 5 4 16 5 2 40 97 94 78 5 89 100 48 10 44 100 100 87 99 100 99 100 100 100 100 80 98 79 89 79 100 95 100 100
0 0 0 0 0 0 0 49 13 0 0 5 5 0 0 5 5 5 5 5 13 46 5 6 49 100 100 100 98 100 98 85 59 99 100 100 68 44 100 100 100 100 100 100
0 0 0 0 0 0 0 4 6 0 0 8 0 0 1 5 5 5 1 3 28 18 5 5 68 81 100 99 97 72 94 100 98 53 95 100 100 99 100 100 100 100 100 100
0 0 0 0 0 0 0 5 32 5 5 0 0 0 0 0 2 0 0 0 0 1 5 4 7 62 22 100 100 26 6 73 95 93 100 100 100 98 100 100 100 100 100 100
0 0 0 0 0 0 0 0 1 0 0 0 0 0 0 0 2 5 2 0 0 0 0 0 5 5 5 5 5 5 5 7 44 92 100 100 100 100 100 100 100 100 100 100
5 0 0 0 0 0 0 0 0 0 0 0 0 0 0 0 0 5 0 0 0 0 0 0 0 4 5 5 5 5 5 5 91 100 100 100 100 100 100 100 100 100 100 100
5 5 0 0 0 0 0 0 0 0 1 0 0 0 0 0 0 3 1 1 0 0 0 0 0 4 4 4 0 0 0 2 2 95 100 100 74 100 100 100 100 100 100 100
4 0 1 0 0 0 0 0 0 0 0 0 0 0 0 0 0 0 1 0 0 0 0 0 0 3 0 0 0 18 78 92 22 5 9 96 100 100 100 100 100 100 100 100
0 0 0 0 0 0 0 0 0 0 0 0 0 0 0 0 3 2 0 0 0 0 4 0 0 3 0 0 0 0 0 0 0 3 5 4 100 100 100 100 96 100 100 100
6 0 0 0 0 0 0 0 0 0 3 0 0 0 0 0 0 3 0 0 0 0 0 4 5 0 0 3 0 0 0 0 1 5 4 5 5 4 7 41 94 26 100 100
100 77 0 0 0 0 0 0 0 0 0 0 0 0 0 0 0 1 0 0 3 0 1 0 6 2 0 2 0 0 0 0 3 4 2 0 0 6 55 57 92 98 85 10
15 100 18 0 0 0 0 4 0 0 0 0 0 0 0 0 0 1 4 2 0 0 1 0 0 5 24 0 0 0 0 0 0 0 0 0 0 0 7 96 100 100 97 100
6 81 100 12 49 4 0 0 4 5 1 0 0 0 0 0 0 0 4 1 5 5 1 0 4 5 5 5 5 3 4 0 0 0 0 0 0 0 0 0 0 40 75 84
59 30 100 90 55 14 2 0 0 5 7 5 4 4 5 4 5 4 2 1 5 5 5 5 5 5 5 5 5 5 5 0 0 0 5 5 4 0 0 0 0 0 0 0
56 49 96 24 82 82 5 1 0 0 5 66 67 48 4 5 5 5 5 6 14 5 5 5 5 5 5 5 5 5 5 5 5 5 5 3 2 0 2 2 5 4 3 0
58 46 83 96 27 91 100 32 14 0 5 61 92 100 100 100 65 5 5 5 12 53 33 8 8 5 5 5 5 5 5 5 5 5 5 5 5 4 0 0 0 0 0 0
100 88 28 91 78 85 29 93 81 2 3 16 82 69 81 100 100 100 98 61 10 5 11 17 31 36 5 5 5 5 5 5 5 5 5 5 5 5 5 5 1 1 0 0
100 100 30 92 84 21 77 89 92 6 5 4 5 39 78 19 50 100 100 100 100 83 36 34 96 57 26 38 5 5 5 5 5 5 5 3 1 2 5 5 5 5 5 5
100 100 100 51 20 10 58 7 7 12 57 70 5 4 4 9 60 32 20 100 98 100 100 100 100 66 96 98 32 5 5 5 5 5 5 4 4 4 1 5 5 5 5 5
100 100 100 100 66 96 87 21 85 9 68 55 8 5 5 5 5 5 5 22 5 95 100 100 100 100 97 96 18 39 5 5 5 5 5 5 5 0 0 0 5 4 5 5
100 42 98 100 100 93 56 68 93 8 19 51 32 23 16 5 5 4 5 5 22 32 100 100 100 100 100 100 70 100 99 20 5 5 5 5 5 5 5 5 5 5 5 3
100 100 100 100 100 100 98 66 79 49 41 58 50 8 23 5 5 5 5 18 62 100 100 100 100 100 89 96 98 81 100 100 38 5 5 5 5 5 5 5 5 5 68 88
100 100 100 100 100 100 100 52 98 82 50 11 18 54 6 5 5 8 12 61 17 64 100 100 100 100 100 28 95 100 100 100 100 83 5 5 5 7 48 48 33 62 62 99
100 100 100 100 100 100 100 100 100 96 14 26 12 16 5 5 11 6 5 2 14 80 56 98 100 100 100 100 93 100 100 96 96 100 100 100 79 13 99 100 100 100 100 100
100 100 100 100 100 100 100 100 100 97 100 100 100 100 55 52 100 83 25 42 86 5 1 4 25 87 100 100 100 100 100 100 100 43 90 100 100 100 100 100 100 100 100 100
100 99 100 100 100 100 100 100 52 72 100 48 100 100 100 100 100 100 89 5 5 56 5 5 5 10 71 98 100 100 100 100 100 100 89 41 65 90 98 100 100 100 100 100
100 100 100 100 100 100 100 37 100 100 99 93 100 92 100 100 100 100 36 5 7 17 5 5 5 27 60 77 100 100 100 100 100 100 100 100 100 96 83 100 100 100 100 100

GFSNW_prec_cloud_132.txt.gz
Cloud_Cover
6 2 5 5 4 0 0 0 0 0 3 3 17 5 6 26 5 14 21 5 8 62 100 97 100 100 92 48 98 100 100 100 100 100 100 99 100 97 100 100 100 100 100 100
5 42 5 5 0 0 0 0 0 0 0 5 5 4 5 5 10 5 5 5 59 42 100 100 100 100 100 100 96 100 100 100 100 100 100 100 100 100 100 100 100 100 100 100
3 3 1 0 0 3 0 0 4 0 0 0 0 0 4 5 4 1 0 5 10 5 95 97 100 60 98 99 100 100 100 100 100 100 100 100 100 100 100 100 100 100 100 100
0 0 0 0 0 0 0 5 32 2 5 0 0 0 0 0 0 0 0 0 0 3 76 97 58 5 29 100 100 100 100 100 100 100 100 100 100 100 100 100 100 100 100 100
0 0 0 0 0 0 0 0 0 0 0 0 0 0 0 0 0 0 0 0 0 0 1 4 5 5 63 93 91 100 98 87 100 100 100 100 100 100 100 100 100 100 100 100
0 0 0 0 0 0 0 0 0 0 1 0 0 0 0 0 0 1 0 0 0 0 4 4 0 0 3 5 91 100 100 8 89 100 100 100 100 100 100 100 100 100 100 100
10 0 0 0 0 0 0 0 0 0 0 0 0 0 0 0 0 0 0 0 0 0 0 0 3 18 3 2 4 63 61 18 18 100 99 100 100 100 100 100 100 100 100 100
8 2 0 0 0 0 0 0 0 0 0 0 0 0 0 0 0 0 0 0 0 0 0 0 0 0 48 7 0 0 1 4 4 5 14 100 100 100 100 100 100 100 100 100
24 8 4 1 0 0 0 0 0 0 0 0 0 0 0 0 1 0 0 0 1 0 0 0 0 5 0 0 0 0 0 5 5 5 8 6 13 89 47 100 100 100 100 99
12 5 5 6 47 0 0 0 0 0 0 0 0 0 0 0 0 3 0 0 1 0 0 3 5 1 0 5 0 0 0 1 5 20 5 7 43 46 40 100 96 100 100 100
5 5 5 4 21 43 3 0 0 0 0 0 0 0 0 0 0 2 0 0 1 0 1 3 6 5 4 2 0 0 0 0 5 4 5 2 44 31 97 87 93 97 56 92
6 72 6 5 5 8 53 1 0 0 0 0 0 0 0 0 0 0 0 1 0 0 3 2 1 5 54 2 1 0 3 0 0 0 1 6 7 73 24 91 99 100 82 94
70 5 5 1 5 5 17 76 6 3 5 5 5 2 0 0 0 1 0 0 0 0 0 0 0 4 5 5 5 5 5 2 3 0 5 1 0 0 0 4 30 52 18 10
96 6 5 2 4 1 5 7 67 20 2 5 5 5 5 5 3 0 4 5 5 1 0 0 1 3 2 4 5 5 5 5 5 5 4 4 5 1 0 0 0 0 3 3
100 51 87 67 4 4 5 5 12 92 54 3 3 11 37 18 6 5 4 3 5 5 5 5 4 2 4 5 5 13 5 5 5 5 5 5 5 5 5 5 4 0 0 1
100 64 100 20 61 93 8 5 5 22 100 98 4 0 5 18 51 51 49 5 5 5 5 6 5 0 0 4 2 5 5 10 5 5 5 4 5 5 5 5 5 5 5 5
94 98 95 100 100 100 100 8 15 11 69 78 95 6 0 4 5 12 40 16 24 6 5 52 9 5 4 5 5 0 0 0 0 0 1 4 5 5 4 7 32 5 5 5
100 100 100 100 100 100 100 11 5 5 5 15 59 85 34 0 4 5 5 86 97 75 54 14 75 5 8 81 2 0 0 0 0 0 0 0 0 0 3 5 1 2 1 4
100 100 100 94 100 100 100 100 97 47 5 11 34 28 86 8 5 3 5 5 39 100 95 95 100 48 38 100 23 5 6 5 5 2 0 2 0 0 1 5 5 0 0 1
100 100 100 100 100 100 100 100 100 85 13 5 5 5 5 26 5 5 5 5 3 63 100 100 100 100 7 86 100 82 100 100 47 5 5 5 2 0 0 0 0 0 0 5
100 100 100 100 100 100 100 100 100 100 100 33 5 20 5 5 5 29 5 6 22 5 9 40 94 100 100 100 100 92 97 100 98 100 39 6 5 6 5 4 5 4 2 0
100 100 100 100 100 100 100 100 100 100 100 98 67 100 100 47 5 7 26 10 11 5 5 30 55 100 100 92 100 100 98 63 88 100 81 100 57 5 5 5 5 13 5 5
100 100 100 100 100 100 100 100 100 100 100 100 42 70 100 100 100 71 83 72 10 5 67 14 5 2 12 40 32 11 88 100 99 78 95 83 71 89 99 91 94 87 99 100
100 100 100 100 100 100 100 100 100 100 100 100 95 71 100 100 100 100 100 100 69 91 64 6 5 1 4 0 0 4 5 94 100 100 100 100 100 95 70 21 9 25 76 99
100 100 100 100 100 100 100 100 100 100 100 100 100 100 100 100 100 100 100 100 100 6 7 33 88 63 15 5 4 4 5 2 77 100 100 100 100 100 100 100 94 95 85 50
100 100 98 100 100 100 100 100 100 100 100 100 100 100 100 100 100 100 100 100 100 4 86 100 57 6 8 39 69 7 5 5 4 6 88 100 100 100 100 100 100 100 100 100
100 100 100 100 100 100 100 100 100 99 100 94 83 100 100 100 100 100 100 100 88 96 100 100 100 15 3 4 7 96 58 24 74 100 68 5 62 100 100 100 100 100 100 100

GFSNW_prec_cloud_135.txt.gz
Cloud_Cover
0 0 1 0 0 0 0 0 4 0 0 3 17 5 5 20 5 5 6 57 18 22 100 100 98 100 67 9 43 62 100 100 98 100 100 100 100 100 100 100 100 100 100 100
0 0 0 0 0 12 0 0 0 0 0 5 5 5 5 5 5 56 96 98 90 56 99 100 72 8 19 82 100 100 100 100 100 100 100 100 100 100 100 100 100 100 100 100
0 0 0 0 0 0 0 0 4 1 0 0 0 1 5 5 4 1 5 5 32 100 77 94 100 100 100 100 100 100 100 100 100 100 100 100 100 100 100 100 100 100 100 100
4 0 0 0 0 0 0 6 30 1 5 0 0 0 0 0 0 0 0 5 5 4 31 95 100 100 100 100 100 100 100 100 100 100 100 100 100 100 100 100 100 100 100 100
60 2 0 0 0 0 3 0 0 0 0 0 0 0 0 0 0 0 0 2 0 4 17 6 5 58 82 100 100 100 100 100 100 100 100 100 100 100 100 100 100 100 100 100
100 6 0 0 0 0 0 0 0 0 0 0 0 0 0 0 0 2 0 0 3 17 59 80 55 72 40 100 100 100 100 100 83 100 100 100 100 100 100 100 100 100 100 100
92 92 1 0 0 0 0 0 0 0 0 0 0 0 0 0 0 1 0 0 0 0 0 0 2 29 50 32 6 76 92 100 100 100 100 100 100 100 100 100 100 100 100 100
5 100 24 0 0 0 0 0 0 0 0 0 0 0 0 0 0 0 0 0 0 0 0 0 0 0 0 0 5 16 6 98 100 98 100 100 100 100 100 100 100 100 100 80
1 6 100 96 0 0 0 0 0 0 0 0 0 0 0 0 2 0 0 4 4 0 0 1 0 3 0 2 4 5 39 16 84 5 95 35 80 66 99 100 80 98 100 96
5 4 10 99 4 0 0 0 0 0 0 4 0 0 0 0 0 3 2 0 0 2 4 5 5 1 0 2 0 0 20 15 48 8 39 30 46 66 11 100 98 100 72 83
5 5 5 99 11 2 0 0 0 0 0 0 1 5 1 0 0 0 0 0 0 0 3 4 7 5 5 5 0 0 0 2 5 5 17 29 40 91 92 77 90 58 94 100
28 5 5 29 100 38 1 3 0 0 5 2 0 0 5 5 0 0 0 0 0 0 5 2 5 5 63 5 5 5 3 0 0 0 0 2 4 13 14 52 100 100 88 18
100 53 5 5 5 66 28 2 5 2 0 4 5 0 1 5 5 5 5 5 2 0 0 0 3 4 5 5 4 2 4 5 4 2 3 0 0 0 0 0 0 0 0 0
100 100 10 5 5 5 69 11 5 5 4 5 5 5 2 0 4 9 5 5 5 5 5 0 2 5 3 4 2 3 0 0 0 0 1 1 3 5 0 0 0 0 0 0
100 100 100 67 29 55 8 5 57 3 2 12 5 5 5 5 0 2 5 17 5 5 14 8 4 5 4 4 5 34 3 0 0 0 4 2 5 5 5 5 5 3 0 0
100 100 100 100 59 92 100 99 22 5 0 1 49 10 5 5 5 3 0 0 5 5 6 80 8 5 5 5 5 0 3 0 0 0 4 4 2 4 5 5 5 5 6 5
100 100 100 100 100 84 100 100 100 100 100 47 5 45 5 5 5 5 3 0 0 2 5 40 95 5 6 100 8 5 3 2 0 0 0 0 4 5 5 5 5 5 5 5
100 100 100 100 100 100 100 100 26 100 100 100 100 99 25 5 5 5 5 1 0 2 2 5 10 26 15 66 71 5 5 5 5 1 0 0 0 0 0 1 2 5 5 7
100 100 100 100 100 100 75 100 100 100 100 100 100 100 100 22 9 5 5 5 5 5 5 5 5 10 5 11 89 97 42 46 45 5 4 5 2 0 0 0 0 0 0 0
100 100 100 100 100 100 100 93 100 100 100 100 100 100 100 100 81 12 15 5 35 6 4 5 17 5 0 0 2 5 67 74 99 100 47 6 5 5 5 0 0 0 0 0
100 100 100 100 100 100 98 100 100 100 100 100 100 100 100 100 100 98 5 84 19 5 5 6 5 9 2 0 0 0 3 77 81 8 80 100 94 17 10 5 5 5 4 5
100 100 100 100 100 100 100 100 100 100 100 100 100 100 100 100 100 100 46 78 100 44 6 60 40 5 4 0 1 0 0 0 2 23 53 67 100 100 100 81 51 7 22 61
100 100 100 100 86 97 100 100 100 100 100 100 100 100 100 100 100 100 100 100 100 100 87 14 96 95 22 5 5 5 6 2 1 0 0 13 100 100 100 100 100 100 100 92
100 100 100 100 76 65 100 100 100 100 100 44 98 100 100 100 100 100 100 100 100 100 100 38 52 100 100 93 11 7 6 14 59 59 7 0 0 3 64 99 100 100 100 100
100 100 100 100 100 99 100 100 100 100 100 95 11 98 100 100 100 100 100 100 100 100 96 47 30 76 100 100 100 100 100 97 28 15 80 94 62 14 30 41 97 99 86 100
100 100 100 100 100 100 100 100 100 100 100 100 100 82 100 100 100 100 100 100 100 100 100 18 70 100 99 89 99 100 100 100 100 100 37 93 90 55 55 92 93 60 76 100
100 100 100 100 100 100 100 100 100 100 100 100 95 100 100 100 100 100 100 100 100 100 68 78 97 100 100 100 100 100 100 97 21 91 100 100 47 6 5 8 38 68 97 100

GFSNW_prec_cloud_138.txt.gz
Cloud_Cover
0 0 0 0 0 0 0 0 0 0 0 8 2 5 5 5 5 3 0 5 5 31 45 58 23 25 17 34 96 90 100 100 93 100 100 100 100 100 100 100 100 100 100 100
1 0 0 0 0 0 0 0 0 0 0 4 5 5 5 5 5 0 2 5 5 4 1 6 6 41 85 100 91 97 100 100 100 100 100 100 100 100 100 100 100 100 100 100
3 0 0 0 0 0 0 0 3 0 0 0 0 4 3 2 0 0 0 0 5 5 57 98 100 100 100 100 100 100 100 100 100 100 100 100 100 100 100 100 100 100 100 100
3 0 2 0 0 0 0 0 2 0 0 0 0 0 0 0 2 0 0 3 2 55 100 100 100 83 100 100 100 100 100 100 100 100 100 100 100 100 100 100 100 100 100 100
5 0 3 5 0 0 0 0 0 0 0 0 0 0 0 0 0 0 11 5 0 1 2 5 6 43 39 100 100 100 100 100 100 100 100 100 100 100 100 100 100 100 100 100
5 5 0 5 8 0 0 0 0 0 0 0 0 0 0 0 0 0 0 0 0 3 1 0 5 6 5 92 100 100 99 100 96 100 100 80 100 100 100 100 91 100 100 100
8 5 2 4 59 11 0 0 0 0 0 0 0 0 0 0 0 0 0 0 0 0 3 0 1 5 4 10 88 100 100 100 100 100 100 100 100 100 100 100 100 97 100 100
93 13 4 4 4 45 7 0 0 0 0 0 0 0 0 0 0 0 0 0 0 0 0 0 0 18 4 5 94 89 100 100 100 94 100 100 100 100 69 19 100 100 100 100
48 99 14 5 2 5 28 5 0 0 0 0 0 0 0 0 0 0 0 0 0 0 0 0 0 0 0 4 4 11 5 21 100 100 94 70 20 97 71 29 45 28 21 39
5 65 100 32 5 3 5 35 5 0 0 0 0 0 0 0 0 0 0 0 0 0 1 2 4 0 0 0 0 0 4 5 28 19 39 96 84 80 74 62 71 56 38 56
50 40 100 100 86 9 5 5 45 5 0 0 0 0 0 0 0 0 0 0 0 0 1 0 0 0 2 0 0 4 3 2 4 5 6 18 28 58 82 100 7 5 8 20
100 100 100 100 100 99 96 51 5 5 5 0 3 0 0 0 0 0 0 0 0 0 0 2 0 0 5 1 5 5 5 5 5 2 5 4 5 5 5 45 98 5 0 0
100 100 100 100 100 100 100 100 95 5 33 5 1 5 2 2 0 0 0 0 0 0 0 2 0 1 0 0 0 2 5 5 5 5 5 5 5 5 4 4 0 0 0 0
100 100 100 100 100 100 100 100 100 91 5 11 5 10 5 5 0 0 0 0 0 3 0 1 5 2 0 0 0 0 0 2 3 6 16 26 14 6 7 5 5 5 5 3
100 100 100 100 70 100 100 100 100 100 100 90 58 8 50 61 9 1 0 0 0 0 3 5 3 5 5 4 4 5 0 0 0 0 0 0 1 4 5 5 12 20 21 45
100 100 100 100 42 70 100 100 100 100 100 100 100 23 44 100 59 7 5 0 0 0 0 0 0 0 7 72 1 0 0 0 3 5 3 0 0 0 0 0 5 5 18 48
100 100 100 100 100 72 78 100 100 100 100 100 100 100 5 61 100 93 5 5 1 0 0 1 2 1 4 5 5 6 5 5 5 2 3 5 5 4 4 1 1 0 0 0
100 100 100 100 100 100 80 83 100 100 100 100 100 100 49 6 86 100 97 8 11 2 1 5 6 5 5 4 0 6 42 62 74 35 5 5 34 5 5 5 5 4 1 0
100 100 100 100 100 100 100 57 89 100 100 100 100 84 84 53 96 100 100 97 64 51 5 4 5 50 12 1 0 0 0 2 6 16 84 94 37 60 75 56 5 5 5 5
100 100 100 100 100 100 100 100 57 100 100 100 100 100 100 99 100 100 100 100 86 100 23 5 8 5 5 66 5 0 0 0 0 0 1 5 11 87 100 89 93 100 70 57
100 100 100 100 100 100 100 100 100 100 100 100 100 100 100 92 48 100 100 100 100 100 100 54 7 36 90 4 3 4 2 3 0 0 0 0 0 0 0 2 6 87 74 93
100 100 100 100 100 100 100 100 100 100 100 100 98 42 100 97 38 100 100 100 100 100 100 100 66 13 100 52 39 4 1 3 4 4 5 16 3 2 0 0 0 1 2 21
100 100 100 100 100 100 100 100 100 100 100 100 100 60 96 100 84 100 100 96 73 88 100 100 100 84 100 100 100 81 46 5 13 48 15 5 5 26 76 79 80 4 0 2
100 100 100 100 100 100 100 100 100 100 100 100 87 97 100 99 70 100 100 100 100 99 100 100 100 100 100 100 99 97 100 99 19 5 7 4 4 22 16 51 30 47 42 9
100 100 100 100 100 100 100 100 100 100 100 100 100 39 53 100 100 100 100 100 100 80 95 100 100 100 14 100 100 100 100 98 94 5 5 4 68 100 100 100 100 81 14 5
100 100 100 100 100 100 100 100 100 100 100 100 100 90 47 100 100 100 100 100 100 100 67 94 100 100 100 100 100 100 100 73 12 78 84 100 100 100 100 100 91 100 100 100
100 100 100 100 100 100 100 100 100 100 100 100 100 97 100 95 38 100 100 100 100 100 100 32 98 100 100 100 98 99 65 5 30 100 100 100 100 100 70 98 100 100 100 99

GFSNW_prec_cloud_141.txt.gz
Cloud_Cover
0 0 0 0 0 0 0 0 1 0 0 11 4 5 8 10 5 5 1 4 5 5 5 7 81 100 100 98 100 100 100 100 100 100 100 100 100 100 100 100 100 100 100 100
2 0 0 0 0 0 0 0 0 0 0 4 1 2 3 1 4 4 3 3 4 11 32 86 90 47 10 18 84 100 100 100 100 100 100 100 100 100 100 100 100 100 100 100
0 1 0 0 0 0 0 0 18 0 0 0 0 2 1 2 5 12 79 98 82 100 100 100 100 100 98 100 100 100 99 100 100 100 100 100 100 100 100 100 100 100 100 100
2 0 0 0 0 0 0 0 0 0 0 0 0 0 0 0 0 0 0 89 76 33 94 100 100 100 100 100 100 100 100 99 100 100 100 100 100 100 100 100 100 100 100 100
14 0 0 0 0 0 0 0 0 0 0 0 0 0 0 0 0 0 0 1 5 5 5 14 100 98 100 100 100 100 100 100 100 100 100 100 100 100 100 100 100 100 98 98
94 5 1 0 1 0 0 0 0 0 0 0 0 0 0 0 0 0 2 2 0 3 3 0 42 100 100 94 25 100 100 100 100 100 100 100 100 92 100 100 100 82 100 82
80 66 5 2 0 0 0 0 0 0 0 0 0 0 0 0 0 2 0 0 0 0 0 0 1 8 6 64 99 84 48 61 100 100 100 100 67 65 100 100 100 100 100 95
5 18 63 22 4 2 0 0 0 0 0 0 0 0 0 0 0 0 0 0 0 0 0 4 2 1 5 88 10 40 53 50 80 100 100 71 100 100 100 46 67 100 72 53
83 5 58 100 87 26 6 5 1 0 0 0 0 0 0 0 0 0 0 0 0 0 5 4 0 0 3 26 92 100 96 76 58 69 67 92 85 99 87 94 100 99 98 45
100 100 58 84 100 100 65 37 64 8 7 0 0 0 0 0 0 0 0 0 0 0 2 1 4 0 0 4 66 58 40 78 55 100 66 58 96 74 83 90 86 83 24 15
100 100 100 52 100 100 99 81 99 98 100 80 0 0 0 0 0 0 0 0 0 1 0 0 0 0 0 0 0 0 0 26 81 59 70 98 77 74 64 20 41 5 2 3
100 100 100 94 44 100 100 100 100 100 90 100 21 5 3 0 4 0 0 0 0 0 0 3 5 1 5 5 5 4 1 0 0 0 1 0 4 5 2 5 0 0 0 0
100 100 100 100 100 63 52 95 100 100 99 100 94 12 5 5 5 60 3 0 0 0 0 0 5 5 5 3 4 3 5 5 5 3 5 5 5 4 0 0 0 0 4 0
100 100 100 100 100 100 94 28 39 100 90 77 100 100 54 5 35 9 100 62 5 0 0 0 0 3 2 2 1 5 4 5 5 5 5 5 5 5 6 5 5 5 5 5
100 100 93 100 100 100 100 100 83 50 98 100 100 100 100 39 6 6 87 100 100 10 2 2 0 0 0 0 4 5 0 2 1 0 2 5 5 5 5 5 5 5 5 5
100 94 100 100 100 100 100 100 100 100 99 18 100 100 100 100 31 92 100 97 100 100 6 4 2 0 0 0 0 0 4 5 5 3 0 5 1 0 0 0 0 0 0 0
100 100 99 100 100 100 100 100 82 100 100 48 56 100 100 100 97 77 100 100 100 100 100 26 2 3 1 2 0 0 0 0 4 5 4 4 5 4 5 5 5 5 5 1
100 100 100 100 100 100 100 100 100 100 100 100 78 88 100 91 100 100 100 100 100 100 100 100 78 6 18 5 1 0 4 0 0 0 3 5 5 5 5 4 5 4 0 3
100 100 100 100 100 100 100 100 100 100 100 100 100 51 53 100 92 100 100 59 90 100 100 100 100 90 85 90 20 5 4 5 15 5 4 0 0 4 0 0 0 5 5 5
100 100 100 100 100 100 100 100 100 97 100 100 100 100 79 40 99 62 100 100 6 45 100 100 89 100 90 100 100 97 100 31 5 21 40 5 3 5 2 5 0 0 0 0
100 100 100 100 100 100 100 100 100 65 100 100 100 100 100 98 59 70 35 99 100 73 97 28 100 100 39 62 100 100 100 100 98 43 5 54 31 14 5 5 4 0 2 2
100 100 100 100 100 100 100 78 100 100 100 100 100 100 100 100 90 5 60 9 81 100 100 100 100 85 100 56 66 94 100 100 30 5 5 4 6 7 8 2 5 5 5 7
100 100 100 100 100 100 99 99 100 100 100 100 100 100 100 100 100 100 27 10 57 97 68 100 100 100 100 77 7 100 56 99 98 67 100 7 4 3 4 5 5 5 8 42
100 100 100 100 100 100 100 100 100 100 100 100 100 100 100 100 100 100 99 82 99 86 100 100 100 77 100 100 100 100 100 76 90 100 16 75 100 34 5 5 5 79 91 100
100 100 100 100 100 100 100 100 100 100 100 100 100 100 100 100 100 100 100 100 100 100 100 36 100 100 79 100 100 100 100 100 100 5 5 100 71 20 84 37 8 66 100 100
100 100 100 100 100 100 100 100 100 100 100 100 100 100 100 100 100 100 100 100 100 100 100 100 100 100 73 100 79 96 91 100 40 10 80 91 73 100 100 100 70 100 100 100
100 100 100 95 18 99 100 100 100 100 100 100 100 100 100 100 100 100 100 100 100 100 32 99 100 100 43 98 96 13 63 100 82 53 92 63 84 100 99 100 100 100 100 100